GFSMA_2pvu_pres_000.txt.gz
Presure
90 102 83 99 79 95 99 126 187 198 250 208 230 161 196 204 133 149 207 155 187 203 195 199 161 190 182 165 150 178 151 98 97 142 175 173 172 173 176 182 174 192 163
97 110 94 89 106 84 176 125 127 116 220 234 222 217 215 206 182 204 176 192 149 168 179 193 196 200 190 188 182 154 135 101 140 140 150 151 159 169 178 182 164 173 165
182 79 83 94 85 108 186 193 205 226 230 222 213 217 218 221 213 204 211 206 210 209 207 215 216 215 216 219 210 210 190 186 186 181 178 175 138 157 176 161 164 163 166
136 171 84 93 103 109 142 196 197 215 221 205 214 207 201 199 197 194 195 194 196 197 198 202 198 194 195 199 200 201 199 193 196 207 206 203 204 203 200 186 171 176 203
103 99 111 123 105 108 125 205 203 180 206 196 182 192 188 186 185 186 186 184 184 183 184 186 185 182 182 182 181 184 179 192 189 184 184 199 188 196 196 196 200 204 203
117 117 179 107 107 110 110 194 192 114 190 191 188 191 189 192 190 188 189 181 186 182 181 184 194 189 182 194 191 186 187 182 182 188 187 184 181 184 191 199 190 194 190
89 111 104 191 106 110 111 190 187 184 192 191 186 183 185 181 180 183 191 189 185 184 182 185 98 178 197 174 175 190 173 172 175 171 166 163 190 175 172 196 179 179 184
107 99 99 109 109 140 192 199 177 193 173 185 178 171 177 188 182 169 181 174 174 189 191 182 185 183 191 183 184 196 192 188 188 190 195 195 192 194 193 197 206 192 184
109 221 110 108 112 193 187 180 180 190 176 181 179 131 183 181 182 180 185 188 179 182 180 192 202 207 205 202 195 202 207 199 198 187 180 186 194 207 212 218 215 209 209
136 111 195 149 161 193 180 181 190 182 184 182 183 179 185 182 167 165 175 177 176 188 192 190 191 200 184 184 266 251 246 205 203 200 236 243 231 224 227 176 232 230 231
208 213 198 191 193 180 190 187 190 186 182 188 182 183 180 179 172 174 171 150 180 170 174 182 258 248 232 229 230 230 229 230 229 233 234 232 232 232 227 230 231 260 278
204 198 196 183 184 181 192 188 192 177 178 183 172 181 179 177 176 174 178 191 182 200 268 232 230 232 236 246 249 237 231 233 252 243 256 269 258 261 264 260 237 266 176
196 197 184 191 184 155 186 192 185 189 175 179 180 175 171 183 179 187 194 207 234 270 240 224 257 259 252 209 245 264 269 263 261 259 257 257 257 257 218 254 256 255 252
195 190 187 193 193 200 196 189 176 190 192 190 179 180 184 188 189 199 216 241 269 211 269 264 251 253 282 270 257 248 242 235 235 235 228 228 229 230 231 235 236 236 239
188 182 184 195 191 181 186 175 189 187 182 173 180 190 183 198 196 185 139 261 236 278 256 278 273 234 223 153 167 216 212 211 209 206 221 225 230 173 240 239 222 224 230
193 189 192 189 172 171 186 189 180 176 177 184 189 188 195 174 211 237 244 258 266 269 276 215 86 194 182 212 228 232 221 247 238 364 416 530 525 512 495 481 481 484 491
196 192 188 181 188 192 188 178 176 182 169 185 198 190 199 214 235 163 249 283 273 236 226 211 218 229 237 138 254 351 140 502 534 527 520 508 504 508 505 488 462 444 447
196 196 181 186 184 177 177 172 189 189 155 202 141 185 214 228 217 268 271 250 219 215 220 233 239 164 298 330 354 492 590 612 603 594 574 550 546 536 506 492 478 457 451
186 191 195 181 173 177 175 191 139 193 201 126 206 214 221 228 268 248 228 217 211 224 236 248 271 332 332 510 616 535 576 599 596 586 582 552 544 546 506 494 468 438 448
187 181 176 173 179 186 193 167 198 195 187 208 223 233 251 277 257 217 202 211 228 241 254 277 337 380 625 568 469 464 472 483 486 495 494 494 491 492 457 459 426 380 364
181 176 175 181 150 187 189 201 191 194 205 231 224 271 273 237 166 203 216 232 246 267 317 338 474 522 483 450 438 451 430 454 421 424 395 406 375 363 363 359 357 352 348
173 183 183 165 188 182 202 189 204 209 261 220 273 257 193 214 210 222 239 246 273 330 342 506 505 476 422 417 443 427 365 453 448 470 403 347 333 333 332 337 346 357 359
184 189 191 189 185 193 192 167 222 253 245 269 244 206 204 211 228 238 250 281 315 330 517 497 481 411 402 363 373 398 384 348 331 328 327 340 341 344 344 339 343 360 360
189 189 192 200 183 197 185 245 230 274 259 186 186 194 214 224 241 261 310 310 400 512 477 451 404 373 359 375 348 340 316 325 327 328 327 327 325 325 332 343 360 361 359
184 200 191 161 155 221 253 270 271 236 165 183 200 215 229 239 300 309 327 443 513 472 427 387 358 354 362 338 324 330 327 323 325 324 311 309 309 321 334 347 355 358 367
190 177 187 190 264 231 275 248 221 203 181 206 215 229 249 305 308 384 468 503 494 413 374 353 348 355 329 334 326 325 313 310 310 320 309 303 304 327 342 352 355 354 366

GFSMA_2pvu_pres_003.txt.gz
Presure
80 84 84 100 140 138 95 93 84 100 107 183 161 203 209 233 218 226 218 216 213 212 208 205 181 190 200 178 200 177 185 192 194 185 173 162 168 125 109 150 160 180 180
86 91 88 94 103 181 84 89 93 111 108 111 138 201 218 193 215 218 210 209 207 207 205 204 202 200 201 202 201 202 204 205 207 213 183 183 122 179 180 171 160 156 149
185 79 84 152 107 103 84 108 111 97 105 136 219 202 220 204 204 198 186 182 193 194 192 192 191 199 192 192 195 202 194 191 192 196 193 188 192 187 173 206 193 184 186
107 87 115 120 129 92 83 115 115 105 134 109 210 201 194 102 192 188 196 189 190 189 181 183 184 183 183 183 184 184 183 184 187 182 186 182 201 192 195 200 197 201 201
107 98 195 133 80 109 89 107 94 104 109 111 212 199 194 180 191 191 184 189 183 184 188 194 191 195 181 182 183 186 183 188 187 182 181 181 183 185 184 184 185 184 185
120 82 106 109 84 105 106 102 96 104 109 111 209 196 178 183 196 186 190 181 180 183 190 195 185 184 191 192 192 190 187 190 184 182 179 176 192 189 180 176 177 183 167
116 101 101 108 106 100 101 124 110 147 215 210 200 188 195 177 194 180 185 189 190 189 190 191 184 189 190 190 186 190 196 201 201 202 209 208 212 197 179 199 186 179 179
90 87 91 89 107 112 112 133 218 218 200 205 193 181 192 181 194 180 189 192 183 172 183 185 186 183 184 183 196 187 193 201 202 297 295 288 282 213 206 205 203 220 212
90 101 115 108 108 114 110 117 207 206 205 184 184 181 187 182 193 191 190 175 179 183 179 180 175 177 183 191 181 179 209 278 262 254 250 243 241 255 269 269 232 233 206
108 121 108 110 109 109 112 213 204 201 194 192 182 188 186 188 189 179 178 174 188 185 182 182 184 189 172 195 213 230 270 256 243 233 263 264 265 240 235 234 239 243 245
132 109 112 204 129 185 204 209 196 195 186 189 185 189 194 191 181 180 172 179 181 182 174 174 182 178 196 215 226 265 238 230 264 260 258 257 259 260 259 259 259 238 222
131 179 200 212 211 201 205 197 200 191 189 195 190 193 192 190 174 184 187 183 176 162 160 161 189 187 138 218 255 226 261 257 256 264 265 266 270 273 273 273 276 280 283
191 198 216 210 199 204 203 199 197 187 190 192 197 167 176 175 185 187 183 174 141 174 183 193 184 208 224 229 254 277 271 265 263 257 249 204 231 230 226 225 229 235 239
173 176 186 192 203 194 201 196 193 189 192 198 170 174 188 195 183 177 176 190 185 201 189 195 215 206 217 278 272 262 255 242 213 211 202 206 208 219 209 220 222 218 217
169 174 188 174 203 210 198 202 200 193 190 184 183 190 189 180 183 182 191 204 198 189 209 232 268 228 283 263 247 210 199 194 211 219 197 226 234 299 359 383 296 293 253
185 173 185 210 208 204 198 198 198 198 182 182 189 183 181 178 196 186 157 199 206 220 244 221 153 219 205 124 200 224 230 242 265 346 359 465 574 648 648 636 613 574 538
167 172 175 196 204 210 206 197 186 189 185 185 176 181 187 189 190 201 201 216 224 270 255 266 250 211 211 226 232 71 317 348 360 550 530 506 480 573 626 628 604 587 564
183 167 178 202 205 204 196 183 186 183 184 176 183 194 197 197 202 204 218 166 262 251 263 163 193 216 226 245 315 341 469 519 503 87 467 445 201 505 522 533 545 554 554
179 174 183 205 208 204 182 183 185 182 178 189 196 196 199 196 212 176 259 248 265 193 204 213 224 235 271 333 382 518 504 460 448 463 397 427 312 391 439 443 449 462 469
180 181 188 193 192 173 188 183 181 186 194 195 202 199 198 189 232 254 259 252 216 208 220 230 247 324 339 521 511 473 435 447 384 425 460 459 413 395 366 352 349 351 355
182 183 189 189 182 177 186 184 193 194 194 202 191 176 223 259 235 261 236 201 165 225 239 256 326 385 535 498 436 406 378 401 375 369 377 333 338 347 348 353 346 340 340
180 183 181 182 190 192 190 193 193 199 193 193 212 229 251 259 142 215 208 211 228 242 264 327 490 531 490 420 381 361 380 354 340 331 328 337 331 327 334 333 330 336 340
176 184 190 190 184 193 191 183 191 191 207 220 261 231 139 163 208 207 222 223 243 317 330 492 542 468 405 377 353 346 338 341 357 332 317 323 318 321 314 310 329 338 344
175 184 182 185 190 190 160 170 181 190 252 235 204 140 205 208 212 221 234 253 309 331 475 527 450 398 379 360 341 330 329 336 334 323 306 309 315 317 312 310 327 349 366
183 184 188 191 155 130 163 153 154 250 217 238 199 178 204 214 215 236 280 308 338 459 508 429 390 381 370 350 331 319 325 323 317 323 307 305 305 309 306 298 347 380 373
183 191 192 131 152 145 197 161 274 174 223 154 202 204 207 231 244 315 312 436 440 485 405 380 378 368 350 334 311 327 319 310 304 304 304 301 302 294 306 319 380 368 384

GFSMA_2pvu_pres_006.txt.gz
Presure
106 154 83 83 83 86 95 95 131 184 144 111 95 136 96 108 137 195 184 213 219 194 215 212 208 209 208 205 204 204 205 205 203 196 198 202 190 170 205 212 188 174 176
91 124 157 130 95 84 133 167 200 97 82 111 82 104 95 168 110 111 210 206 205 196 191 187 193 194 185 195 194 192 195 198 194 195 191 186 183 185 190 191 184 157 96
87 94 102 95 126 201 86 109 105 90 83 103 82 103 95 107 107 111 164 204 193 184 173 190 187 180 183 193 186 184 180 182 188 185 183 185 190 193 201 185 195 187 188
130 119 164 110 121 107 96 111 121 83 82 108 99 102 156 100 224 198 166 202 199 183 178 192 189 186 189 180 195 174 178 182 178 173 173 175 180 179 180 184 181 197 185
133 123 121 118 114 111 121 123 112 89 108 106 106 118 161 124 196 207 207 200 197 179 178 195 191 176 184 189 198 197 201 192 190 194 192 188 183 184 171 177 172 178 183
132 125 125 116 113 111 106 96 101 107 97 99 110 104 114 122 209 212 206 195 182 191 177 184 192 179 190 186 190 182 189 194 190 184 185 188 188 189 184 180 174 179 194
127 129 94 110 118 118 119 87 90 93 95 103 112 107 152 126 214 205 201 193 180 184 189 183 195 193 185 175 171 183 177 185 184 179 179 189 192 196 200 211 250 319 332
124 115 126 163 117 123 100 88 98 91 103 111 110 111 204 209 203 205 187 194 180 191 194 186 195 182 188 181 183 186 186 185 180 178 195 192 206 207 224 249 262 260 252
99 109 111 118 110 97 90 132 115 107 112 154 145 162 209 206 200 187 191 190 189 191 193 194 191 175 181 193 192 189 170 161 181 189 202 199 203 223 258 242 229 246 263
108 108 136 150 101 94 103 117 110 210 185 162 193 203 209 200 201 193 191 196 196 198 201 190 181 186 195 188 181 175 186 192 197 209 192 218 238 269 246 249 275 270 268
172 178 185 124 187 175 192 188 178 209 210 209 199 205 202 198 196 190 187 189 194 174 180 183 193 196 189 181 183 195 194 211 197 216 231 273 265 244 278 278 279 278 285
194 179 187 192 181 179 174 196 182 202 208 201 195 195 197 194 197 193 189 187 170 175 184 189 186 184 182 187 199 195 206 202 224 204 265 241 277 279 258 214 209 208 210
189 196 180 187 181 174 173 190 174 188 194 203 202 203 196 199 201 193 196 182 180 184 188 177 173 180 181 199 202 201 217 224 255 252 258 269 225 202 207 214 216 211 210
200 198 185 179 175 168 170 169 174 174 189 210 204 203 196 201 202 198 187 187 189 181 129 179 187 198 196 199 209 220 256 275 265 267 199 194 211 218 225 199 232 251 262
201 200 199 165 165 177 172 167 175 172 177 185 206 208 209 207 183 187 187 187 185 177 184 190 200 201 204 222 238 69 260 193 186 189 216 226 232 243 254 341 374 566 559
198 194 203 190 175 176 182 173 185 184 174 207 206 204 189 187 185 189 184 181 191 194 196 200 198 204 232 271 256 238 199 220 224 204 247 283 344 510 501 506 239 496 500
212 192 201 197 183 187 178 178 179 183 181 196 199 193 189 184 185 185 191 194 200 202 156 204 219 269 245 264 201 225 152 122 249 294 342 483 522 486 471 471 515 419 408
214 212 202 199 185 181 180 179 181 181 194 197 194 188 183 188 193 195 195 163 201 210 220 286 270 213 214 213 220 233 255 260 349 516 506 448 449 427 450 477 479 432 434
217 213 208 199 185 182 189 178 180 188 192 187 191 185 198 194 197 197 186 202 217 214 168 142 214 201 170 226 241 257 346 529 504 477 438 398 392 381 376 354 344 345 342
220 208 204 195 192 185 183 177 180 190 178 188 198 191 196 159 152 201 214 228 274 141 228 223 211 223 236 246 305 458 520 475 434 412 376 361 369 357 336 331 329 324 329
224 213 200 195 192 178 186 187 186 187 184 188 195 132 172 201 210 223 255 264 138 222 208 223 230 240 251 342 576 484 445 403 382 376 339 340 360 340 326 321 320 316 316
222 211 199 191 184 188 189 178 189 184 191 150 137 150 179 213 237 278 135 158 220 157 228 242 250 333 463 538 448 413 391 373 356 357 334 345 343 326 316 309 318 316 312
215 200 182 182 184 182 193 187 186 194 194 201 189 211 205 277 198 194 154 209 182 235 242 261 344 522 498 426 402 376 376 355 346 337 329 323 313 318 317 311 310 311 315
194 181 178 178 186 191 184 191 194 197 201 184 154 234 197 175 184 162 206 231 231 247 317 490 474 467 414 391 385 364 343 329 325 340 317 308 309 307 304 305 310 307 310
179 170 181 190 180 188 193 192 130 150 210 211 247 179 173 205 216 207 225 238 248 330 447 497 438 399 379 388 366 337 324 319 318 326 321 313 311 315 303 305 308 304 384
130 183 181 188 190 189 195 172 207 214 227 268 164 234 205 213 222 225 242 258 373 513 477 410 385 374 378 366 341 332 328 317 314 313 311 306 308 302 304 301 303 324 376

GFSMA_2pvu_pres_009.txt.gz
Presure
89 94 99 158 131 84 83 103 196 100 100 132 197 174 85 83 147 108 103 96 94 104 181 203 121 207 203 186 177 189 199 192 194 195 194 197 194 195 199 200 198 198 198
99 87 88 140 210 89 122 94 205 110 134 181 109 87 80 103 86 102 98 98 126 105 172 199 190 203 195 186 176 176 183 187 183 182 191 189 184 188 192 188 184 186 183
89 90 105 96 113 94 96 106 100 122 129 102 88 112 165 140 87 108 97 102 108 202 113 211 202 206 197 188 182 172 186 175 181 177 180 175 187 173 174 177 173 173 197
95 93 102 80 129 132 118 119 109 120 113 114 116 121 108 101 108 91 102 106 103 109 215 191 208 207 196 193 181 172 184 192 174 173 183 187 185 191 182 190 185 174 178
99 93 113 168 241 244 152 126 120 115 114 111 117 108 97 89 95 98 106 110 104 147 200 206 209 207 197 183 190 180 176 186 189 181 185 192 189 183 186 193 192 190 189
93 96 109 113 117 97 154 121 120 120 115 100 116 89 90 95 113 98 109 105 110 194 217 213 208 204 195 182 178 185 191 184 193 201 186 185 173 181 183 175 181 177 177
168 196 175 116 120 118 123 126 126 139 204 115 120 117 93 100 228 108 109 111 212 219 210 205 204 200 193 190 183 191 188 191 194 188 173 175 188 192 192 190 190 168 173
199 197 126 200 190 143 197 123 124 123 124 103 115 98 174 117 116 118 157 222 198 204 206 200 198 190 192 191 190 186 190 193 184 179 183 187 193 184 173 181 184 194 196
195 198 151 158 190 121 98 82 108 109 110 91 106 101 203 182 111 216 209 194 212 207 203 203 202 194 189 188 189 193 181 177 183 189 196 186 184 179 189 199 194 200 210
225 217 124 155 109 112 98 105 105 117 194 188 179 180 186 180 212 213 213 201 199 205 202 195 195 198 194 190 189 184 184 189 195 184 182 186 191 199 195 201 202 209 220
218 223 223 206 115 114 186 180 177 179 183 181 182 173 178 209 179 181 200 195 204 204 200 204 201 202 204 210 192 195 200 190 189 195 194 203 208 206 205 219 231 273 289
232 222 180 177 216 210 189 184 125 176 181 186 182 174 172 172 182 171 190 180 202 204 206 207 209 185 190 199 199 193 125 198 198 174 152 207 211 228 233 259 279 266 218
239 234 227 223 218 220 212 189 189 183 175 180 167 173 170 173 180 183 177 186 203 204 209 197 198 191 193 194 194 198 197 204 206 205 212 225 231 264 276 228 200 197 194
242 242 233 169 118 220 215 195 200 198 188 161 173 176 179 171 180 184 183 192 199 206 196 196 185 192 193 196 198 199 202 206 210 220 226 232 271 181 185 110 191 206 231
99 232 224 229 221 223 218 213 209 196 200 189 181 181 179 183 178 182 179 195 201 198 191 187 192 196 197 196 202 206 211 217 225 256 197 182 214 210 226 233 239 233 256
218 226 230 234 230 220 222 217 212 198 197 200 189 181 180 178 183 180 182 196 191 192 197 191 193 195 133 209 214 221 237 293 180 209 205 152 129 240 245 256 381 525 496
224 218 225 230 234 234 228 219 213 206 196 196 196 185 184 185 184 182 173 192 194 195 204 193 150 210 215 225 252 274 168 197 213 220 242 248 257 266 542 468 467 454 444
231 220 221 222 234 234 229 221 215 212 210 207 198 195 183 183 186 174 191 198 184 192 133 201 212 221 244 244 178 240 217 223 182 254 260 530 525 481 377 429 416 384 373
235 226 221 216 214 229 229 226 219 213 208 209 198 193 183 186 191 189 193 183 123 204 197 220 237 257 180 243 204 224 236 250 257 395 506 486 440 410 395 387 363 359 356
240 228 223 220 213 206 238 233 223 216 207 204 200 183 189 189 191 191 157 193 207 196 166 240 176 223 181 220 232 243 251 402 497 468 441 417 387 369 361 346 347 341 328
252 246 230 223 217 210 234 239 227 216 211 192 186 183 183 195 138 196 204 206 161 234 178 241 258 214 225 236 247 259 530 465 424 422 404 374 355 347 347 337 339 328 320
241 250 258 235 225 213 220 231 226 216 182 182 174 189 184 193 138 207 218 230 225 179 266 217 229 228 243 253 527 489 426 412 392 397 383 344 347 332 337 325 322 318 320
237 242 258 264 220 203 230 227 188 179 179 186 190 188 134 190 215 221 223 173 267 258 216 240 234 243 260 502 438 406 389 385 386 371 356 326 337 327 319 309 300 302 310
239 249 270 266 206 215 229 178 179 184 186 186 194 194 210 214 227 172 206 259 229 221 232 241 246 435 465 418 396 381 376 384 364 352 348 320 335 316 319 308 312 313 307
270 267 249 214 222 193 179 185 184 185 193 198 152 212 222 227 188 262 212 219 235 229 242 253 452 428 405 391 380 366 355 355 326 336 343 314 315 311 316 306 306 307 307
247 216 218 190 186 182 180 185 191 195 199 207 220 165 209 264 253 220 216 230 240 238 369 410 382 359 352 343 336 346 360 340 328 321 328 305 311 299 298 307 305 309 307

GFSMA_2pvu_pres_012.txt.gz
Presure
98 86 98 91 91 92 92 129 85 85 87 90 149 171 111 110 108 111 100 142 109 106 97 109 103 104 102 106 129 118 194 204 195 184 173 182 181 181 182 176 190 189 188
97 151 83 88 88 90 86 88 89 132 123 179 206 86 109 117 178 87 97 131 113 100 108 95 105 106 105 104 113 217 201 207 200 189 182 177 188 181 180 174 175 173 173
118 206 101 89 92 93 90 112 95 95 82 217 119 124 117 125 115 112 116 125 94 94 95 98 104 106 104 107 202 203 204 204 200 198 181 179 173 185 189 175 172 177 178
93 86 98 91 88 93 181 99 99 101 231 226 125 121 124 118 90 112 162 123 87 95 103 105 104 106 130 131 218 192 209 206 203 195 178 184 187 179 182 189 189 183 182
100 97 93 83 89 94 91 94 153 217 221 221 135 124 125 123 115 115 116 115 122 109 99 106 104 110 224 229 195 216 213 207 205 194 185 180 184 185 191 185 185 192 196
160 168 136 94 91 82 95 95 104 109 115 110 128 189 123 124 112 179 174 119 116 90 107 121 108 137 206 217 219 211 204 203 201 189 191 185 182 191 188 187 187 192 176
194 94 176 154 187 93 100 96 198 201 117 115 119 118 120 98 122 122 114 170 221 109 193 217 225 227 224 196 210 207 207 199 195 193 192 194 192 190 183 190 198 188 185
235 103 119 202 104 96 92 121 195 192 166 193 189 136 179 108 107 104 120 184 190 124 182 210 217 180 192 204 211 208 203 201 205 202 197 190 188 188 190 188 182 182 191
209 246 247 96 167 217 185 206 196 199 177 111 187 185 137 102 103 154 191 182 174 184 181 181 180 188 200 199 201 205 206 201 199 198 198 195 187 183 191 198 193 191 202
208 211 218 233 232 224 210 206 216 208 199 192 110 106 106 172 182 185 181 183 177 173 181 177 174 183 178 199 205 204 205 206 205 203 204 207 209 193 198 200 195 193 196
201 221 245 235 230 236 97 222 223 215 219 211 199 196 185 181 182 182 183 185 179 178 170 174 182 184 188 190 205 211 211 213 216 201 193 197 198 194 194 199 201 204 204
176 205 227 210 93 95 93 116 226 220 219 195 217 149 193 189 194 194 178 182 175 177 177 169 179 185 186 183 195 201 205 202 207 198 199 199 203 203 206 207 207 216 220
233 200 213 225 156 238 230 231 236 227 226 222 221 222 220 214 204 203 198 188 171 180 183 187 176 185 185 182 180 195 196 199 202 198 206 205 205 208 215 218 232 288 308
249 233 274 269 244 232 234 231 230 238 225 227 227 223 220 217 207 205 204 203 196 184 183 181 189 187 190 183 189 195 197 196 205 196 203 207 217 224 252 297 289 204 192
249 272 262 260 241 116 229 224 222 236 236 232 232 234 225 222 216 210 219 202 204 204 188 193 188 184 189 192 196 195 196 199 178 146 212 230 254 296 274 179 155 176 235
229 228 160 265 252 252 246 237 222 221 232 228 231 234 221 224 222 216 212 206 204 208 200 197 183 190 189 197 196 204 136 172 212 231 255 297 227 177 211 218 191 246 218
218 225 267 256 263 253 242 235 228 225 218 228 228 229 234 235 233 225 220 218 217 217 207 198 192 185 195 200 129 181 184 231 250 284 185 184 221 247 208 258 268 491 489
225 259 243 253 242 245 247 239 234 228 222 221 227 217 236 235 236 230 225 219 214 215 208 196 187 193 154 140 156 187 238 257 175 200 240 242 242 264 281 481 458 435 423
225 237 236 244 246 245 241 248 243 216 234 226 221 217 212 228 240 238 233 226 219 193 190 197 180 170 157 222 231 254 179 217 240 243 251 260 375 462 443 427 412 386 380
226 247 241 236 234 232 236 243 250 252 242 232 230 220 207 213 248 247 234 225 192 190 197 132 207 214 226 241 186 214 227 235 250 255 356 443 433 416 409 395 368 358 352
227 238 224 229 234 238 239 193 242 250 256 265 235 225 213 214 246 238 194 188 196 179 185 213 219 230 220 215 225 236 241 251 265 441 429 397 397 398 378 357 344 342 343
230 224 220 218 226 229 230 232 241 247 258 273 271 217 213 235 183 190 194 192 196 208 219 226 247 271 236 226 236 247 253 426 391 403 402 381 410 374 356 343 332 327 332
231 220 225 226 229 236 239 242 250 271 264 257 213 225 217 188 193 191 195 141 216 220 237 264 269 215 240 241 251 284 389 367 353 365 385 372 376 350 342 335 333 323 323
222 228 235 235 242 242 253 266 250 241 225 224 208 188 191 190 196 205 214 215 234 249 278 242 229 240 247 257 410 391 368 346 332 329 334 363 351 337 341 336 325 319 318
228 232 238 242 257 266 235 225 224 208 200 187 189 193 198 203 217 215 230 260 273 266 220 236 243 253 342 394 380 365 346 337 327 319 328 319 355 342 338 321 312 308 303
239 255 261 271 217 223 213 197 180 184 194 192 199 206 217 222 232 239 272 263 216 226 239 246 257 396 378 362 349 348 414 414 411 400 394 346 324 341 331 318 313 295 288

GFSMA_2pvu_pres_015.txt.gz
Presure
102 82 98 101 103 103 96 88 84 81 94 91 87 124 220 148 141 210 127 140 126 113 207 98 106 229 117 99 107 106 104 105 104 108 117 163 205 200 193 186 184 187 180
100 75 96 92 87 89 90 90 91 95 87 87 90 95 91 91 126 191 234 123 113 139 107 111 111 128 101 97 103 101 109 107 109 173 179 189 199 204 199 190 183 179 181
92 93 97 93 181 194 100 93 96 101 95 87 98 78 90 97 113 156 126 199 127 124 123 115 111 113 117 96 101 105 112 111 109 202 213 228 195 208 203 200 189 183 180
101 96 104 90 102 104 102 201 89 92 92 100 95 97 97 219 225 222 230 197 93 127 125 123 91 117 113 118 118 109 138 212 210 218 229 197 213 212 210 204 198 183 184
102 187 140 95 92 97 88 89 92 89 93 94 95 94 88 143 209 167 210 212 134 126 89 121 122 121 103 117 161 196 202 229 217 205 209 219 217 208 210 206 201 194 186
96 119 101 103 104 107 93 96 100 82 93 91 91 91 100 193 111 113 113 118 119 92 123 104 87 108 111 112 183 131 218 221 221 225 225 223 208 208 205 208 200 196 194
163 235 198 98 110 198 110 90 104 173 99 103 100 96 100 175 193 196 164 171 126 116 152 122 111 108 130 187 184 181 184 183 217 221 207 201 207 209 213 205 204 204 189
202 233 225 231 225 215 216 226 218 102 98 154 110 101 189 192 196 195 193 127 184 104 120 112 97 192 188 184 185 177 179 178 179 194 179 186 200 205 205 203 199 196 195
237 243 235 230 228 218 204 221 221 155 189 97 148 199 207 206 199 139 189 140 102 110 98 150 190 186 129 184 177 174 181 182 181 177 174 180 189 201 205 208 208 208 208
251 229 239 238 226 228 225 219 214 213 223 243 214 216 218 230 204 149 162 193 193 189 182 182 189 182 182 185 182 181 173 173 175 185 183 184 183 191 195 202 206 210 212
84 238 242 233 247 245 229 221 113 208 232 233 227 86 96 104 232 222 149 224 219 212 167 204 195 190 196 190 184 184 174 178 185 179 185 187 181 182 175 183 193 197 190
219 233 219 192 218 250 240 237 227 208 190 96 89 101 233 234 228 223 224 224 215 227 222 224 220 212 200 206 201 183 188 189 190 175 187 193 195 179 199 184 196 196 194
223 216 232 244 231 242 240 239 145 204 198 221 230 235 235 229 228 227 229 221 223 224 224 220 221 222 218 211 209 206 207 205 205 194 201 197 192 198 193 195 196 196 202
231 220 227 240 237 225 239 249 228 262 269 268 246 225 230 235 236 234 235 238 228 226 224 224 227 227 224 221 217 220 211 208 210 204 206 203 199 193 203 197 201 205 157
225 214 226 238 230 226 226 237 229 246 261 213 257 252 244 233 220 223 228 238 241 237 225 233 235 226 228 227 225 224 228 225 222 225 210 199 194 187 146 145 149 206 265
215 216 222 232 230 228 227 208 191 267 261 259 262 260 244 242 242 238 234 225 235 245 237 227 232 234 235 237 237 233 228 226 225 207 195 196 203 180 152 155 199 303 236
222 211 217 239 225 228 220 182 226 254 227 249 245 242 253 255 254 248 243 239 225 231 231 217 218 232 233 243 241 241 242 236 195 176 162 144 189 220 237 297 234 202 212
220 214 225 234 222 218 226 221 247 247 241 242 240 241 244 248 253 256 263 258 248 243 227 220 214 221 226 240 269 259 197 194 154 202 207 218 234 289 202 208 241 263 290
212 223 221 229 216 226 219 225 249 246 237 235 237 242 245 245 247 251 258 264 270 263 237 234 224 219 237 258 228 190 150 205 212 223 237 275 257 215 247 269 321 423 417
189 233 222 222 224 223 224 234 239 229 228 230 230 234 237 239 242 251 257 268 276 269 266 236 224 241 219 198 176 208 213 225 234 283 255 213 260 269 338 392 410 408 412
232 221 217 229 218 224 235 245 222 219 227 227 230 239 248 255 272 274 260 219 249 241 232 229 206 196 201 213 217 229 245 294 224 215 258 264 372 386 375 365 355 416 382
172 220 226 212 195 222 232 235 228 226 240 245 263 262 267 246 233 230 231 233 217 219 194 196 201 212 220 231 263 289 240 227 257 266 403 390 383 366 362 352 340 328 368
223 190 210 211 205 224 227 218 233 243 260 262 248 226 225 235 215 215 209 192 199 203 210 153 226 246 287 269 209 240 257 269 390 380 380 364 350 342 340 335 332 319 356
232 221 209 211 222 217 228 242 249 278 252 221 214 209 207 198 191 197 201 203 210 224 231 280 275 266 234 243 256 267 376 373 382 383 398 384 380 430 408 384 351 342 326
209 204 213 216 221 231 244 288 241 219 209 202 192 191 193 200 207 209 189 224 265 269 265 219 253 241 252 265 301 387 382 371 363 361 381 425 429 443 436 406 391 360 326
209 216 219 221 235 289 210 221 210 185 195 185 198 206 212 214 219 284 274 265 257 218 246 240 244 261 291 396 380 372 357 357 359 409 412 417 425 423 432 415 358 380 242

GFSMA_2pvu_pres_018.txt.gz
Presure
160 102 175 203 190 102 95 191 99 99 187 90 87 79 93 86 90 87 94 95 87 149 249 248 242 174 109 118 132 78 111 111 124 103 103 120 111 110 154 203 196 210 205
210 102 179 191 233 226 107 103 108 105 100 95 92 95 89 90 89 92 94 95 93 106 107 152 229 108 116 126 124 123 112 114 113 116 117 113 107 118 203 199 206 210 197
108 98 125 203 111 202 83 113 121 89 104 96 92 95 98 99 89 96 95 97 90 102 103 111 100 217 158 131 129 125 125 109 120 131 112 112 139 211 211 210 207 223 219
232 126 97 184 180 96 95 95 93 100 110 106 97 112 97 89 89 97 96 88 95 96 102 207 209 208 214 134 147 192 95 118 104 115 111 117 220 220 223 228 222 212 206
220 235 191 101 187 103 99 97 97 84 108 168 99 102 91 95 83 84 92 96 99 91 99 171 125 123 118 121 127 118 108 103 103 117 145 180 219 221 214 213 216 215 206
124 228 180 168 113 98 188 128 98 107 102 99 94 88 98 97 100 101 192 97 93 99 98 140 192 199 163 166 163 186 101 96 118 173 182 185 183 188 231 229 223 209 209
242 97 186 179 189 211 210 96 178 121 172 108 106 103 101 102 104 184 153 104 187 102 160 182 198 190 192 197 99 98 166 184 190 192 186 184 184 176 176 179 181 180 181
214 159 236 180 227 202 147 236 240 136 133 207 128 188 200 209 230 217 99 104 198 155 201 199 198 138 192 189 194 195 189 170 192 189 188 186 181 175 171 180 180 175 178
216 217 216 220 220 227 223 159 242 244 241 225 228 224 213 208 219 227 211 238 221 201 202 212 215 209 189 200 189 190 193 190 186 188 183 179 184 185 180 174 171 175 184
201 204 202 202 206 210 226 230 239 248 245 245 219 226 225 221 211 211 210 216 222 220 226 139 222 223 225 225 222 218 207 197 200 198 190 183 195 192 185 184 179 183 186
203 208 214 208 223 226 212 211 224 260 248 237 255 241 241 229 221 99 200 98 213 231 231 240 236 230 223 219 222 222 221 222 216 215 222 217 197 200 204 196 179 186 189
165 216 217 217 207 206 206 227 232 223 254 237 240 242 239 185 248 239 199 208 204 234 229 236 234 232 228 227 224 225 225 225 227 226 212 216 215 209 205 204 201 202 199
206 205 207 220 215 211 211 215 226 223 242 240 179 185 234 238 255 253 264 265 235 226 223 226 230 235 238 236 234 231 228 229 228 229 232 234 230 228 226 212 213 211 206
205 211 209 219 214 220 207 224 229 223 241 238 235 232 229 224 236 269 248 261 259 252 248 239 229 228 227 225 239 233 238 241 239 232 233 239 243 243 243 241 240 236 234
216 214 203 216 212 219 223 222 219 220 228 238 234 236 226 237 233 255 259 258 252 251 246 250 252 253 247 245 241 238 232 234 241 239 239 239 242 250 248 254 258 259 257
212 207 213 215 219 219 222 218 221 212 221 238 228 228 231 231 228 254 249 252 248 248 247 249 248 252 255 257 261 263 254 242 234 237 234 228 227 231 237 247 265 264 197
222 218 217 217 220 217 218 207 222 209 230 232 227 231 231 239 245 251 241 239 239 240 244 245 243 244 252 253 254 260 266 269 270 255 236 234 230 223 244 246 196 203 211
212 213 217 218 218 216 210 211 98 230 230 230 230 229 224 241 247 238 231 229 234 238 243 250 252 254 255 269 275 277 274 276 279 271 253 223 236 217 203 207 216 220 227
222 223 225 222 221 221 208 205 232 232 227 227 224 225 239 236 235 236 232 236 243 257 260 276 266 255 249 245 242 245 245 241 236 233 225 202 206 213 220 232 249 281 273
237 237 231 226 182 211 221 233 228 228 225 200 205 210 234 230 229 234 241 282 269 260 242 231 233 230 227 225 225 222 209 211 200 195 211 220 254 280 272 261 244 234 315
240 231 220 218 209 223 154 232 228 226 218 203 208 224 223 231 277 292 272 234 222 220 215 212 210 210 203 198 202 205 209 166 265 271 260 250 248 235 223 361 400 403 437
232 227 227 232 240 235 226 221 226 223 224 205 222 231 275 288 241 221 218 208 204 203 200 193 197 202 213 270 180 274 251 244 236 254 276 406 395 386 378 376 369 374 382
223 246 219 225 214 222 226 227 230 198 213 222 239 274 234 221 214 202 197 191 194 202 213 217 236 270 267 257 242 234 244 260 343 406 392 381 370 359 355 360 384 436 445
197 229 227 224 216 228 243 220 204 218 232 238 260 219 217 194 189 192 194 209 213 249 243 251 254 249 238 237 248 263 321 373 390 378 369 370 354 402 396 410 413 421 446
227 222 215 245 201 210 212 228 232 226 238 220 201 186 192 194 199 208 239 246 258 249 243 238 233 231 240 263 309 325 399 383 367 358 354 420 446 442 433 403 398 417 432
215 216 234 201 216 225 216 226 229 237 193 181 190 195 202 205 211 269 257 242 236 234 228 239 233 260 271 319 369 393 378 361 349 386 431 470 455 419 404 399 393 402 409

GFSMA_2pvu_pres_021.txt.gz
Presure
159 162 180 171 180 182 103 157 169 174 189 175 230 212 90 92 86 82 93 88 91 80 95 92 98 92 96 99 103 109 230 235 223 145 123 124 122 122 117 109 209 113 104
159 185 179 178 95 94 102 157 190 184 126 188 226 102 90 107 94 91 93 86 89 88 95 90 95 95 93 108 101 110 117 216 211 214 127 129 120 131 124 115 98 111 205
176 200 185 181 226 240 224 103 218 118 123 107 101 109 109 109 105 92 90 98 88 89 95 91 94 97 99 100 120 154 199 192 211 215 208 120 124 110 99 103 154 212 198
225 250 185 230 241 240 224 108 108 225 182 149 109 108 175 97 105 93 143 90 88 87 83 94 93 135 95 96 103 101 198 200 199 118 127 187 123 107 102 186 198 186 214
208 227 212 228 230 236 229 138 118 101 113 110 100 94 98 89 96 107 102 94 89 91 97 99 103 160 122 104 102 88 179 200 193 171 200 141 97 100 197 193 185 185 182
214 218 223 220 200 223 226 215 215 226 101 102 164 103 99 157 204 100 100 96 98 102 101 108 122 116 214 99 101 139 142 119 175 179 196 199 117 189 184 184 194 177 183
207 212 204 201 205 204 171 189 239 242 214 160 173 233 107 98 99 203 105 104 104 218 175 137 238 240 208 208 207 224 211 204 203 94 196 190 188 195 190 193 192 191 185
218 209 220 227 226 217 221 222 221 143 225 226 224 226 207 229 240 248 243 233 231 223 225 208 205 219 131 238 235 220 213 208 221 220 204 210 200 194 195 191 191 188 186
212 216 209 213 212 215 213 212 209 205 208 216 221 219 227 220 254 247 246 248 233 225 230 226 221 211 215 215 228 227 228 232 224 217 218 207 211 216 205 198 193 192 192
194 203 201 198 198 202 205 202 227 217 214 212 211 218 211 230 264 251 243 241 257 241 240 239 228 223 216 210 202 215 229 229 231 241 231 229 226 220 224 222 217 208 205
214 203 201 214 213 184 197 192 202 213 226 228 218 218 212 212 235 254 246 247 247 247 239 101 238 242 237 231 228 218 217 218 222 229 237 235 233 229 227 225 228 225 222
215 198 124 191 200 207 187 193 206 216 213 210 231 223 229 223 226 227 220 218 227 229 225 237 237 252 262 264 263 259 244 233 227 225 228 229 231 236 236 236 233 231 226
202 210 202 194 206 211 205 207 205 211 214 213 215 218 224 221 226 222 245 238 234 236 230 234 257 264 254 261 263 258 260 261 261 263 262 252 236 229 197 211 239 241 240
204 103 197 207 206 210 216 213 207 211 212 214 215 220 223 221 219 217 233 240 223 227 225 247 243 245 252 243 246 248 251 255 258 260 262 263 267 271 270 258 245 229 241
215 218 206 207 205 193 198 207 208 214 208 207 215 216 221 223 215 223 234 231 229 224 223 240 245 245 239 236 243 243 242 246 249 256 258 254 273 264 266 269 274 272 269
222 222 212 213 106 206 207 199 212 209 215 215 215 214 224 216 217 218 231 227 229 224 232 236 235 235 238 238 240 244 252 268 259 276 272 272 271 273 274 276 282 284 287
234 231 222 220 213 210 205 214 219 221 218 216 217 218 215 161 226 239 220 232 224 219 220 231 230 231 237 249 280 274 262 257 247 244 241 242 241 243 244 245 248 252 256
231 236 236 230 211 221 204 202 205 199 208 214 218 223 231 217 236 238 232 223 213 207 222 226 322 314 270 260 247 228 225 236 228 222 219 217 216 216 216 219 221 224 228
256 246 225 228 219 213 208 217 209 210 154 213 226 224 197 222 239 232 225 213 205 223 241 263 248 238 226 221 218 209 204 203 202 203 203 198 199 204 216 220 216 253 234
275 258 249 240 227 223 225 198 150 187 201 160 157 228 223 229 228 229 229 215 219 255 242 224 225 228 209 202 197 192 192 202 236 230 255 249 248 250 255 261 258 285 332
293 259 170 203 206 228 222 222 223 163 227 219 217 228 245 237 233 218 215 221 250 229 225 232 200 191 194 195 207 260 265 247 241 242 241 240 254 274 337 422 405 398 393
302 267 163 234 185 168 205 167 221 226 220 236 250 230 238 234 211 217 220 249 213 229 197 195 194 203 260 278 254 236 154 236 193 247 258 269 339 418 400 385 373 367 364
289 254 241 236 214 166 225 221 220 243 250 235 233 213 207 221 220 240 244 214 189 191 200 211 258 284 248 230 234 239 242 253 261 272 326 372 419 386 363 352 354 425 444
206 233 225 218 215 219 237 232 226 228 212 221 213 218 221 227 241 219 189 187 203 230 253 261 206 228 227 235 238 251 261 267 300 348 422 402 373 348 410 484 476 461 453
222 172 219 219 228 224 242 236 233 226 205 220 232 226 207 197 184 202 218 238 246 252 229 223 228 227 235 248 260 264 272 313 415 409 376 364 423 443 459 452 450 441 443
222 218 215 238 197 228 238 233 249 252 220 212 185 194 202 209 216 236 243 246 222 221 223 221 227 246 256 261 267 294 349 431 406 369 347 444 436 408 465 453 454 455 447

GFSMA_2pvu_pres_024.txt.gz
Presure
160 172 166 171 177 168 176 188 193 182 169 190 184 134 145 197 211 221 90 90 83 82 93 90 90 83 93 89 94 89 94 88 92 95 119 170 118 126 158 211 134 175 198
182 182 177 190 187 195 171 197 196 181 138 171 109 144 149 230 231 148 144 93 96 89 92 89 94 96 86 93 90 89 95 83 91 96 97 103 100 201 208 211 152 152 169
168 181 181 179 191 193 192 221 213 244 254 243 234 134 110 225 233 103 112 106 90 110 107 106 92 89 89 103 91 90 92 103 125 109 100 103 192 197 192 192 200 138 109
193 196 202 201 202 200 204 222 229 226 237 235 235 238 102 139 125 109 160 101 104 147 105 105 100 103 99 96 97 96 101 106 120 205 194 108 204 198 134 196 199 146 200
190 185 194 191 184 211 198 220 226 218 218 218 217 218 197 137 104 115 88 110 94 86 97 91 163 100 96 96 101 126 217 207 229 220 211 212 200 192 202 103 147 193 194
178 194 192 198 213 220 216 214 211 211 209 202 218 206 227 227 222 189 145 136 110 98 104 152 91 211 105 105 234 225 225 217 141 241 230 216 213 230 217 195 96 199 189
195 196 211 218 206 232 209 225 221 215 223 226 226 224 227 224 217 214 214 216 224 225 246 114 256 251 250 244 234 236 234 224 212 215 222 87 237 235 217 211 189 203 205
212 220 212 214 206 209 206 204 210 216 219 218 201 201 217 204 229 221 220 218 222 217 213 244 242 248 142 258 270 235 232 230 226 220 208 212 215 234 228 233 232 227 228
204 209 198 206 217 207 207 206 209 205 201 203 201 231 193 199 196 216 214 224 237 226 223 237 255 248 243 232 236 241 228 233 238 232 227 221 212 206 206 229 231 232 236
213 209 211 210 198 222 205 215 217 216 212 216 224 205 215 199 200 207 218 221 221 228 230 234 222 253 244 230 224 228 173 240 245 238 244 271 232 229 226 221 222 237 227
211 209 193 204 192 206 194 207 207 203 214 200 191 198 214 218 213 209 211 213 217 228 227 228 234 218 240 231 238 226 231 248 258 253 229 260 263 261 264 265 262 251 236
216 204 204 203 197 205 180 215 211 196 198 211 204 211 205 211 214 212 217 217 213 220 222 227 219 224 239 236 229 234 238 245 243 248 253 255 256 204 257 260 264 267 269
215 213 209 206 203 213 217 215 204 210 202 223 208 206 210 213 197 209 214 218 221 217 222 226 230 220 239 238 232 231 233 241 244 244 245 246 244 243 244 244 244 248 251
248 231 226 225 223 211 207 212 214 214 215 200 201 203 204 200 208 203 214 224 218 220 223 223 109 246 241 236 231 228 231 232 235 238 245 256 280 283 280 298 302 280 279
244 248 245 234 236 230 233 232 227 227 208 207 188 212 207 206 204 207 223 220 219 223 223 229 227 240 235 234 233 223 218 232 264 264 259 256 255 254 250 243 240 240 241
248 244 229 229 230 234 235 225 220 219 209 205 206 206 194 206 206 212 207 214 220 216 232 217 224 241 234 232 221 210 228 256 243 238 237 232 229 227 224 218 217 216 216
144 245 245 245 243 241 238 227 229 221 219 213 208 211 205 213 212 204 182 220 218 162 236 231 236 241 230 232 214 225 242 243 230 231 221 219 213 205 203 203 204 205 206
243 243 240 242 240 233 232 231 230 224 225 219 211 212 207 206 224 146 193 225 222 229 233 240 242 239 229 209 226 231 238 219 232 224 207 201 199 196 196 204 206 246 240
259 222 243 147 233 211 229 229 227 219 216 215 169 209 206 201 214 221 216 221 233 239 238 241 241 225 215 228 236 242 227 220 196 194 195 198 226 248 245 243 240 240 244
268 263 252 227 159 247 216 200 237 218 236 217 217 215 184 200 224 223 226 233 231 231 258 234 215 233 240 253 225 195 194 193 206 229 245 240 237 237 240 250 252 258 287
260 252 142 254 127 251 254 257 247 233 216 207 203 203 177 220 222 227 238 229 245 253 215 214 232 236 232 199 193 195 256 252 234 232 230 234 237 251 260 273 282 327 440
297 131 290 268 256 156 186 202 173 158 245 233 223 217 225 215 224 227 237 253 206 237 224 240 234 211 191 193 253 240 227 215 228 230 232 245 253 260 283 306 428 413 394
365 300 216 305 301 276 250 261 263 153 227 189 221 231 232 215 234 248 203 214 227 225 221 192 193 200 241 252 230 228 228 236 235 246 250 254 274 291 392 411 381 383 452
332 317 260 303 305 216 208 245 225 207 226 229 227 240 252 245 248 220 221 211 206 198 203 236 243 234 228 229 229 237 238 242 244 257 275 296 357 428 388 360 418 406 396
188 187 231 226 238 234 224 228 229 230 228 226 242 214 219 219 224 188 207 229 228 239 239 217 229 230 225 235 238 242 247 257 275 293 404 446 407 368 398 398 369 349 319
239 240 238 213 232 231 232 228 229 245 198 210 223 214 209 193 191 228 232 244 238 174 164 227 224 236 238 238 254 274 295 361 361 353 414 390 349 396 363 338 324 315 304

GFSMA_2pvu_pres_030.txt.gz
Presure
148 149 151 164 173 174 152 191 192 145 170 187 185 184 183 186 204 212 198 229 242 242 232 243 241 187 199 137 96 95 86 93 95 88 94 88 96 93 94 96 88 91 94
172 186 187 150 170 164 179 172 170 185 173 178 196 186 178 187 206 204 225 226 232 226 225 218 221 229 230 238 88 93 90 91 94 94 95 93 87 94 99 92 97 100 96
165 162 157 158 165 206 190 184 189 185 188 187 175 177 185 205 212 212 219 222 214 212 219 201 221 208 210 221 216 92 229 95 95 94 234 98 83 105 130 93 102 102 219
178 193 192 189 187 184 186 176 171 173 170 174 178 203 210 207 200 210 211 223 214 216 220 225 204 206 165 221 215 213 218 236 228 254 182 102 104 93 101 144 233 228 225
188 183 178 175 168 173 168 168 178 190 184 192 214 216 206 203 213 210 207 213 216 207 217 222 213 221 215 204 225 220 213 223 233 172 161 154 103 222 183 247 148 209 230
174 164 171 172 165 166 204 204 210 194 193 203 205 202 201 209 204 208 214 216 205 204 210 212 221 214 216 219 205 217 218 222 227 231 238 249 234 232 245 251 252 253 238
186 184 187 192 195 216 208 208 196 196 198 194 212 202 206 203 219 209 217 212 203 201 207 204 226 218 207 218 201 207 226 217 218 228 236 236 236 239 226 244 244 241 240
190 203 195 206 217 210 203 210 202 202 201 211 197 200 205 208 209 210 203 199 200 203 209 216 211 220 221 203 219 209 217 210 214 217 237 235 236 232 230 227 238 246 239
198 211 216 216 207 205 213 211 208 213 206 200 201 208 212 199 205 202 200 203 207 220 206 216 221 213 217 228 217 206 209 220 210 212 226 229 228 229 240 229 237 250 239
222 216 218 214 211 217 214 213 208 201 205 196 208 198 199 201 199 179 210 210 210 208 219 223 212 217 219 224 223 214 207 219 213 212 216 207 225 226 236 232 230 239 235
222 220 214 214 211 209 203 196 204 203 212 200 201 199 198 198 206 210 204 216 222 221 214 219 216 215 224 218 224 209 213 216 207 207 225 204 223 217 227 236 225 241 232
213 211 195 200 206 202 201 201 199 197 194 191 208 202 196 207 213 213 221 222 225 221 218 221 218 215 224 218 219 213 212 199 215 213 217 215 235 227 223 234 221 244 240
200 206 206 207 210 211 207 204 204 207 209 213 212 218 226 224 219 224 219 213 188 211 219 225 211 221 227 216 215 221 207 221 210 206 220 226 224 229 230 231 222 249 240
208 208 229 123 215 223 232 232 222 220 214 218 218 218 227 237 216 169 220 224 225 224 218 214 224 226 224 212 214 217 210 205 220 229 226 244 232 230 230 234 244 241 236
243 237 229 169 240 247 248 243 238 236 233 170 222 221 215 216 226 222 221 217 219 220 217 224 218 220 217 216 217 218 218 228 208 218 232 212 241 246 244 248 242 235 227
205 261 253 257 253 197 244 238 230 225 224 183 218 214 186 162 222 231 224 231 225 228 224 213 215 221 220 218 192 190 163 212 205 226 224 242 259 240 254 239 227 217 220
293 280 271 267 263 262 257 233 239 156 148 187 132 214 129 193 213 215 194 205 221 223 215 202 226 240 221 221 214 219 190 197 238 234 242 262 248 232 218 216 229 236 233
351 344 344 304 282 253 244 249 249 248 250 250 243 242 236 214 209 223 184 218 232 225 224 174 223 157 225 217 222 162 242 240 228 242 240 252 221 219 227 225 197 193 193
339 340 331 343 415 356 265 267 250 246 239 246 240 227 240 222 205 225 177 247 142 171 216 221 202 175 216 225 249 204 238 215 236 240 248 224 212 224 247 252 244 219 220
344 338 337 318 333 384 333 278 269 261 242 240 244 238 207 127 176 230 218 187 189 202 181 224 186 201 240 235 232 251 239 243 246 232 211 228 244 227 213 223 219 220 246
338 332 323 322 338 381 346 306 274 278 260 192 165 207 228 225 226 171 223 226 178 222 241 163 198 242 237 240 249 261 248 246 227 244 244 221 220 223 226 233 198 252 250
384 394 406 397 377 350 329 307 278 264 269 255 238 230 229 134 147 229 176 220 242 245 246 247 232 236 244 246 269 247 229 206 229 232 211 224 176 237 237 252 252 259 270
364 365 352 337 337 336 321 296 278 261 265 269 257 224 243 235 238 233 181 218 197 229 242 249 267 253 269 267 237 225 237 239 210 228 182 230 240 242 249 255 266 267 342
309 323 331 346 316 328 354 219 286 270 260 214 256 245 258 256 254 250 222 276 286 277 268 263 260 259 236 232 242 231 214 189 234 240 235 240 248 248 258 272 310 385 331
210 190 247 283 293 296 291 302 309 311 307 301 296 281 270 266 270 270 268 264 233 229 234 235 235 238 244 239 179 226 227 235 233 250 244 248 258 275 413 370 339 396 385
250 240 250 236 235 233 241 259 263 265 268 278 279 273 266 262 227 231 229 229 224 218 236 239 237 198 218 218 229 241 248 240 242 250 260 288 398 397 369 370 344 324 367

GFSMA_2pvu_pres_033.txt.gz
Presure
98 120 119 95 119 125 169 169 171 138 175 173 157 171 192 189 190 186 183 183 177 175 210 214 202 231 224 232 158 220 214 206 90 91 92 90 89 93 90 97 96 97 90
154 149 144 143 167 161 173 176 183 183 169 196 191 187 181 179 168 175 201 179 206 217 210 224 208 213 222 210 226 227 222 205 176 87 100 100 92 94 98 97 95 87 96
170 176 174 169 170 177 177 194 189 196 193 187 179 168 167 169 169 211 197 197 207 209 206 211 207 220 215 210 211 218 218 215 210 206 226 91 96 93 97 115 97 108 115
182 181 181 182 183 180 195 192 190 180 177 174 171 171 168 214 206 200 196 202 212 208 206 213 204 219 210 205 204 225 218 228 215 227 222 219 225 222 232 128 185 148 87
181 186 191 198 192 187 193 186 174 172 172 177 183 196 216 206 204 202 195 199 207 198 210 213 213 211 207 211 212 220 220 229 226 216 222 150 225 217 162 241 236 198 165
179 186 185 191 183 189 172 177 178 180 183 196 213 213 203 198 197 196 202 212 204 204 211 201 210 202 206 217 212 214 230 230 216 232 226 217 222 214 222 229 239 237 238
192 190 189 182 184 187 190 187 185 193 201 214 202 209 206 206 213 211 212 193 199 208 196 199 205 200 216 224 210 223 222 219 224 234 230 225 214 223 219 209 222 221 237
210 216 216 206 194 195 191 199 202 214 216 207 208 208 205 211 209 201 192 202 202 200 197 202 206 208 218 208 222 222 222 219 220 216 221 224 217 214 216 212 217 216 226
211 223 228 223 221 219 211 214 223 223 221 214 213 214 204 205 194 190 202 196 199 199 202 198 202 206 212 214 221 222 218 222 228 215 227 215 219 221 215 205 206 225 213
229 183 221 219 220 223 217 226 229 225 221 216 214 211 206 204 195 194 197 200 198 139 201 200 217 218 218 219 219 215 216 220 226 215 224 222 216 217 212 217 206 207 220
180 183 175 172 167 197 202 219 205 210 214 210 193 206 201 198 197 198 196 198 199 206 216 213 206 214 230 217 223 224 227 225 218 220 224 228 214 199 217 205 202 225 222
228 203 212 222 226 223 212 210 210 202 196 201 202 120 205 203 202 202 197 205 217 216 212 221 219 209 213 222 217 217 220 217 217 218 224 223 211 214 220 220 227 209 226
199 199 193 192 204 205 208 215 222 214 150 219 210 211 226 224 213 224 227 226 212 213 211 215 206 209 222 221 222 223 216 216 222 225 207 194 215 207 208 224 211 226 214
218 223 222 234 263 255 253 252 251 248 244 238 235 231 221 224 227 229 186 221 224 207 230 205 188 214 218 220 224 225 227 225 223 214 222 221 224 201 226 207 220 226 221
257 256 262 254 256 260 259 157 126 251 243 235 235 231 228 227 225 221 217 205 209 210 134 217 216 214 220 222 218 197 200 212 220 225 214 233 235 222 219 212 173 199 238
292 290 294 292 293 285 272 274 271 252 250 250 239 233 201 227 224 143 225 146 210 178 146 212 185 200 205 213 213 214 203 217 228 207 230 228 217 203 232 192 185 249 263
306 283 278 269 340 283 309 275 314 279 262 253 258 253 237 231 232 224 204 212 207 208 211 193 192 210 220 212 220 197 220 176 228 182 216 225 198 199 158 227 251 253 254
240 255 355 401 250 343 335 285 311 295 321 270 255 250 249 254 238 229 221 224 218 223 217 210 199 218 217 147 153 229 230 237 222 224 214 228 230 221 258 243 251 264 229
264 229 383 274 384 382 368 368 367 354 319 310 311 245 248 245 228 209 241 229 224 197 192 222 155 166 234 216 196 221 213 170 213 217 231 231 246 259 248 239 249 216 200
271 220 220 239 348 344 335 326 324 316 314 315 287 318 266 245 239 236 177 230 217 238 204 217 195 174 203 201 184 185 225 223 226 224 244 255 253 239 254 266 238 236 243
217 244 396 381 354 334 331 326 320 310 309 313 328 317 291 277 248 237 245 225 223 208 222 177 154 217 203 176 224 233 227 242 244 250 248 260 258 267 236 250 252 228 222
272 280 333 262 352 399 393 319 312 307 318 326 352 321 293 278 264 240 243 243 227 226 225 222 216 215 225 229 234 240 241 256 249 266 302 277 261 237 250 244 217 224 230
254 247 226 321 210 324 337 333 337 333 330 316 207 154 270 271 256 251 269 233 162 204 231 235 234 233 238 245 243 262 262 286 276 259 244 241 239 211 223 239 256 247 249
252 254 264 238 262 291 302 315 314 301 297 298 296 286 272 254 254 260 163 254 256 246 248 247 255 261 266 273 275 259 216 218 204 202 245 246 247 250 245 247 262 268 262
223 222 229 252 254 235 248 257 281 294 257 256 271 270 265 262 267 268 269 269 252 261 273 274 241 236 234 239 206 241 252 246 252 128 261 267 260 254 259 266 278 373 387
215 230 241 244 220 231 242 250 247 239 239 239 240 239 238 236 231 231 235 235 227 220 226 232 232 234 237 240 242 249 240 246 251 249 254 252 258 281 358 355 364 383 382

GFSMA_2pvu_pres_036.txt.gz
Presure
124 154 111 147 151 146 122 100 159 156 174 182 181 180 188 182 193 191 182 182 178 179 177 212 206 204 202 212 203 214 206 221 212 213 229 224 242 113 92 83 90 91 95
146 151 155 152 155 170 177 186 192 187 187 189 189 191 193 184 191 185 176 176 179 191 217 210 211 206 201 207 201 213 215 214 205 219 223 239 233 234 90 91 91 94 96
154 169 172 168 167 176 179 175 179 177 172 177 182 184 186 189 181 177 177 181 187 218 209 203 204 202 210 213 208 209 211 198 215 234 226 196 229 228 204 232 217 100 95
175 172 177 174 178 183 174 174 181 185 189 187 196 172 180 175 180 186 191 192 214 199 204 197 211 214 214 200 217 211 198 212 209 223 222 226 233 228 235 237 220 226 218
175 178 178 172 174 182 183 185 187 195 202 205 210 207 198 188 190 189 200 214 214 206 204 204 206 205 197 206 215 200 216 203 216 225 228 228 223 228 239 231 230 219 222
183 181 184 185 188 188 183 188 194 199 195 211 225 223 219 209 204 208 215 216 210 211 204 211 201 193 187 200 197 204 202 211 226 219 222 223 223 221 232 226 230 228 225
187 181 192 183 182 186 184 192 227 200 217 229 227 223 221 217 216 218 220 217 211 215 215 201 203 194 195 191 194 197 203 222 214 212 219 224 222 223 226 227 231 235 222
192 182 192 183 197 188 201 212 234 222 215 204 204 221 219 218 199 225 214 209 206 200 200 193 202 190 195 202 203 199 217 216 220 222 208 225 226 231 232 227 225 223 228
197 183 191 179 219 229 196 189 202 180 169 230 177 174 170 179 204 195 205 199 206 199 193 195 197 201 202 204 199 203 213 217 214 216 217 228 221 221 220 226 220 227 233
166 174 176 173 192 181 189 173 185 204 170 212 207 210 223 215 207 205 201 199 199 199 201 200 199 200 200 196 198 219 216 218 205 218 209 230 223 223 225 216 223 220 215
193 151 209 227 196 192 159 186 181 190 192 191 194 196 194 197 202 193 193 195 194 195 199 204 200 207 215 214 217 222 217 208 218 208 219 227 209 228 226 226 222 219 218
191 180 150 177 206 180 181 194 220 211 194 222 222 227 230 237 240 249 242 232 226 223 233 229 224 214 215 221 219 207 208 210 200 223 224 221 219 229 215 210 219 213 219
173 222 217 214 196 199 225 236 238 250 266 257 249 248 246 242 239 239 239 235 231 229 228 223 217 216 218 217 208 212 223 212 206 225 191 215 220 204 208 202 207 213 222
227 220 223 214 223 242 258 257 270 292 283 276 277 274 257 252 250 243 232 229 224 227 223 151 225 222 167 212 221 139 197 221 206 219 202 197 212 215 214 209 199 186 194
217 182 223 238 239 288 283 286 317 313 321 306 307 287 266 268 267 256 245 235 231 228 240 230 216 166 199 202 152 128 204 173 222 181 199 241 201 209 228 230 189 226 235
181 271 101 287 276 267 269 273 258 263 273 265 267 267 279 294 254 248 259 258 245 230 195 236 213 206 213 210 204 197 164 196 201 194 189 232 226 215 220 207 222 215 208
259 270 268 265 268 254 271 280 276 262 271 301 247 228 236 252 263 283 256 248 234 236 229 183 238 215 215 201 208 200 175 207 196 214 170 219 221 195 186 191 222 234 229
266 253 265 277 252 242 268 355 273 212 358 236 227 339 329 308 305 294 263 283 244 234 226 214 190 203 197 198 123 187 165 207 172 219 186 228 148 226 231 164 239 229 243
263 270 254 250 247 248 294 263 370 321 278 354 351 353 321 306 299 289 267 258 282 241 243 222 215 127 211 214 214 232 182 219 193 180 222 221 238 234 241 227 236 234 242
251 255 236 241 285 263 271 377 410 344 247 327 323 342 343 323 304 291 281 254 278 271 241 236 231 242 231 234 222 133 224 239 234 236 230 218 231 232 225 241 241 244 242
251 237 254 257 227 255 265 252 433 352 182 326 308 310 314 330 307 318 308 266 266 274 258 238 228 227 229 223 224 224 218 167 218 233 224 229 232 237 246 256 259 274 253
234 248 272 253 232 219 219 266 318 310 353 335 318 308 309 161 298 296 295 288 276 270 265 258 246 236 230 222 232 203 228 226 231 232 225 241 247 228 264 282 300 249 225
250 269 243 246 238 253 257 235 246 280 300 290 302 345 335 330 322 313 325 287 297 267 268 265 260 257 249 236 235 247 251 246 247 243 242 247 270 290 272 254 236 223 244
257 233 228 248 264 261 259 265 249 236 242 264 280 285 277 191 281 285 290 284 273 265 256 251 245 246 251 255 258 258 258 267 273 283 280 265 246 248 221 195 250 266 268
241 230 210 263 253 251 251 250 245 246 246 246 230 231 235 245 251 252 257 255 257 248 256 257 258 260 257 250 250 248 239 235 235 152 251 244 238 257 259 265 278 276 304
234 215 209 217 238 240 239 239 242 244 246 244 242 239 238 229 226 224 220 219 216 222 222 217 226 226 235 238 239 149 176 161 242 243 238 258 282 293 302 323 368 366 362

GFSMA_2pvu_pres_039.txt.gz
Presure
84 147 145 137 161 160 135 153 163 170 166 167 172 176 175 177 186 179 192 212 198 203 204 187 181 191 191 212 217 214 207 214 215 207 223 213 195 230 225 238 240 235 156
141 150 151 146 152 129 162 174 174 175 179 185 172 183 188 185 183 188 197 199 205 206 219 211 193 185 205 217 206 204 209 214 213 210 212 202 213 228 232 234 237 236 228
162 146 150 153 154 172 174 178 182 182 186 184 186 181 184 189 179 199 203 223 224 215 217 215 210 216 215 211 209 213 206 210 206 213 198 201 201 218 221 227 233 226 242
152 153 163 167 169 174 181 174 186 179 184 190 178 190 184 182 202 248 229 217 231 227 220 216 210 216 215 209 207 211 218 203 208 201 196 194 204 227 228 222 235 228 233
166 165 164 171 178 180 182 185 182 189 180 191 195 189 209 235 208 195 209 204 194 214 212 212 212 205 221 220 215 202 202 201 208 195 193 204 206 203 227 234 221 232 237
168 173 179 186 188 191 188 187 189 193 186 190 200 173 184 191 189 196 187 176 234 195 209 188 173 183 183 195 193 196 191 196 191 198 203 206 202 217 227 224 218 232 234
167 178 190 192 182 188 170 159 193 193 169 193 163 178 197 195 174 195 175 198 162 204 199 203 215 211 198 199 196 201 192 188 203 208 205 209 212 222 228 223 215 222 231
183 179 189 179 179 170 167 184 166 167 187 163 200 194 206 192 183 194 186 189 189 192 194 198 208 203 203 202 196 193 200 202 201 204 206 226 233 227 153 227 230 219 232
188 189 180 172 180 193 171 191 188 174 193 176 154 200 216 193 196 182 182 188 213 205 199 199 186 185 195 195 198 199 195 199 206 215 225 216 226 224 217 219 217 173 224
155 200 169 191 203 198 178 200 195 174 199 199 204 208 204 222 215 220 210 227 225 220 217 217 218 221 220 223 229 225 219 220 224 219 213 219 217 224 217 214 213 238 221
183 186 192 200 197 243 184 203 183 204 221 225 232 217 221 233 238 249 248 237 251 250 252 246 225 233 234 225 228 221 217 218 214 210 206 226 222 212 218 246 210 226 223
198 187 178 183 190 200 204 210 220 226 202 203 210 228 251 215 210 242 255 251 254 251 249 242 236 239 231 220 217 217 217 211 215 220 216 214 211 212 233 238 220 208 192
171 197 189 216 222 243 215 228 223 209 235 252 223 264 274 276 272 279 268 269 267 272 262 261 242 239 229 232 224 220 216 218 226 181 206 211 194 216 199 193 190 217 214
194 195 214 214 244 226 220 212 230 246 275 277 282 274 266 264 284 260 253 278 269 248 267 252 246 243 239 228 201 173 231 238 206 163 200 214 218 138 224 167 211 213 226
209 209 212 209 198 217 226 232 128 253 276 269 276 271 274 244 251 241 241 247 256 251 235 253 260 227 234 233 218 208 212 207 159 216 161 219 216 204 209 210 210 219 231
236 215 235 153 227 220 250 254 250 277 275 266 259 246 292 350 241 267 221 273 266 236 255 254 199 205 228 209 223 206 202 203 205 206 210 206 196 207 212 175 203 181 229
230 243 235 221 231 271 274 267 261 264 247 279 292 273 396 379 424 314 323 201 317 238 212 246 240 213 235 229 220 212 203 205 196 214 169 196 154 206 192 201 212 206 214
155 225 235 248 276 273 256 260 265 243 275 264 243 297 356 367 370 364 311 315 324 296 254 255 228 239 250 237 229 220 211 219 207 207 214 215 206 213 217 172 214 208 217
224 237 280 278 264 252 271 252 249 269 246 242 388 332 351 325 221 372 331 310 301 300 291 292 279 254 251 239 220 241 235 247 229 221 151 232 219 220 215 223 155 225 219
250 285 267 252 266 272 254 251 254 263 273 278 332 312 336 316 312 329 357 322 299 292 279 278 284 262 259 244 224 247 223 220 231 223 217 211 217 217 216 221 230 227 227
285 258 249 273 269 252 275 249 231 265 261 261 277 350 372 322 321 319 329 333 314 288 279 269 273 264 252 246 263 231 227 231 225 225 220 218 216 215 225 226 228 231 241
255 242 273 277 255 265 250 258 263 261 253 253 259 255 297 297 324 319 312 301 303 290 290 273 259 271 272 264 271 245 247 243 237 230 228 214 237 235 239 243 242 244 250
280 264 269 271 274 251 228 216 250 243 247 246 247 257 250 230 265 279 278 300 316 318 300 281 274 271 269 263 265 267 257 263 253 245 241 248 249 257 267 271 274 288 293
264 266 279 267 242 226 221 240 242 249 243 248 245 241 243 245 248 232 227 243 249 252 250 251 254 251 248 261 257 256 255 257 260 267 269 272 276 264 153 187 202 244 252
281 278 267 245 227 223 226 229 223 233 238 241 256 249 248 242 239 237 241 241 238 237 235 234 234 230 226 225 217 219 225 225 226 229 225 218 222 243 246 247 251 265 279
248 272 232 238 226 214 228 218 216 216 233 227 236 236 233 231 234 229 229 227 226 225 224 225 223 218 218 217 220 230 235 236 229 144 218 236 241 259 266 305 305 297 374

GFSMA_2pvu_pres_042.txt.gz
Presure
86 120 145 105 151 160 107 153 150 154 155 117 178 171 182 185 181 178 159 191 186 190 198 233 203 194 215 227 208 219 216 206 214 211 212 212 225 206 210 203 196 196 238
143 83 145 146 147 75 152 150 154 160 172 162 173 183 183 183 175 181 196 182 195 187 182 192 179 194 188 215 173 173 195 213 204 214 213 215 207 203 203 189 193 203 210
145 150 142 151 154 160 165 164 158 172 164 167 171 186 176 176 171 180 186 173 182 220 169 179 191 187 201 172 186 211 212 173 170 181 188 199 197 200 209 192 192 205 209
159 154 149 160 159 164 161 167 170 170 175 180 188 186 171 165 164 186 186 171 167 170 172 184 211 190 193 187 185 204 202 198 218 211 196 194 204 202 197 213 203 213 223
150 156 159 158 165 157 162 165 157 174 172 191 184 174 177 172 191 183 183 193 161 181 215 202 204 188 185 200 181 182 183 204 200 206 204 195 196 192 200 205 209 222 216
156 160 159 159 163 171 165 171 176 151 198 156 179 181 183 170 175 229 217 185 173 170 212 158 214 210 174 177 182 207 205 203 185 184 182 186 203 202 199 198 208 212 209
160 162 155 171 168 167 154 176 190 191 197 158 160 194 192 189 206 180 159 213 203 201 193 225 215 212 220 210 192 213 212 198 195 203 204 203 205 203 213 203 209 223 218
160 170 167 163 167 169 178 189 156 155 151 170 195 187 171 167 224 213 214 206 203 228 207 225 224 222 239 231 231 223 214 214 208 209 208 212 210 224 217 219 222 224 216
149 159 168 152 150 167 172 161 185 197 181 182 192 174 197 241 227 224 219 227 225 207 226 236 242 242 241 240 226 228 227 231 227 225 228 225 227 213 213 216 217 215 217
172 179 140 181 159 185 174 173 195 185 166 174 200 216 227 217 230 208 226 237 259 263 262 242 224 240 231 228 232 224 222 226 218 218 227 217 216 217 216 210 220 218 221
158 155 167 199 160 173 161 162 177 196 209 199 217 214 227 234 214 234 246 273 233 238 289 266 265 269 265 254 252 250 238 232 231 227 222 222 216 215 211 210 209 205 212
181 161 199 161 195 191 202 178 193 191 211 222 239 240 229 228 245 282 251 278 262 256 255 262 279 264 258 248 259 240 241 240 235 233 159 220 215 216 212 212 208 226 219
151 161 173 185 188 198 200 196 211 218 240 239 233 234 246 181 268 284 280 278 266 260 247 238 236 239 233 226 237 236 248 238 241 220 229 216 224 195 218 181 150 218 212
191 156 191 180 192 199 189 211 203 241 239 230 236 216 291 278 260 270 270 260 257 263 260 252 259 251 243 252 224 213 214 233 224 225 219 225 192 215 223 141 183 213 155
191 193 197 198 197 207 205 211 246 230 161 233 284 278 261 255 272 265 288 299 310 296 291 236 233 249 259 244 232 233 211 234 214 223 222 231 219 190 213 214 218 209 197
193 195 197 205 204 210 231 249 228 232 237 285 270 255 267 260 276 262 251 387 386 384 428 339 339 310 251 254 238 223 226 228 204 220 208 225 217 220 213 214 208 215 215
198 199 206 167 228 252 242 240 227 242 281 261 252 269 266 259 242 282 380 346 354 367 333 303 298 336 309 267 236 246 237 220 228 209 198 216 217 218 218 219 212 206 213
207 248 259 250 253 234 240 229 251 279 263 252 263 274 246 267 270 309 356 333 335 371 315 284 305 314 306 297 275 259 209 192 215 236 220 226 224 224 215 216 220 208 214
245 247 253 239 239 239 231 272 273 254 254 266 267 248 256 254 259 266 344 332 342 374 311 305 292 312 293 280 270 265 254 237 219 211 232 222 219 224 228 221 213 212 208
245 241 238 239 236 244 283 267 254 276 273 260 241 257 254 254 258 256 290 338 334 377 318 304 290 284 289 278 272 276 254 235 252 247 227 218 235 231 234 229 220 212 218
229 230 239 240 259 281 263 268 265 281 261 241 249 242 250 253 248 258 261 250 286 322 363 365 310 299 280 279 283 282 276 272 267 243 253 240 237 240 241 237 235 222 237
237 245 254 288 282 250 286 261 280 263 238 224 233 231 236 236 230 247 250 250 255 241 254 306 327 295 280 281 276 273 280 286 280 267 261 262 254 258 244 260 236 244 241
272 272 289 261 252 283 268 286 267 247 222 230 228 223 222 219 231 239 237 239 241 237 240 235 236 240 239 249 249 254 260 261 288 251 270 266 250 250 254 258 250 247 247
288 271 272 302 269 276 290 270 249 235 222 235 226 223 221 220 221 234 223 228 230 230 228 228 226 230 226 225 226 229 229 230 230 228 229 231 239 251 250 266 260 263 252
255 299 259 272 281 252 275 240 245 236 221 218 221 219 226 223 220 222 225 218 218 222 219 220 219 219 217 219 217 215 216 224 224 221 222 224 223 223 225 231 243 170 241
280 277 242 219 210 216 228 242 205 204 226 230 218 220 222 216 224 213 221 221 220 215 213 219 211 208 214 218 216 207 215 225 228 232 239 242 231 233 254 162 146 233 300

GFSMA_2pvu_pres_045.txt.gz
Presure
139 141 139 139 144 137 143 153 152 165 160 159 163 159 162 164 164 177 176 184 190 184 177 180 165 181 224 171 176 181 210 205 201 188 196 203 181 186 214 209 213 198 203
142 143 101 143 143 150 150 148 158 155 161 165 161 167 163 160 173 167 186 191 155 172 181 192 219 176 192 190 170 208 204 177 201 205 229 182 184 188 219 185 194 201 198
135 142 150 143 145 150 153 155 154 162 161 152 172 160 161 173 176 170 152 157 163 162 188 204 190 185 226 209 221 202 195 192 201 210 203 188 198 202 204 200 190 189 181
138 150 152 150 158 157 153 156 161 161 149 174 160 173 155 166 185 155 171 155 197 179 197 190 183 231 223 218 202 206 219 212 196 206 204 210 195 205 205 200 204 207 207
150 143 149 160 153 158 162 162 170 161 171 162 175 159 173 180 173 175 188 182 186 201 195 208 237 216 218 226 224 203 214 197 223 223 220 222 220 210 206 202 205 207 207
148 156 159 166 162 166 171 167 163 167 144 174 154 173 166 194 172 183 193 178 196 186 228 237 236 235 228 213 209 226 241 227 230 227 220 220 214 215 206 204 206 209 215
160 161 162 172 163 162 159 165 176 142 167 157 171 180 193 172 161 187 200 192 210 214 242 237 238 214 226 229 231 244 245 235 230 230 228 225 217 218 212 211 219 215 213
160 162 157 157 152 136 164 142 142 158 155 171 179 185 158 186 174 199 193 204 202 240 229 236 229 237 255 260 261 233 225 213 239 213 224 221 220 205 210 210 222 216 226
158 163 136 149 153 170 146 150 170 170 176 177 173 161 159 186 180 186 194 232 239 237 241 249 274 272 269 240 267 271 255 261 249 241 231 219 218 214 211 213 216 211 214
142 163 165 166 165 166 172 175 182 183 157 159 191 161 193 200 197 205 226 231 242 232 275 295 290 274 256 239 280 289 257 248 252 256 247 237 229 227 225 216 205 217 226
167 167 166 176 175 168 177 152 150 152 177 171 167 195 196 195 207 210 215 237 242 305 285 265 259 273 265 255 251 253 239 236 254 243 230 236 238 232 231 222 219 212 221
179 174 167 166 177 179 181 153 158 164 173 179 191 196 192 210 219 169 243 271 291 269 278 270 264 255 252 257 259 259 252 241 207 235 224 223 221 235 225 225 226 220 209
153 181 182 161 176 188 157 160 196 188 191 198 197 198 214 236 242 245 244 287 287 239 269 273 270 239 281 256 263 221 227 238 256 229 206 238 236 214 222 242 238 226 206
153 152 179 155 193 159 197 189 204 201 206 202 209 223 238 237 241 287 270 287 273 278 261 283 280 290 279 386 271 258 263 250 233 240 233 223 211 215 243 218 234 224 234
177 175 172 165 191 188 189 200 199 200 198 217 251 242 232 241 283 273 255 269 277 273 279 283 355 349 354 392 397 317 263 262 175 249 219 222 216 215 219 225 220 232 216
164 190 182 183 192 188 200 203 202 208 253 245 243 229 246 284 267 284 269 264 270 269 271 272 359 347 394 367 404 321 278 256 244 236 226 231 228 217 207 218 220 216 221
188 190 195 195 206 206 203 203 241 253 240 243 242 249 281 272 279 273 259 252 265 260 258 276 384 349 315 312 344 314 294 278 265 246 240 228 231 216 206 224 218 221 200
205 196 206 213 207 208 251 258 255 243 239 245 260 280 266 268 279 260 235 248 241 241 247 268 282 332 312 295 301 306 331 287 291 275 267 257 224 230 215 218 194 186 230
218 234 240 262 185 256 254 248 236 236 253 280 275 262 274 279 262 238 222 233 228 245 242 249 258 339 318 308 319 300 286 297 273 267 261 256 262 211 198 219 238 218 205
254 244 253 248 251 237 250 235 237 263 265 253 254 274 283 265 243 224 234 228 228 231 229 237 238 247 264 293 308 291 287 281 285 286 279 263 258 254 256 256 238 240 221
260 242 252 246 240 247 236 236 273 289 280 253 276 288 268 251 214 226 233 226 231 225 229 228 236 234 237 244 233 259 288 283 284 276 282 268 273 260 257 247 231 236 228
233 244 236 241 238 237 238 270 291 262 321 271 291 269 249 239 227 225 218 228 224 235 216 231 226 227 228 228 229 228 232 232 231 243 255 264 293 282 278 262 252 244 242
238 234 241 246 242 251 280 280 302 265 276 288 279 257 239 236 224 226 222 226 228 235 225 226 223 225 218 221 227 222 219 218 224 220 220 221 224 227 249 275 293 293 302
233 238 240 250 267 294 258 290 266 233 291 222 263 237 193 227 236 233 230 233 234 233 235 245 250 253 223 212 221 218 217 197 228 228 229 229 223 211 215 222 221 226 228
233 263 269 270 277 248 251 271 255 220 281 236 230 238 235 239 237 235 234 241 240 242 243 252 260 257 208 212 211 222 231 236 249 255 256 259 259 258 244 243 244 246 246
244 246 269 259 245 284 272 267 255 248 228 231 239 236 237 238 238 206 230 241 242 251 259 253 264 260 215 226 232 234 228 259 268 272 271 262 265 271 287 309 315 316 313

GFSMA_2pvu_pres_048.txt.gz
Presure
131 132 136 141 143 145 146 138 140 151 150 147 160 155 160 168 163 160 164 170 165 168 179 186 194 178 188 195 180 211 219 228 214 213 223 201 207 212 211 206 204 197 208
143 143 142 149 152 141 142 137 148 144 149 161 163 169 168 151 162 172 150 163 171 179 180 198 171 170 173 199 180 216 244 237 224 225 224 205 196 213 208 214 210 216 206
141 148 144 142 141 141 152 154 153 151 158 163 168 167 153 160 169 163 150 177 166 182 191 167 192 197 202 202 219 219 239 238 230 223 215 223 224 240 231 220 218 221 218
141 146 147 150 153 154 144 151 151 152 161 160 156 160 145 170 144 146 178 181 181 184 170 187 192 198 199 247 223 236 235 227 225 224 225 227 237 237 219 219 216 222 207
144 144 149 146 143 144 156 149 153 163 149 167 145 138 171 139 144 164 170 169 164 178 184 173 200 202 218 234 232 241 233 225 252 245 240 240 238 231 221 217 216 217 210
145 153 150 159 161 162 167 157 164 160 165 162 141 172 167 165 166 173 189 166 181 177 180 189 203 210 239 235 243 232 243 260 263 258 253 243 239 225 225 220 216 222 216
157 159 152 150 152 159 163 162 140 149 139 164 165 165 183 167 181 174 163 185 208 184 203 205 212 244 239 245 237 284 287 286 282 280 268 229 226 225 227 215 216 216 203
154 160 160 161 163 163 167 136 163 158 165 171 182 179 153 187 190 162 182 198 184 209 204 222 239 223 239 269 290 260 261 255 250 246 252 231 257 248 237 231 224 215 215
145 141 141 152 158 157 136 162 170 172 168 173 167 166 167 155 162 185 180 197 202 203 225 241 242 238 122 265 286 275 272 267 266 258 251 267 272 257 252 236 233 225 219
157 164 162 153 149 152 168 170 163 172 161 172 168 148 185 163 170 188 189 191 209 223 239 249 236 270 299 279 275 273 261 271 263 268 264 245 230 233 236 241 233 240 221
157 161 168 158 165 170 167 165 176 177 172 153 146 179 173 172 190 189 200 210 219 248 242 234 279 278 278 277 263 267 269 268 261 259 260 262 229 224 236 239 233 233 236
167 167 165 173 160 172 165 154 154 178 162 179 186 175 173 189 195 187 223 245 242 238 207 289 289 281 272 270 267 273 277 266 247 241 250 247 256 239 240 228 236 217 228
168 173 178 155 154 155 152 164 178 169 177 187 181 187 192 198 201 240 249 247 244 263 279 282 283 269 266 258 263 269 273 352 385 298 261 252 247 242 247 240 241 239 226
151 154 154 154 177 184 174 174 189 188 177 186 193 190 215 199 262 256 242 245 282 278 284 276 263 246 248 235 254 257 364 340 343 369 281 244 247 245 255 248 218 212 226
157 179 180 177 178 174 164 179 175 189 186 196 191 240 201 249 242 239 239 277 261 272 276 266 246 239 230 245 247 321 350 321 346 378 300 261 250 245 236 247 249 218 218
167 165 162 165 174 175 191 183 194 183 192 208 247 249 253 252 240 239 276 270 263 282 269 249 239 233 232 240 241 255 332 359 391 394 330 268 248 242 232 235 245 229 208
166 172 182 183 191 183 193 188 198 198 268 232 256 255 242 243 235 252 290 265 276 278 258 234 227 228 237 236 233 240 276 359 313 323 299 265 266 266 238 233 249 250 199
189 184 186 188 191 195 193 195 215 283 247 252 248 239 239 247 248 286 256 284 283 271 245 222 241 231 245 225 233 228 236 254 300 303 285 272 257 277 269 241 229 238 216
171 187 192 198 184 211 255 237 240 255 250 240 239 251 243 267 280 264 275 280 272 252 234 223 227 229 240 231 231 235 231 231 232 265 287 274 270 275 270 256 244 244 242
250 254 210 249 235 255 244 204 258 241 240 239 251 252 285 277 294 262 284 275 258 242 217 219 233 240 242 263 261 268 266 231 232 228 227 235 290 289 282 272 264 268 260
248 255 256 229 261 247 243 255 243 241 242 239 279 288 275 288 243 288 280 262 234 233 213 216 229 242 254 257 256 271 270 217 218 230 229 224 224 226 237 253 282 270 259
243 235 235 232 249 251 260 250 248 247 243 266 274 260 283 256 229 230 265 237 236 226 239 237 241 243 252 256 203 232 268 248 232 225 220 235 234 242 232 231 228 218 215
231 246 238 250 240 254 243 241 243 272 282 274 254 259 265 250 242 226 232 242 229 237 239 238 213 246 247 220 258 272 249 213 210 230 232 252 236 230 230 253 251 240 234
251 191 251 238 247 240 241 257 256 274 228 288 279 271 258 247 250 233 236 239 239 237 243 239 226 245 251 256 218 240 229 236 235 229 230 230 241 261 265 264 261 257 255
254 249 233 239 242 238 235 252 261 252 262 289 277 265 258 250 245 245 244 245 243 247 247 249 251 257 268 275 239 232 235 228 233 228 236 235 266 268 269 272 273 274 271
230 250 235 237 237 247 260 256 249 242 239 249 297 281 273 264 261 259 258 256 255 253 233 258 266 271 251 232 230 231 233 154 236 242 244 247 279 279 280 287 288 287 332

GFSMA_2pvu_pres_051.txt.gz
Presure
148 129 141 136 132 139 145 144 143 148 147 151 142 156 147 150 156 160 161 162 160 170 149 156 184 198 183 177 182 180 209 205 243 250 232 241 236 236 216 221 219 212 223
140 143 133 122 140 145 143 144 143 152 143 138 140 156 152 160 163 161 156 168 143 175 184 176 179 174 174 173 193 201 210 226 249 230 233 239 231 225 229 237 229 225 238
149 143 146 148 141 144 149 148 152 141 146 161 164 154 156 162 161 146 144 163 176 183 179 185 163 179 168 190 195 213 218 253 239 240 240 230 235 251 247 239 230 223 220
141 142 136 142 148 147 149 151 143 159 159 153 159 161 163 157 134 170 158 169 184 154 176 181 174 171 195 199 220 215 247 247 240 240 236 263 269 258 246 244 231 231 224
153 148 148 143 142 153 142 153 159 152 152 157 162 154 147 162 143 174 168 179 172 168 159 165 173 193 200 206 218 234 249 228 244 278 284 284 281 271 263 249 240 240 231
150 140 151 150 155 158 153 150 152 153 151 155 153 156 144 165 174 172 179 176 155 171 189 174 191 198 212 224 231 255 223 252 283 264 264 267 259 253 251 256 243 240 231
153 145 145 139 140 150 140 157 147 140 164 160 158 148 168 170 163 169 169 147 191 177 192 189 202 204 212 106 252 230 258 300 272 285 274 267 265 276 253 245 256 244 229
155 151 150 146 153 158 149 142 163 157 151 154 171 161 171 175 177 165 188 177 187 189 186 195 202 218 259 251 245 262 138 300 288 268 260 261 265 245 252 258 241 255 240
133 142 152 157 157 160 160 157 149 167 168 166 169 169 175 172 158 184 172 173 181 182 201 195 240 254 251 248 248 288 291 283 263 266 259 259 257 261 261 242 247 249 262
162 160 149 152 160 155 161 153 164 165 168 165 166 166 159 171 183 171 173 184 182 185 194 197 255 252 249 241 271 297 286 262 243 251 253 250 242 248 261 260 241 231 255
167 168 169 160 162 160 154 159 168 168 166 165 155 149 164 186 168 174 180 184 185 194 234 259 250 253 240 273 282 288 257 246 233 241 246 248 247 251 239 257 252 221 229
158 160 158 165 168 165 168 174 170 170 154 152 147 182 173 172 182 191 188 186 148 204 254 253 247 245 290 285 288 271 250 241 238 245 243 249 365 369 328 245 259 260 239
156 164 165 161 162 170 169 175 175 152 177 166 185 180 176 186 192 191 191 194 239 249 243 252 241 298 282 281 278 258 242 239 246 248 245 312 357 343 390 295 255 244 248
173 171 172 179 160 146 152 150 154 164 188 192 186 182 183 184 190 190 194 260 257 247 246 256 286 281 263 283 266 245 247 236 249 227 245 399 356 343 322 278 267 244 234
156 152 149 152 150 153 156 164 187 174 168 182 189 184 185 185 196 194 236 256 254 248 256 286 276 298 284 273 253 238 233 236 254 243 254 273 390 358 292 269 250 242 230
179 178 153 171 163 164 163 172 184 173 186 174 187 190 186 195 268 211 250 249 251 261 277 279 304 274 274 254 245 228 242 256 266 312 261 242 365 360 271 261 251 273 243
174 161 164 186 164 163 173 167 173 184 176 183 172 184 246 251 203 255 248 254 255 281 281 281 277 279 256 248 239 233 242 260 274 291 244 238 255 314 276 264 257 255 267
168 172 171 180 163 176 179 179 183 188 188 174 252 212 246 266 259 256 258 252 290 270 282 279 285 265 243 244 237 224 249 255 269 283 272 227 225 249 239 265 274 276 257
170 171 171 168 174 180 186 179 195 207 217 127 261 222 248 256 260 265 284 291 291 282 253 287 255 219 242 232 245 245 214 258 263 231 217 253 234 256 250 222 245 274 288
175 159 169 179 163 191 213 247 245 264 185 233 250 252 252 254 277 289 283 264 256 264 249 274 243 247 239 240 243 243 246 250 262 250 250 240 223 219 230 232 235 247 234
193 235 187 181 201 191 231 232 245 234 154 242 252 249 252 265 277 291 295 279 265 253 252 238 233 241 245 245 244 248 250 257 265 279 248 238 234 239 237 235 240 244 234
256 247 233 234 239 234 258 255 225 136 246 252 246 257 243 277 268 298 279 268 262 246 251 249 250 248 247 243 250 250 253 269 277 259 242 232 233 229 229 232 231 230 234
238 250 233 238 236 265 259 238 254 145 251 246 246 250 268 263 252 259 285 276 264 259 254 253 249 248 257 256 253 265 274 270 243 229 231 235 235 239 245 184 238 241 244
247 244 239 228 264 248 242 253 244 234 241 242 242 262 265 248 243 242 246 267 283 273 267 266 269 260 266 275 284 250 229 228 241 241 240 241 240 239 243 257 260 258 269
266 276 259 253 240 252 241 228 232 240 238 245 250 265 252 241 242 233 230 236 237 233 239 241 239 239 239 233 234 237 233 231 231 228 236 244 249 255 267 273 278 282 280
246 251 238 252 236 241 229 227 242 229 242 256 251 255 243 238 230 227 236 232 255 250 224 248 245 240 231 227 226 228 230 230 240 249 249 248 262 271 280 282 284 288 289

GFSMA_2pvu_pres_054.txt.gz
Presure
139 142 120 127 131 145 136 145 139 133 147 143 147 144 139 162 150 150 153 150 152 155 160 144 168 177 171 178 153 184 191 194 193 219 241 246 225 251 243 243 232 233 228
146 149 150 145 136 149 146 139 147 142 147 152 134 144 155 147 155 152 153 163 158 144 168 167 169 188 162 160 170 183 192 199 222 233 264 248 247 239 245 249 262 254 246
132 121 123 123 144 142 145 142 137 150 140 144 140 140 145 151 146 157 164 147 164 161 168 172 176 150 189 170 188 186 199 208 253 256 252 251 241 257 274 289 282 269 261
151 151 145 150 142 139 148 148 142 145 144 137 139 143 153 152 151 161 153 150 172 162 167 166 171 181 169 191 183 204 195 227 220 256 249 241 284 290 254 271 258 279 271
144 147 142 144 140 142 146 137 146 154 147 161 148 154 162 160 157 147 159 172 162 168 170 184 187 168 184 197 193 196 213 262 192 255 282 285 261 220 274 271 292 272 256
139 141 135 144 144 143 135 150 152 146 161 142 157 159 157 156 156 145 157 167 169 156 186 177 184 182 193 185 194 204 245 265 257 241 272 310 290 281 264 260 262 273 270
146 147 151 144 149 152 143 141 158 138 134 153 156 160 156 170 150 156 169 178 166 191 176 190 195 185 193 193 205 239 256 251 252 274 286 288 281 256 243 245 262 259 255
155 151 150 150 154 127 159 145 154 153 161 157 162 168 164 165 166 166 175 176 179 183 173 198 177 196 195 203 220 262 251 260 252 298 271 281 253 243 229 229 244 235 262
152 146 160 137 126 148 161 161 162 151 153 159 159 161 160 167 157 166 168 175 187 174 183 181 192 193 202 215 267 251 251 265 225 267 286 265 242 228 228 240 237 211 229
124 157 132 163 164 158 152 152 154 154 163 155 157 169 164 164 152 154 176 187 172 181 196 195 194 211 207 233 261 253 266 294 274 278 276 253 243 233 245 237 236 222 153
162 160 157 155 154 157 161 168 166 162 165 158 167 165 160 179 151 183 186 191 164 200 185 183 197 194 227 232 255 252 282 280 301 281 264 233 247 239 275 237 246 240 252
164 165 163 167 169 166 161 160 159 159 162 170 178 173 153 178 173 174 176 186 197 191 190 194 201 232 247 251 254 282 283 306 283 266 250 240 244 317 322 294 242 271 300
170 167 167 148 155 160 159 157 167 166 164 152 173 153 173 163 174 175 194 186 189 178 199 203 259 263 256 259 285 293 296 284 271 257 237 243 268 323 302 259 362 381 295
191 128 136 175 174 171 162 171 167 174 173 181 155 184 172 174 187 177 181 192 190 199 239 261 255 253 271 282 291 295 292 274 259 248 207 249 269 303 292 244 380 356 311
147 147 146 155 150 150 157 164 150 154 152 166 163 183 169 177 170 181 183 208 205 213 244 254 266 275 283 282 297 280 278 263 248 242 248 221 271 295 236 225 346 345 348
170 187 197 192 138 188 153 177 153 176 161 178 160 168 188 171 174 180 143 215 236 266 248 227 282 281 299 296 269 283 269 220 247 249 251 222 230 267 243 328 315 274 298
154 152 135 133 194 167 184 181 161 164 167 160 171 176 183 187 189 141 209 219 262 247 270 287 290 276 256 270 265 266 245 230 245 243 244 252 253 285 252 231 246 234 239
162 165 150 146 154 164 155 169 169 153 174 175 162 171 184 223 98 233 241 250 252 216 283 321 301 291 274 267 273 244 234 245 248 244 248 213 276 230 254 245 243 237 289
164 159 178 177 177 166 172 155 177 161 191 154 188 185 216 202 227 208 185 249 256 287 265 305 285 274 271 252 258 255 245 251 248 251 257 265 255 281 255 241 236 243 239
171 143 180 175 170 174 201 175 201 178 197 215 164 206 220 251 182 238 195 255 261 273 255 263 283 267 262 251 249 250 244 246 251 260 231 259 279 256 231 231 229 229 229
195 203 196 193 193 195 200 200 214 204 205 245 211 223 247 257 235 230 246 253 277 262 250 248 260 278 270 261 257 259 257 260 266 285 271 237 229 237 243 243 241 241 241
251 250 258 276 283 261 248 242 254 254 237 255 264 242 216 251 246 214 242 255 277 252 247 248 241 236 244 277 276 278 280 289 249 242 238 236 233 235 232 232 238 238 241
275 267 273 260 260 251 247 256 246 249 253 210 207 261 247 244 234 246 239 261 265 249 240 236 240 259 254 242 241 244 243 241 231 232 231 228 225 227 235 242 251 253 251
277 278 267 260 256 267 254 245 221 271 257 255 247 240 249 230 242 249 256 264 253 242 236 230 229 235 236 229 234 230 217 228 224 225 225 223 218 224 239 250 256 259 265
317 299 299 287 276 277 224 279 265 252 245 227 253 238 225 236 246 250 239 254 247 239 236 227 223 219 218 220 221 219 220 218 220 223 223 218 224 236 251 256 259 270 279
321 318 299 281 277 262 256 255 240 247 242 245 234 222 231 236 253 236 242 251 242 240 232 228 221 219 211 219 219 221 214 214 220 224 218 221 233 246 255 259 272 279 284

GFSMA_2pvu_pres_057.txt.gz
Presure
138 104 151 153 153 148 140 131 137 151 138 148 141 144 152 145 140 134 148 146 146 156 151 144 161 149 164 174 151 176 174 175 193 192 200 209 256 244 267 264 245 270 260
131 129 139 142 150 147 147 149 126 125 147 144 138 145 135 152 139 143 155 145 162 158 155 164 147 167 171 163 170 168 179 200 186 204 207 247 239 263 239 251 262 271 292
140 143 144 141 141 145 147 150 153 150 149 150 142 134 153 143 135 161 136 161 158 137 169 172 166 174 169 178 188 184 184 199 190 205 203 221 251 251 265 260 293 305 293
147 147 143 144 139 151 155 151 144 145 142 147 135 153 136 147 149 140 162 156 156 167 157 172 159 159 160 172 185 174 196 179 207 209 262 250 246 254 262 303 105 287 280
149 149 152 147 141 136 144 139 142 139 144 145 150 142 149 156 148 165 153 157 163 155 163 176 151 173 175 157 182 195 184 191 194 253 229 257 254 269 299 278 294 270 255
153 153 145 140 145 146 148 147 149 153 151 145 148 136 142 159 152 153 155 153 166 171 172 140 175 174 161 191 174 199 184 204 225 243 227 261 261 229 285 269 275 247 233
146 150 146 149 145 143 148 148 160 160 145 146 126 142 144 158 159 153 166 172 168 169 152 181 153 184 170 179 194 192 216 198 255 256 265 90 283 206 272 288 263 240 231
159 166 154 160 166 156 150 143 157 153 141 126 158 152 157 156 144 169 169 166 170 160 182 162 192 176 191 182 189 193 197 217 238 264 264 273 298 305 290 278 257 221 233
159 164 125 149 167 153 123 153 158 154 124 162 158 156 152 169 165 163 161 169 178 169 181 182 187 186 186 193 189 209 245 232 238 260 276 297 308 284 281 265 238 229 237
171 172 161 153 136 132 151 163 127 169 166 166 162 169 168 153 165 160 167 159 158 176 163 188 180 187 201 194 188 203 216 266 250 271 283 310 268 283 268 251 241 257 280
172 175 164 172 172 173 164 162 158 155 157 165 169 154 158 159 169 170 169 180 163 151 183 163 176 192 187 205 212 222 270 214 274 282 269 272 286 270 256 254 207 287 319
162 177 176 167 171 180 180 178 181 181 173 147 167 168 167 171 176 171 167 165 166 194 179 179 208 189 200 219 223 223 221 280 279 300 283 290 275 260 248 252 206 282 282
161 155 156 141 135 160 179 185 182 137 184 185 186 182 162 148 152 150 173 187 179 186 186 186 195 193 214 210 158 235 293 292 291 297 277 278 265 237 251 262 261 260 237
170 189 191 179 169 164 138 145 144 149 151 147 177 195 176 199 143 187 161 199 194 198 183 189 184 211 208 160 261 291 301 291 258 273 290 275 241 240 248 261 278 297 256
132 170 168 170 168 162 160 177 148 143 159 132 166 133 158 139 168 156 173 172 178 185 194 199 203 220 263 252 207 281 300 289 274 268 267 243 243 243 255 259 293 254 267
162 188 174 160 144 172 167 177 177 166 178 151 162 163 137 162 137 172 163 179 188 176 197 208 139 245 145 274 278 275 289 272 275 253 264 247 245 257 256 266 296 232 256
210 153 124 136 181 156 158 145 149 133 152 169 139 157 170 157 171 165 169 183 190 248 196 251 206 245 230 283 267 256 281 267 258 250 247 251 252 255 263 283 289 272 251
204 210 187 166 197 202 185 156 163 173 155 138 164 163 137 181 194 198 193 261 206 204 243 265 254 261 261 281 262 253 271 269 260 256 262 261 265 263 283 290 244 238 243
222 216 214 180 204 184 155 193 194 137 160 171 151 171 183 196 183 259 204 196 265 185 254 247 247 254 274 265 253 250 245 245 276 271 268 275 283 283 241 232 244 240 238
229 226 221 209 194 199 194 171 194 198 180 200 173 169 190 232 199 206 239 239 234 249 247 249 250 259 278 255 247 239 254 241 240 233 234 233 239 243 236 227 229 228 228
264 223 243 221 219 202 201 202 204 195 179 194 224 202 201 167 252 247 256 257 259 251 207 250 234 270 268 248 239 237 241 236 243 233 235 231 222 231 228 227 228 223 219
254 250 247 249 251 250 254 209 159 159 205 205 269 253 257 242 267 272 238 247 242 233 248 243 250 262 258 250 231 231 229 226 220 229 220 224 222 222 220 226 226 220 218
265 235 269 255 256 278 244 239 272 245 237 266 274 247 258 252 234 246 256 244 240 248 240 230 260 253 256 245 241 233 229 224 221 216 220 224 225 220 226 223 225 223 227
240 296 286 275 276 202 275 263 279 262 260 282 297 268 256 251 249 246 249 227 244 231 228 244 244 250 253 246 240 235 233 226 222 218 222 222 221 218 216 220 220 222 229
339 295 289 284 303 267 252 264 283 282 304 273 281 281 255 252 248 239 236 237 226 239 246 237 246 243 248 248 244 239 236 233 226 225 219 220 227 226 217 218 223 227 234
308 309 310 344 338 336 336 333 323 304 291 279 262 248 247 244 231 236 243 228 235 227 238 239 244 236 244 242 244 245 243 239 231 228 229 228 232 234 243 228 229 230 241

GFSMA_2pvu_pres_060.txt.gz
Presure
137 144 152 81 151 120 134 135 137 141 142 130 139 126 137 158 141 140 141 156 149 152 147 162 157 156 154 172 164 154 150 166 168 177 196 181 203 213 261 267 275 255 251
110 130 127 142 147 141 157 144 140 141 148 150 153 154 149 147 160 141 155 139 143 161 145 159 153 150 169 167 171 159 180 153 178 178 191 194 200 222 270 266 255 262 258
136 135 141 152 150 148 152 148 152 151 145 147 145 143 148 149 140 153 149 150 161 144 148 154 150 168 172 170 161 163 165 174 182 188 189 202 227 269 214 270 266 264 293
143 134 136 136 135 148 148 131 148 149 153 148 148 146 150 149 156 155 159 163 137 156 153 150 171 171 164 168 155 180 179 175 168 196 196 201 213 223 255 269 271 288 297
156 147 147 149 150 143 145 151 154 157 156 141 145 145 152 150 158 153 153 160 159 158 149 170 172 167 166 159 167 165 184 205 201 182 200 236 253 256 255 269 282 312 297
168 158 159 157 154 167 140 149 143 150 136 149 152 155 167 153 152 129 167 161 162 155 170 171 171 170 162 173 184 190 195 178 197 184 236 217 229 258 277 277 285 305 292
157 156 160 164 159 157 157 158 152 154 164 165 151 162 127 170 168 173 172 163 163 171 155 168 170 163 162 196 204 182 172 193 188 205 210 284 228 279 280 286 281 287 282
164 172 167 167 167 167 171 165 169 151 145 149 173 147 167 168 135 163 170 171 181 180 176 174 183 175 186 191 180 183 168 194 204 222 265 242 277 289 285 313 277 289 276
150 176 141 171 172 179 140 121 172 171 164 167 169 151 168 171 181 178 178 183 185 173 192 166 179 196 186 189 182 182 192 198 202 222 235 284 294 291 296 292 276 280 259
164 125 164 162 152 171 170 155 176 169 165 162 174 168 168 182 179 179 143 163 185 185 158 182 174 180 160 167 183 189 198 206 209 244 145 281 306 289 301 278 287 270 241
165 172 165 127 125 172 175 153 140 136 193 167 178 143 166 146 166 150 151 159 162 160 171 146 160 168 166 186 189 199 208 248 219 251 292 282 313 298 274 287 277 261 249
168 150 173 182 183 183 185 176 180 166 179 152 153 151 189 179 152 149 141 167 160 166 192 153 174 183 193 193 201 210 239 136 245 165 243 286 293 285 286 264 260 255 259
180 123 180 168 162 182 171 179 189 179 195 155 170 166 173 172 129 164 157 166 138 193 151 135 184 179 185 199 203 206 221 127 278 242 278 292 279 278 259 269 251 251 263
176 175 182 157 187 120 139 190 176 182 133 132 182 171 175 166 177 167 157 146 158 148 172 191 163 192 181 210 206 217 230 266 175 293 271 258 279 263 255 249 258 257 276
195 194 185 184 198 200 201 124 188 135 192 189 191 194 189 194 180 158 150 169 171 139 183 171 187 191 196 208 263 224 253 272 272 281 263 253 274 264 255 258 258 267 280
223 223 165 186 181 208 206 187 184 153 151 200 192 134 176 194 144 143 139 168 140 179 181 183 199 202 207 198 218 247 257 256 292 267 256 247 241 268 268 272 273 281 278
188 194 187 196 196 195 200 201 199 193 184 163 142 204 204 201 200 198 188 182 204 188 195 199 242 223 224 251 260 244 251 257 278 258 251 258 243 239 231 256 279 234 246
191 192 183 187 194 217 208 193 195 206 200 196 184 197 198 211 136 141 211 184 191 176 222 223 205 205 249 237 255 252 257 278 267 251 246 238 233 259 232 254 242 238 238
194 197 201 201 200 204 205 208 207 243 215 217 135 221 219 152 212 205 191 203 197 199 267 204 281 238 252 232 248 251 247 273 262 250 237 235 231 223 237 239 215 228 224
216 215 213 216 215 215 216 234 236 229 238 238 235 235 228 228 229 226 243 254 220 207 240 247 262 255 244 250 242 247 242 267 262 249 239 233 230 227 224 223 226 224 218
234 232 230 232 253 265 259 241 252 238 272 260 249 237 218 244 236 244 250 267 260 267 270 260 259 251 240 248 231 242 250 256 261 253 243 239 232 228 224 219 222 224 224
252 253 254 251 254 246 251 249 245 232 248 257 269 258 262 229 252 278 269 242 260 283 274 265 242 247 244 234 235 229 240 250 248 254 250 242 238 233 229 223 222 222 224
259 249 255 251 248 244 252 278 287 274 267 182 232 260 251 251 270 270 287 284 286 267 268 249 249 235 231 229 246 242 244 246 243 248 249 246 247 245 243 235 226 224 224
254 251 279 277 256 268 264 247 248 263 269 267 267 272 268 273 267 250 278 291 270 262 253 240 238 228 230 242 229 239 239 241 244 239 248 238 245 245 242 240 239 243 254
350 356 345 309 293 288 310 338 334 327 283 316 300 273 310 309 298 293 282 255 250 252 235 239 231 232 241 229 227 228 238 239 248 228 248 251 240 244 258 253 249 265 268
296 320 315 319 311 293 314 311 326 323 322 325 325 318 304 299 281 281 265 250 236 238 243 229 252 238 232 227 244 233 242 237 245 237 262 248 245 265 245 252 237 244 242

GFSMA_2pvu_pres_063.txt.gz
Presure
131 122 125 156 151 140 132 146 150 143 143 142 143 154 155 152 154 138 151 146 142 157 153 158 150 161 162 168 156 188 179 172 169 173 191 174 179 184 201 206 242 284 270
115 142 142 142 134 142 137 137 137 139 143 149 148 141 137 141 153 159 162 147 149 167 145 170 143 174 171 174 165 170 179 156 203 189 192 169 193 193 204 219 266 283 268
93 153 144 147 152 150 151 154 132 132 144 136 136 142 147 152 157 154 141 147 154 160 161 172 173 177 177 173 184 175 195 153 183 195 183 178 192 200 208 269 282 269 275
152 158 153 152 146 148 154 151 157 143 147 147 147 156 158 149 153 153 159 165 164 151 178 172 169 183 182 180 184 181 187 184 167 180 151 209 195 199 210 247 272 282 289
152 153 153 156 160 164 161 156 161 164 156 163 164 162 154 152 143 161 129 162 156 155 171 154 168 184 188 189 186 169 172 182 197 184 191 194 205 215 237 274 290 292 288
142 150 134 131 143 160 144 144 151 151 159 154 163 162 158 169 169 125 175 166 134 134 177 167 171 191 151 145 169 180 168 152 191 182 194 205 217 225 252 255 225 295 310
157 158 153 153 122 162 160 157 161 162 168 170 171 167 146 133 178 168 169 169 176 167 161 141 168 146 152 196 149 172 174 189 159 205 196 206 227 233 276 303 283 316 285
157 168 168 153 163 166 169 165 125 172 141 156 187 146 175 167 162 151 170 170 184 145 148 162 158 157 153 152 162 165 164 152 183 199 202 204 243 268 285 294 297 306 293
162 168 160 161 161 162 161 168 171 164 146 137 145 149 146 166 178 152 187 193 172 136 184 144 176 157 169 173 155 144 176 190 195 205 216 230 236 244 225 286 304 292 283
165 165 160 160 136 143 173 177 155 165 171 170 170 170 182 176 188 181 191 181 139 185 150 185 154 166 153 162 137 185 173 185 208 202 225 240 262 256 296 278 275 282 292
175 177 182 189 178 181 177 159 172 173 174 175 181 149 131 188 144 157 193 177 141 168 194 152 151 169 190 130 171 172 209 190 213 209 265 266 272 268 293 271 273 282 267
178 177 181 175 182 181 173 175 165 153 173 185 134 183 179 140 126 187 156 180 171 193 182 152 156 145 185 206 169 180 195 193 207 219 213 278 272 269 281 267 257 277 263
152 154 167 167 143 185 182 165 144 124 156 130 181 162 147 163 157 152 135 139 178 181 159 180 199 165 181 201 171 207 185 207 200 221 238 277 273 294 273 263 252 266 270
152 153 161 176 194 207 172 194 188 184 95 155 150 184 178 126 182 198 187 193 188 148 173 191 199 198 161 222 205 216 199 231 216 220 255 267 271 284 271 257 255 250 273
157 136 171 171 181 156 206 211 195 159 193 181 184 189 186 178 192 172 199 203 186 192 203 203 191 200 212 220 227 228 232 218 254 252 256 277 279 276 263 255 245 251 252
223 219 172 157 176 210 221 176 222 200 185 163 201 198 201 189 181 183 190 193 197 207 195 210 193 183 219 214 226 251 247 122 256 232 256 260 249 270 262 252 244 280 230
173 238 238 216 204 173 176 175 188 177 182 185 178 182 180 176 178 188 190 197 208 208 239 233 237 233 229 247 246 254 283 241 225 243 263 248 251 268 256 247 239 235 225
197 185 187 189 228 216 184 182 176 182 181 182 180 184 188 193 192 200 200 202 216 223 223 224 159 217 227 237 231 244 241 218 255 242 247 248 238 267 256 242 240 233 229
227 231 233 211 206 220 171 196 187 196 197 199 203 205 201 204 202 193 211 153 237 234 236 232 241 234 265 265 261 253 257 253 242 243 240 239 254 259 261 253 244 232 232
222 219 215 222 224 228 226 228 231 215 220 198 211 204 215 217 223 255 243 256 233 226 207 264 263 253 252 251 287 270 252 247 253 238 240 245 236 253 254 258 256 252 242
228 229 229 232 235 147 233 233 229 228 231 237 230 228 249 251 254 259 206 245 266 254 259 259 248 252 268 249 272 263 250 245 236 239 235 242 228 241 251 241 254 250 253
238 236 237 239 241 106 190 230 234 95 236 240 116 271 262 254 242 242 237 263 246 254 252 245 248 258 269 278 267 250 245 236 235 235 232 227 241 245 239 251 233 258 243
261 255 252 247 249 251 252 250 250 257 259 261 254 255 242 243 264 239 255 252 257 208 244 271 269 252 273 266 244 245 232 241 235 230 237 224 233 243 238 251 254 262 248
286 310 284 262 257 254 255 259 261 259 270 252 256 253 255 268 277 267 264 265 287 291 290 290 290 277 264 251 249 234 236 236 251 237 237 234 227 242 246 248 262 253 243
303 274 309 285 328 267 303 281 317 287 277 276 345 345 354 332 331 327 325 268 314 302 295 285 272 263 250 239 234 246 241 235 228 241 232 238 233 250 236 255 260 243 269
290 292 295 296 298 294 292 292 293 293 294 294 308 307 289 329 316 310 322 303 296 289 275 261 254 251 233 240 233 238 233 229 240 240 226 236 249 235 252 263 245 268 252

GFSMA_2pvu_pres_066.txt.gz
Presure
138 139 84 146 144 106 138 140 140 136 137 143 140 155 152 132 140 143 146 145 152 155 164 158 160 167 174 136 175 167 183 158 180 177 198 182 161 169 191 200 224 240 241
139 119 122 148 147 146 136 142 151 153 153 143 145 149 154 156 161 156 162 162 164 138 164 156 129 177 179 170 173 170 187 144 193 174 175 197 185 170 189 204 225 215 244
82 155 153 148 149 150 149 155 158 156 157 151 153 162 160 158 154 147 159 155 164 167 169 172 184 172 165 174 172 176 158 144 155 172 186 162 145 177 198 213 223 241 267
152 148 147 144 157 150 151 150 149 142 151 150 159 164 168 168 162 158 158 168 166 160 190 178 161 157 151 187 148 151 198 180 179 154 161 182 153 145 219 207 217 238 275
140 146 148 151 150 149 150 122 163 152 159 130 146 163 161 154 168 164 163 161 182 174 168 165 136 158 165 134 191 176 174 210 179 166 202 185 202 180 206 207 216 273 282
150 150 150 155 133 150 161 167 150 159 160 143 169 156 165 157 157 132 170 131 165 161 151 174 192 194 189 202 153 208 190 154 191 182 172 179 177 223 229 239 220 244 275
157 152 155 161 161 151 161 160 149 160 160 149 169 170 149 172 169 123 177 174 170 168 169 189 188 191 193 135 203 199 199 143 162 199 211 146 224 225 236 240 242 279 272
143 145 155 137 146 150 142 160 164 155 159 159 145 170 166 151 131 181 176 170 180 176 126 184 143 184 169 142 151 153 157 152 151 206 149 177 223 232 241 222 245 281 254
156 163 162 164 159 162 161 153 167 173 175 139 179 157 175 169 169 170 176 183 182 159 189 191 182 153 145 137 153 150 176 197 204 170 170 215 217 225 265 254 280 284 290
167 165 166 173 173 173 170 149 165 154 155 169 174 173 173 174 129 178 121 171 181 140 162 130 175 161 160 179 188 162 199 162 198 198 210 227 219 245 252 247 231 288 281
156 171 172 178 178 169 171 171 150 189 172 180 183 142 191 184 200 144 123 143 115 98 137 148 180 129 192 182 145 198 182 187 212 222 239 241 242 252 276 272 282 292 271
220 152 189 173 155 177 187 195 172 183 148 143 166 160 180 170 176 110 185 193 152 176 176 145 162 195 193 171 193 183 183 205 209 233 219 235 248 236 268 237 273 281 267
160 197 196 164 200 197 178 148 145 145 178 151 159 167 165 160 167 177 179 176 200 202 201 159 198 184 170 180 182 184 205 207 238 235 230 285 239 274 146 268 270 277 267
186 161 182 183 159 154 161 152 189 137 166 184 185 186 157 170 177 191 192 176 167 200 182 173 183 178 182 182 184 196 205 218 243 251 226 242 260 247 255 254 255 276 263
165 157 191 192 193 171 193 190 174 202 204 202 212 171 184 167 167 163 172 174 172 180 180 194 152 184 184 195 195 214 242 244 246 238 263 267 260 239 254 250 249 270 260
188 184 168 191 202 204 211 195 182 180 174 190 220 225 169 170 164 158 185 167 191 179 181 188 187 192 199 204 212 220 238 182 221 268 257 243 254 252 249 255 247 255 265
203 207 208 207 214 217 217 225 198 163 230 188 204 225 209 199 183 178 178 183 186 196 194 202 204 201 153 213 231 135 251 236 265 245 257 242 261 253 242 249 236 243 259
173 173 172 171 171 170 167 165 184 101 215 174 218 222 225 229 219 196 229 230 222 215 208 147 209 226 270 274 242 274 242 255 251 243 243 243 254 241 255 243 237 242 231
183 179 174 178 179 175 177 174 180 184 188 190 203 208 219 208 228 219 220 218 214 217 221 225 249 265 240 262 264 207 257 248 242 256 282 234 254 238 246 233 238 233 244
196 193 197 202 177 210 208 213 215 215 213 217 218 217 224 225 226 227 229 227 223 228 231 263 262 250 263 238 247 252 246 252 243 242 258 260 243 246 230 230 229 233 233
217 217 217 224 225 222 217 207 228 230 230 227 227 233 92 235 196 135 104 221 234 246 271 252 254 246 244 250 262 252 252 232 289 274 266 235 242 233 236 244 239 231 239
231 232 233 228 225 227 228 129 238 237 240 239 243 239 236 238 237 243 247 260 262 250 251 253 248 247 245 257 262 253 222 254 275 260 248 248 244 222 238 238 241 237 238
229 232 228 227 232 238 239 243 243 246 248 250 250 249 259 263 259 255 253 252 255 256 258 256 249 250 262 282 253 283 289 271 266 250 244 239 232 240 236 230 247 231 235
266 285 277 311 283 279 293 302 332 271 286 295 281 273 293 273 258 268 255 263 259 261 249 249 244 310 305 309 294 287 269 261 250 239 238 233 235 244 236 242 239 226 250
276 276 278 301 302 285 305 304 305 310 308 308 305 321 335 280 340 320 332 286 322 327 316 322 311 305 301 292 276 265 253 253 244 233 235 230 237 229 246 240 229 236 246
291 296 320 257 290 280 284 322 327 329 344 333 294 307 309 296 289 281 278 286 296 291 286 288 306 297 289 266 251 242 253 245 243 234 233 245 232 232 234 227 237 251 251

GFSMA_2pvu_pres_069.txt.gz
Presure
79 120 78 78 139 145 129 137 136 143 147 146 147 149 154 158 162 150 151 149 159 159 146 152 159 170 170 184 168 163 145 197 132 162 205 182 210 215 145 176 222 210 217
145 70 82 123 102 152 115 145 147 147 153 153 156 159 144 156 150 165 162 159 174 172 136 169 165 172 151 177 169 164 185 201 141 196 186 183 206 213 155 223 209 178 224
142 137 124 153 144 141 143 157 160 151 154 156 151 152 155 154 129 134 154 166 153 170 171 128 177 171 177 171 167 187 194 193 198 191 208 201 206 183 195 188 220 219 253
81 147 141 139 148 126 143 141 128 130 137 152 158 135 151 158 164 149 163 151 151 164 178 141 163 171 180 160 141 158 206 133 175 188 140 146 185 216 218 217 217 229 246
82 116 151 153 151 158 154 153 153 153 157 141 161 162 145 162 159 163 162 171 157 165 171 124 170 176 178 158 206 197 202 132 205 203 188 163 173 198 192 209 215 192 246
159 157 159 163 150 155 149 157 158 154 158 154 161 139 159 158 164 173 151 134 159 167 175 163 178 190 192 146 204 167 162 125 166 172 154 186 190 211 209 214 215 249 298
136 175 147 153 151 161 157 161 149 160 164 164 141 158 167 157 163 151 152 169 169 173 174 132 191 181 184 184 183 118 128 196 192 128 163 187 168 198 211 215 234 240 249
156 168 172 159 151 164 169 167 157 160 158 168 165 168 161 172 150 173 173 172 165 181 152 169 111 173 169 183 125 127 184 123 133 161 179 209 190 200 218 224 245 258 282
164 162 166 181 173 167 176 180 171 151 168 173 138 143 152 152 175 180 174 139 166 141 160 173 142 147 144 187 163 193 167 207 172 185 189 186 196 204 215 227 248 293 264
168 183 178 167 163 182 186 188 193 158 160 137 142 166 142 175 166 165 143 142 145 163 170 186 167 182 187 162 135 172 183 182 187 184 187 190 198 205 218 258 246 284 277
165 167 171 173 174 181 180 183 200 203 201 196 143 184 182 171 144 149 173 169 195 160 192 194 197 202 155 173 172 176 172 172 203 171 185 201 202 215 237 244 280 248 268
165 173 167 180 186 178 179 201 193 196 157 145 187 193 137 146 149 148 143 182 168 184 199 165 201 188 195 171 225 166 189 192 166 190 195 212 202 215 251 228 278 261 256
204 197 184 179 139 174 176 189 163 184 180 142 149 160 197 165 171 177 194 159 195 198 178 177 213 235 227 174 208 179 175 199 148 205 211 211 213 221 265 251 235 242 257
177 185 174 183 210 196 193 164 162 162 140 194 188 184 153 155 192 163 160 202 161 185 164 223 173 162 215 207 183 189 195 230 221 206 221 187 211 245 255 252 251 244 253
164 163 168 170 170 179 178 186 188 191 197 193 211 203 167 168 203 216 213 221 247 197 220 174 183 205 222 197 227 227 206 205 206 235 225 264 248 248 249 250 283 241 253
172 170 169 167 167 168 161 171 177 174 184 201 203 224 210 171 167 174 171 174 179 180 191 193 215 212 196 206 206 218 228 225 234 264 232 128 258 249 219 244 263 251 250
174 160 178 178 177 176 176 177 168 170 169 171 169 172 180 164 198 198 182 181 198 189 188 195 183 215 212 223 230 225 220 231 249 253 240 246 248 249 252 284 265 254 238
188 198 190 175 162 186 186 184 178 178 177 179 178 177 176 180 147 181 181 184 191 205 221 222 215 224 220 236 223 224 239 240 251 237 253 247 236 251 233 277 241 256 236
184 133 186 179 179 180 189 194 195 171 147 193 171 180 179 183 230 192 154 217 215 220 236 227 235 244 196 232 230 239 260 245 253 245 247 260 246 230 246 270 257 247 234
196 181 177 178 177 176 179 159 161 180 182 181 185 205 215 209 215 222 230 226 164 235 237 240 240 235 234 250 257 245 253 249 247 251 240 252 250 249 270 265 250 246 240
186 154 208 211 211 209 184 203 213 206 213 208 212 228 228 232 237 239 232 239 238 243 244 238 243 267 257 252 260 258 251 252 240 236 251 279 248 272 270 247 239 238 238
227 218 215 216 132 208 209 214 166 236 241 237 237 237 230 237 239 244 245 247 249 259 262 286 261 269 266 260 252 266 248 258 250 243 290 292 242 264 264 247 240 230 233
259 249 241 234 235 237 252 238 240 242 241 242 242 248 251 249 259 283 358 307 348 300 275 262 256 253 254 268 264 256 251 247 280 304 298 279 271 258 246 240 227 229 229
278 263 259 253 249 250 248 225 251 252 255 261 281 285 280 295 290 295 311 282 324 308 282 245 288 255 330 290 287 321 314 322 296 281 273 262 258 251 246 236 227 223 243
283 253 296 272 293 323 276 277 291 280 280 275 329 268 264 284 291 299 300 311 306 252 305 300 303 278 312 296 288 280 277 284 281 264 264 256 246 232 237 235 225 238 229
302 304 305 305 303 284 275 279 302 267 263 281 322 317 310 326 327 327 330 251 256 286 331 344 277 286 275 278 287 289 255 274 272 259 252 236 248 242 238 235 228 229 234

GFSMA_2pvu_pres_072.txt.gz
Presure
151 150 116 82 96 79 145 71 80 146 145 147 145 141 144 139 148 142 139 154 157 129 120 138 157 152 161 159 170 178 182 173 149 175 194 207 209 171 143 201 188 191 183
156 142 95 136 115 145 136 142 137 141 150 142 142 138 158 142 143 162 160 143 159 152 172 171 152 169 171 161 179 185 175 178 177 181 173 184 170 188 185 163 195 174 199
145 151 83 79 74 149 154 152 144 150 150 133 125 151 164 150 166 150 150 123 171 161 165 168 166 140 178 146 171 150 179 159 171 189 120 140 166 124 189 187 192 150 219
78 98 147 126 142 83 114 151 147 158 145 157 160 156 153 157 158 157 127 152 164 148 150 161 157 173 163 161 188 163 176 120 184 122 123 191 122 181 145 122 201 200 216
141 118 164 95 148 142 146 143 148 154 152 150 154 159 132 159 168 139 157 146 148 162 161 149 167 156 152 166 190 110 193 182 118 179 171 175 203 206 177 183 170 201 223
156 163 150 160 163 149 156 150 159 168 156 162 168 153 156 153 149 170 152 170 168 166 158 153 167 149 149 144 163 184 118 210 171 185 170 210 146 183 202 196 201 233 220
162 162 158 165 162 150 168 169 180 150 155 175 169 138 130 166 167 173 182 137 151 157 171 169 146 158 172 185 198 171 187 202 196 187 203 165 202 202 173 207 207 224 221
176 161 140 164 171 170 162 169 166 187 177 166 169 167 169 178 169 181 141 189 192 185 187 186 141 161 162 189 155 192 202 173 175 183 177 176 189 183 170 202 223 215 218
174 173 180 182 175 173 184 177 185 187 178 157 184 186 187 169 173 167 166 165 183 167 149 153 182 159 170 191 181 203 165 192 201 200 163 217 196 226 229 219 221 215 237
186 187 187 176 174 186 180 182 195 168 187 178 176 166 179 178 153 161 133 205 150 162 188 181 170 182 169 176 202 208 152 190 204 175 211 198 225 231 212 216 211 234 255
175 152 153 195 190 178 158 175 176 185 170 182 170 198 190 192 194 185 176 143 147 154 193 200 152 171 194 214 199 167 182 178 180 197 194 194 191 204 211 226 264 237 261
169 181 171 175 170 179 186 184 197 182 178 155 186 173 185 181 187 181 183 205 168 197 137 170 201 191 164 165 184 184 218 228 192 192 195 185 200 231 223 263 276 254 235
174 177 175 153 172 171 165 187 170 172 172 167 178 186 155 175 179 169 163 179 175 176 170 188 175 213 175 183 183 179 176 189 184 192 193 213 237 233 224 244 176 232 252
157 184 193 185 195 201 199 188 166 190 144 177 186 143 162 155 181 183 169 179 168 167 170 174 178 160 174 173 178 181 190 188 194 225 223 231 227 213 244 271 253 232 264
165 153 167 169 182 167 178 161 158 162 162 168 171 181 167 172 162 170 187 196 176 176 184 178 183 178 182 187 187 191 188 202 221 220 241 231 226 233 257 248 229 251 234
168 165 160 169 164 161 160 166 173 166 177 171 172 167 160 180 197 188 188 173 194 182 182 188 172 177 187 207 181 204 218 227 229 198 225 230 225 243 250 254 244 237 248
193 156 168 173 177 174 167 168 173 170 178 190 199 191 195 182 192 193 187 194 184 187 174 178 179 187 179 180 215 223 233 225 224 234 231 244 246 252 248 250 243 234 239
198 197 178 155 174 198 187 187 192 181 190 181 195 179 173 212 187 184 181 181 173 211 186 196 180 176 214 229 233 230 226 232 237 244 244 257 246 263 253 247 239 233 229
175 193 194 191 187 202 198 178 184 194 187 185 193 201 207 189 183 199 193 197 184 234 242 223 218 243 244 233 244 229 240 251 247 247 258 260 265 253 249 243 237 235 236
160 164 191 189 207 199 185 189 177 182 212 205 208 196 186 205 197 193 167 191 193 201 233 241 246 242 243 243 244 251 255 252 259 255 257 263 253 248 246 242 246 265 270
180 183 180 180 201 213 211 208 209 206 191 190 197 196 193 192 199 204 209 224 252 249 244 243 253 249 247 258 260 272 277 274 272 258 243 259 254 254 259 247 267 277 268
202 182 180 183 183 185 238 236 232 182 189 192 194 204 239 242 235 166 251 246 256 253 253 254 267 267 292 298 341 301 270 252 297 221 273 274 267 260 293 293 292 271 263
239 236 212 209 193 196 181 176 214 219 247 250 250 220 263 263 263 258 255 253 261 283 310 296 285 314 262 304 318 297 307 302 298 303 304 293 295 308 300 288 273 262 253
283 282 281 282 279 279 280 281 272 275 273 266 289 316 295 287 282 283 257 259 280 262 263 327 268 301 283 266 277 298 305 306 296 298 312 290 267 276 279 267 265 254 242
252 261 260 260 273 287 289 311 319 275 267 316 293 289 251 274 248 299 292 261 312 326 330 328 328 339 342 326 249 273 263 273 274 263 301 284 273 278 271 254 250 230 248
263 265 242 243 241 273 254 252 277 276 290 308 293 316 286 258 310 281 310 314 312 315 314 352 352 338 335 307 323 322 286 276 285 268 283 267 272 276 258 257 251 248 224

GFSMA_2pvu_pres_075.txt.gz
Presure
151 124 148 140 108 153 105 98 122 135 134 143 144 150 143 152 153 144 156 146 151 160 149 150 145 164 171 140 171 167 161 155 164 171 170 204 174 206 151 193 223 204 182
137 150 122 98 156 144 153 75 151 102 100 150 84 152 134 151 143 157 144 153 160 144 150 157 164 168 168 175 166 164 153 153 180 183 179 191 144 190 181 191 138 118 179
161 161 124 144 152 138 143 148 83 80 82 83 153 152 146 145 158 147 151 159 160 172 159 141 170 161 153 177 187 181 174 185 156 192 190 161 162 201 204 215 208 149 192
147 92 160 155 153 138 146 78 131 150 158 155 149 152 146 153 131 143 141 144 143 157 152 146 161 175 178 182 183 136 164 148 170 195 192 207 181 213 177 229 210 157 224
95 153 146 150 130 120 150 154 151 150 151 160 145 130 137 160 125 164 165 153 147 173 181 168 172 171 172 183 174 185 187 170 208 192 195 199 223 191 218 182 191 141 194
127 167 171 167 158 159 124 162 161 157 160 163 137 168 172 181 144 158 182 188 155 182 160 165 166 154 186 179 136 185 180 171 154 207 190 187 176 201 221 211 185 217 202
169 176 178 179 173 176 165 169 169 165 160 154 161 188 162 195 181 180 192 175 177 174 168 208 143 192 217 142 209 175 195 180 154 170 150 170 175 178 188 194 224 204 205
160 195 175 174 186 159 161 169 197 143 198 179 185 173 154 190 192 143 163 176 163 186 189 129 186 183 141 172 186 179 195 166 171 196 179 177 174 181 191 198 193 211 237
135 191 170 154 168 174 152 188 198 195 171 198 194 182 160 187 182 182 178 179 169 180 145 159 166 168 172 159 154 167 170 158 175 193 177 172 185 183 195 192 200 218 233
178 159 167 168 178 180 143 176 192 199 181 196 186 157 179 174 178 176 172 168 164 176 177 164 167 176 145 184 170 194 177 174 173 179 176 138 185 182 225 193 218 237 239
179 159 158 159 162 171 141 193 199 214 201 179 190 152 189 163 157 162 167 158 204 163 170 177 173 171 163 196 187 192 199 176 187 174 191 179 180 222 161 216 226 224 230
175 184 168 164 171 187 155 172 182 200 180 160 172 192 190 169 196 167 161 160 175 178 166 175 160 168 207 210 189 174 187 174 178 181 183 181 186 194 188 229 215 228 229
163 162 171 178 183 173 189 179 183 160 171 170 177 179 171 171 166 170 173 172 180 155 163 173 195 178 201 196 169 205 209 201 191 184 195 189 220 209 226 218 222 237 236
179 161 165 167 173 164 157 168 185 166 167 170 149 174 175 178 174 180 166 162 162 182 187 198 188 200 199 176 184 195 190 141 187 144 237 208 208 234 220 229 237 238 267
162 158 159 162 178 163 187 192 172 165 211 180 187 190 186 170 164 189 177 201 220 168 200 182 179 195 172 200 201 175 179 232 165 183 186 206 233 219 234 232 243 241 239
162 165 159 173 179 191 192 173 169 190 191 188 193 174 177 187 188 167 199 203 167 194 199 161 199 193 207 200 186 194 198 160 109 218 222 235 238 236 236 229 253 248 255
178 169 169 166 168 198 175 164 151 161 188 171 200 167 202 194 203 202 175 185 185 194 184 198 182 188 190 185 178 195 144 226 240 237 236 242 230 235 246 249 251 248 258
152 175 153 170 165 167 158 194 215 169 145 163 185 170 188 179 224 210 188 209 203 134 182 201 195 188 193 202 201 212 242 239 244 248 246 242 247 249 267 267 254 262 254
191 192 168 194 178 182 156 177 152 167 160 179 166 181 188 204 213 168 207 201 186 171 210 212 211 197 192 214 251 262 256 245 252 250 256 253 248 269 253 261 272 263 240
197 223 189 173 192 161 167 188 205 188 185 185 174 173 188 188 187 204 190 196 202 192 193 238 201 217 254 253 270 265 262 262 261 263 293 296 280 275 273 269 261 243 260
175 200 194 198 193 209 190 182 197 195 203 186 189 174 166 188 194 208 208 186 203 202 197 236 250 280 269 293 291 289 282 306 258 261 251 298 298 294 284 291 274 285 250
192 196 194 210 195 183 183 192 214 196 198 196 191 182 236 234 201 196 240 201 243 243 266 294 275 295 289 285 303 264 294 292 288 239 256 264 314 297 294 283 292 279 295
208 211 210 203 199 199 198 203 184 163 177 214 205 224 206 241 241 238 233 235 253 286 276 273 289 269 271 326 298 255 306 286 304 284 276 264 275 300 296 291 289 289 303
213 214 217 215 212 207 213 217 224 238 248 287 289 262 317 290 258 280 266 245 290 272 250 296 287 291 287 319 313 321 336 344 318 306 291 277 264 301 292 279 268 297 280
271 236 230 233 262 267 278 281 286 293 287 297 307 308 305 306 286 298 252 249 282 286 276 309 311 310 314 314 333 338 322 317 306 294 287 278 272 277 264 268 280 263 253
275 264 269 264 292 290 259 264 262 266 272 276 170 254 246 239 243 269 321 310 288 302 296 300 302 317 333 327 325 323 316 308 290 279 275 279 265 281 266 272 263 253 274

GFSMA_2pvu_pres_078.txt.gz
Presure
106 156 157 131 141 141 147 153 153 145 137 88 151 115 141 144 131 139 141 141 149 137 144 149 159 165 154 179 180 169 164 175 192 166 162 191 161 161 159 124 143 218 185
153 163 150 141 155 132 151 143 128 99 150 140 145 144 148 154 137 155 152 155 142 149 143 157 151 151 181 161 157 162 163 150 209 148 181 194 193 149 160 193 178 174 185
163 163 153 160 138 144 144 155 156 79 76 148 158 156 113 129 146 150 160 149 129 151 161 169 153 153 160 167 154 180 189 168 200 135 149 151 171 153 179 187 180 188 194
163 163 151 135 145 158 136 100 156 142 161 136 151 154 152 160 161 158 128 151 138 160 178 155 197 176 161 169 175 178 173 179 160 158 169 198 158 144 172 183 183 206 194
152 109 141 123 186 146 104 128 140 166 141 149 172 166 160 150 154 144 159 143 187 180 186 200 150 150 174 168 181 133 145 157 139 163 185 159 169 179 207 200 179 197 178
157 96 145 169 149 102 166 173 154 177 174 170 174 174 160 181 147 141 192 194 167 163 173 159 180 172 173 189 175 141 159 147 169 156 168 177 198 197 188 184 189 178 196
170 124 150 157 135 181 108 150 169 161 154 172 183 164 143 152 199 194 184 201 183 192 178 177 178 165 197 205 191 170 153 173 160 161 197 166 178 187 178 187 193 204 199
158 183 137 165 152 153 164 168 155 167 172 137 158 151 170 176 169 166 169 176 172 165 184 187 170 216 214 165 165 157 164 187 152 202 209 198 175 172 201 180 189 213 245
151 158 156 164 138 170 135 174 179 151 166 177 190 166 151 147 204 163 181 181 174 184 167 160 148 166 156 169 160 178 174 177 184 213 196 182 181 189 176 206 214 190 216
174 149 162 159 167 168 132 163 151 191 150 191 168 155 153 153 144 149 162 166 148 191 149 162 161 159 153 191 154 159 170 203 193 203 197 207 186 192 187 185 188 193 196
139 179 178 161 176 175 156 186 177 156 126 150 177 156 195 152 224 154 155 150 186 151 203 162 196 188 195 222 184 161 189 164 214 188 189 178 132 201 181 197 203 236 237
182 188 173 165 166 175 182 157 179 150 175 182 188 146 200 165 184 155 180 174 205 216 181 199 198 177 197 220 161 209 190 214 200 212 182 182 201 217 191 215 204 205 240
173 171 191 189 180 172 167 165 159 180 169 193 173 189 155 179 182 204 173 178 192 187 204 155 196 173 190 162 196 220 208 176 185 181 202 184 224 193 210 212 226 225 233
183 192 168 176 153 179 161 159 167 161 189 195 171 180 190 162 188 207 160 176 181 206 150 210 175 173 225 159 201 179 201 199 181 191 197 213 194 204 207 243 234 237 237
195 155 185 198 165 175 166 180 157 174 180 176 172 168 173 200 184 149 187 202 171 163 173 191 198 180 179 159 184 195 200 200 188 198 190 204 176 221 233 235 259 236 239
190 178 175 167 178 186 180 161 185 166 181 184 170 195 178 167 196 183 164 160 164 199 189 209 174 191 178 157 178 197 204 213 197 196 230 218 234 259 263 254 242 245 240
166 194 177 168 174 175 177 191 175 176 164 180 188 166 183 189 185 177 168 167 199 196 186 194 204 192 186 162 188 211 198 196 208 216 237 237 272 266 271 269 257 254 251
173 170 205 199 209 172 164 165 186 193 193 185 156 180 199 196 148 198 200 177 220 182 201 171 187 198 184 182 217 180 228 228 240 236 239 282 266 286 281 287 272 274 293
178 201 167 164 155 143 174 165 153 183 179 174 188 180 188 135 180 183 180 225 158 196 178 205 199 194 186 187 213 210 230 265 258 262 302 287 272 281 262 281 270 246 243
143 174 197 180 183 201 169 168 201 171 151 187 173 190 173 199 220 179 234 205 190 196 186 198 195 203 216 217 230 287 241 323 303 287 281 233 283 292 289 281 287 233 248
206 206 152 200 158 206 173 200 218 194 170 183 192 188 209 162 200 219 176 220 170 201 197 207 216 214 217 237 307 297 307 293 273 254 266 295 289 283 284 262 296 283 285
170 192 193 189 151 158 188 155 221 211 197 144 144 163 211 194 191 197 199 214 200 222 162 221 222 204 236 350 309 293 270 249 330 303 307 335 273 296 304 290 264 262 287
201 198 190 200 214 195 213 198 201 215 208 200 197 226 203 202 204 207 209 216 213 213 229 214 220 271 289 291 246 259 322 324 321 324 320 331 333 314 283 283 275 280 295
212 221 203 199 222 195 209 189 200 204 212 215 209 205 195 210 212 221 217 217 213 225 211 237 284 288 263 285 297 273 310 316 324 312 337 329 307 293 284 293 282 270 288
213 210 212 204 210 209 206 204 202 185 201 206 214 207 212 212 223 211 157 204 317 269 279 290 271 292 312 305 300 311 325 339 361 326 318 301 296 284 287 302 274 289 292
217 224 222 225 226 220 219 224 221 214 230 229 216 197 214 184 225 250 293 279 209 239 298 327 299 307 300 297 307 305 325 329 318 327 303 285 288 287 287 274 263 262 273

GFSMA_2pvu_pres_081.txt.gz
Presure
147 147 147 142 74 112 143 157 103 133 140 149 143 147 149 117 77 132 152 154 125 145 163 148 135 148 142 147 191 174 173 174 173 177 196 162 153 154 196 179 183 186 214
157 147 154 124 143 166 163 137 156 138 142 147 149 144 107 149 156 152 152 145 146 159 154 140 153 152 152 186 184 190 155 167 189 185 181 135 157 171 158 160 189 193 147
82 157 160 177 159 121 155 150 89 163 111 134 82 152 149 145 82 156 137 149 160 154 160 139 152 153 170 191 191 180 190 185 199 170 179 148 158 190 208 170 199 182 186
178 174 133 138 157 168 152 135 161 93 149 145 154 145 154 143 164 143 167 172 172 142 170 150 180 174 182 208 172 189 189 171 157 149 152 157 183 167 158 178 203 202 159
174 160 161 160 186 179 193 165 138 149 141 162 161 173 183 169 169 168 180 153 132 172 152 153 166 164 172 189 177 184 171 156 157 158 163 161 174 180 172 154 161 186 195
161 172 147 164 159 191 167 151 134 144 172 153 168 153 170 158 156 170 143 127 173 183 155 172 186 164 168 169 171 162 152 147 159 180 172 193 136 181 211 212 183 192 187
170 126 182 153 138 176 153 159 164 170 127 181 142 187 182 166 172 145 135 186 171 175 170 174 195 158 179 156 151 142 147 148 207 201 183 159 208 167 147 163 184 202 213
185 179 132 179 128 166 140 156 160 160 181 172 147 162 162 174 136 151 179 172 154 174 136 159 199 145 159 142 156 167 160 142 225 207 188 155 197 144 165 197 202 193 213
168 129 173 153 135 166 145 161 162 130 169 145 135 170 156 161 159 158 207 127 171 147 147 166 173 172 145 149 169 150 196 181 174 208 203 168 181 201 189 152 162 196 185
169 167 166 164 176 146 178 134 164 135 160 186 144 142 148 187 150 186 189 148 131 168 151 171 134 167 137 228 185 165 169 162 194 185 189 184 198 204 201 164 194 184 234
177 169 161 171 149 157 172 162 182 169 159 184 180 170 189 170 199 208 150 174 163 206 136 205 182 187 151 135 207 166 189 166 169 187 148 208 188 185 186 203 201 178 204
172 189 201 182 186 153 149 157 188 151 162 170 167 148 161 138 152 164 171 143 190 171 186 177 175 205 200 222 205 172 202 195 213 194 202 177 189 192 177 207 205 222 154
156 183 189 155 171 184 178 191 184 186 189 153 161 174 191 188 178 147 174 184 153 169 151 201 197 199 182 199 171 146 202 194 189 223 200 184 193 188 205 180 197 231 260
186 185 166 151 189 162 193 189 173 178 175 160 186 207 153 175 214 173 157 160 192 149 169 192 176 192 202 172 193 208 175 198 208 192 187 144 202 205 196 212 210 227 303
174 176 203 188 176 202 166 186 185 150 179 145 200 177 193 183 219 189 174 188 191 195 202 179 190 176 181 198 213 198 202 183 190 225 194 204 207 205 201 215 227 319 293
182 177 175 181 170 179 188 196 180 173 167 190 161 174 177 171 189 170 199 187 183 194 160 194 150 183 208 204 180 191 200 205 177 196 206 224 225 208 217 232 316 290 249
171 171 185 173 185 188 174 196 181 172 189 200 184 184 185 167 170 172 190 184 176 170 175 197 199 193 197 176 189 196 207 177 197 204 204 214 205 228 222 233 324 260 237
174 192 191 190 177 172 167 174 180 183 206 191 181 194 203 174 148 188 190 153 164 172 193 197 200 165 214 196 192 187 198 196 205 210 218 231 232 248 312 319 242 249 283
200 187 194 193 190 190 184 175 155 186 172 187 188 145 143 191 186 212 157 207 187 151 195 153 166 202 199 173 193 176 219 201 210 214 198 254 229 314 272 273 315 264 312
204 197 205 188 193 176 194 200 192 164 177 169 169 135 178 164 154 168 144 177 176 193 168 182 196 199 200 215 204 202 204 206 206 212 206 239 242 289 318 317 295 305 284
202 190 191 197 196 188 197 172 181 179 185 165 166 175 148 152 175 206 190 192 198 184 198 198 186 197 187 217 209 175 185 227 175 164 251 321 314 319 331 321 343 310 306
194 202 186 191 185 181 205 188 179 185 189 178 150 144 169 187 190 155 157 203 191 205 162 211 215 194 217 218 196 233 231 205 194 242 326 315 320 309 315 324 314 324 298
211 197 216 211 186 184 176 181 155 160 155 145 212 196 192 172 228 176 206 214 185 201 209 215 191 188 197 201 236 220 233 219 228 325 318 310 326 324 325 316 317 317 292
223 206 235 230 196 184 177 193 216 202 206 215 205 175 211 223 218 190 186 203 220 195 199 212 215 197 203 229 221 232 294 244 298 319 321 339 340 333 345 319 317 303 294
222 239 197 204 201 206 213 226 228 209 214 215 232 211 221 210 202 189 183 201 206 195 180 199 205 229 215 245 217 233 272 243 309 316 332 338 359 313 324 304 294 293 291
223 216 229 209 216 220 215 204 212 212 211 225 207 202 211 187 174 184 178 188 179 212 211 192 219 235 199 240 324 294 308 307 308 317 323 315 324 320 305 298 302 297 287

GFSMA_2pvu_pres_084.txt.gz
Presure
177 167 158 157 151 151 143 157 147 161 155 163 145 135 134 149 119 85 109 145 143 140 144 142 169 161 157 137 180 154 196 167 175 165 176 163 179 165 186 159 176 207 177
169 162 121 166 153 159 148 141 115 150 168 110 151 151 91 162 172 152 133 142 136 156 167 149 163 151 149 187 148 197 167 137 190 163 177 155 170 152 158 184 206 188 185
159 169 156 170 162 88 155 148 165 149 145 125 155 159 161 160 158 179 166 159 170 185 154 158 148 145 167 161 179 163 155 158 181 160 209 152 154 151 147 207 197 182 168
146 188 185 170 189 158 150 119 168 147 136 148 89 139 149 169 144 160 176 156 165 169 150 140 162 164 120 164 154 148 153 152 172 150 231 140 134 180 202 154 185 148 161
150 180 160 152 177 151 176 146 176 146 146 164 161 154 144 146 152 164 150 145 172 166 171 176 137 161 189 156 171 170 170 151 176 149 144 151 155 146 177 177 183 161 172
164 162 168 160 179 186 172 179 163 136 169 161 142 180 169 159 125 159 148 147 153 149 163 136 156 124 171 158 152 137 148 209 136 142 168 149 177 159 147 154 179 165 175
171 159 181 159 178 163 147 189 184 173 147 180 178 185 161 165 142 161 133 165 164 157 141 136 200 161 164 161 154 154 154 192 145 183 208 213 214 132 140 161 192 191 210
161 157 167 176 178 183 185 167 160 170 180 149 175 167 151 175 134 164 129 188 182 164 165 187 146 169 170 190 135 147 213 152 140 132 189 203 201 147 196 168 158 157 125
161 144 179 159 175 162 154 174 161 166 180 152 197 172 162 179 132 122 156 138 146 135 193 156 170 199 145 157 163 139 195 163 143 158 145 140 142 163 148 194 177 167 172
174 151 184 158 179 166 194 186 173 154 188 169 188 180 144 179 139 163 139 158 147 125 179 125 182 150 131 187 148 211 171 147 206 131 155 190 172 195 197 182 124 183 205
143 174 189 173 202 193 172 179 185 170 186 171 125 158 177 141 161 162 165 183 197 194 150 208 126 117 197 145 132 184 141 133 189 182 200 180 185 163 175 148 198 175 203
188 183 148 180 189 176 176 183 168 170 156 172 163 181 173 169 196 151 194 157 197 172 121 168 191 151 137 173 129 134 168 175 159 138 191 191 163 195 191 197 165 149 154
172 148 167 185 181 167 166 188 167 165 175 161 179 178 186 193 181 175 184 178 137 157 163 165 128 179 162 208 187 170 140 162 214 203 155 179 133 183 182 214 179 218 211
172 170 180 180 171 185 180 154 170 170 159 165 184 166 173 183 175 183 169 199 187 156 179 205 148 184 182 167 193 195 220 199 175 188 118 140 180 195 166 143 190 216 206
186 171 181 172 172 194 177 177 169 171 171 181 185 141 191 178 177 201 191 156 191 177 185 183 172 214 219 170 224 222 170 173 153 146 189 182 202 190 206 203 195 221 236
167 180 169 172 188 187 179 193 173 171 175 181 174 162 179 194 165 182 188 185 193 199 189 193 181 205 157 221 175 198 183 144 140 194 170 202 196 196 220 201 210 215 225
192 184 184 181 190 183 179 184 181 193 180 198 190 198 173 180 169 175 183 189 171 176 159 170 181 150 166 200 185 164 214 164 200 182 139 183 193 203 203 209 231 204 201
181 200 185 182 194 167 179 202 179 187 199 200 196 176 176 185 177 191 194 190 169 185 165 151 179 196 179 170 182 183 219 208 181 206 197 180 209 214 207 216 223 230 338
174 198 174 158 173 176 170 181 180 208 204 192 155 190 181 186 154 187 170 140 195 181 159 144 189 186 192 159 199 211 190 180 185 194 179 194 174 224 228 220 197 326 239
202 208 200 222 215 191 202 214 210 190 170 187 154 181 175 161 164 136 157 174 183 160 156 201 191 198 188 216 197 176 170 182 193 211 209 209 213 207 215 238 243 244 330
188 212 191 198 192 201 191 208 206 200 185 188 191 188 177 209 207 161 199 160 150 196 204 189 208 194 179 197 186 197 196 207 193 193 216 204 201 200 207 311 240 318 323
214 204 205 203 221 220 203 207 228 203 201 200 219 152 226 210 189 209 202 200 191 204 182 187 198 190 188 198 157 188 212 194 203 205 211 223 201 197 247 244 271 333 335
209 200 209 185 210 221 223 190 169 169 175 165 195 209 210 177 174 190 186 149 166 193 183 186 189 183 200 182 195 201 210 222 192 202 208 211 201 220 273 335 354 338 350
203 220 214 212 213 208 199 200 224 210 199 180 188 215 209 181 183 201 193 169 169 194 197 193 191 184 191 208 192 202 193 208 210 244 234 274 223 252 232 352 362 346 325
223 213 213 218 187 197 207 211 212 210 198 219 215 210 208 200 199 192 209 205 210 189 201 207 206 211 190 190 208 217 211 221 213 246 227 209 264 283 316 334 333 323 313
198 194 223 223 238 233 217 232 236 196 202 187 199 210 188 189 198 215 206 209 217 187 198 213 218 216 220 200 225 194 211 212 206 208 252 288 277 301 315 330 327 300 306

GFSMA_2pvu_pres_087.txt.gz
Presure
142 137 169 139 138 169 173 174 163 155 152 147 151 91 164 81 152 152 151 149 160 153 144 157 166 151 161 138 143 149 145 131 163 166 188 161 164 152 177 145 148 154 198
139 124 134 140 186 175 148 165 154 157 152 168 162 163 100 136 131 127 159 159 156 158 169 161 165 151 141 170 139 138 161 151 160 159 184 147 216 148 188 134 161 190 157
119 113 125 133 141 169 170 166 165 158 149 172 154 153 150 152 154 169 174 154 171 138 127 173 142 167 137 143 149 155 159 121 156 133 155 136 147 219 214 186 150 209 136
126 119 103 118 139 140 167 172 158 166 171 188 176 176 185 176 187 158 155 172 124 158 151 167 166 170 169 149 160 184 142 184 185 156 173 143 128 212 171 175 157 154 147
119 117 126 130 125 139 145 160 181 187 172 159 188 182 177 186 138 160 140 188 170 173 154 140 135 140 154 143 156 191 160 147 169 139 182 159 149 192 135 163 190 137 118
109 132 126 129 131 136 148 148 180 152 183 153 163 152 166 193 190 141 160 161 176 159 186 174 161 171 120 146 209 135 156 174 164 153 145 135 181 142 188 140 149 197 182
147 117 134 135 82 135 162 144 158 162 161 157 183 172 170 132 116 162 178 168 122 167 111 189 181 150 142 128 189 142 165 197 171 163 150 141 140 127 177 135 190 149 148
129 135 148 136 149 141 155 148 154 173 156 162 172 180 143 146 198 178 163 170 186 182 163 166 175 165 144 127 189 126 183 160 143 155 151 128 193 140 168 168 183 183 145
128 140 143 145 156 159 149 159 176 145 167 125 170 132 182 175 168 196 142 163 168 165 159 123 146 179 136 157 195 161 195 180 134 134 156 219 209 146 179 175 163 130 138
141 128 141 146 142 198 157 181 165 159 177 174 154 151 169 147 187 165 158 172 169 152 161 139 197 177 180 188 213 158 193 198 133 188 133 175 145 161 201 160 153 167 173
154 145 142 144 159 124 171 160 181 168 159 179 176 186 182 171 202 167 169 152 173 179 144 139 175 168 175 189 164 156 129 190 164 124 213 175 153 156 130 120 143 113 174
149 148 154 171 168 169 158 195 160 148 170 162 215 192 163 173 143 175 201 163 171 177 155 142 126 178 189 131 171 206 202 202 153 181 188 159 172 188 181 189 196 192 160
163 157 176 159 164 152 154 154 172 173 173 195 193 174 177 197 161 193 164 171 169 154 189 185 125 165 182 164 187 186 141 195 155 165 187 200 185 188 186 193 183 151 166
189 155 158 167 162 169 154 170 169 172 183 173 196 175 175 167 184 187 173 153 189 172 195 205 168 174 197 200 204 175 194 169 201 179 183 211 197 193 185 190 166 183 192
159 184 200 161 194 200 175 180 170 163 169 179 164 170 167 191 163 179 187 183 167 199 174 189 178 200 204 186 180 200 201 207 194 183 198 184 213 161 154 204 153 140 161
178 179 166 180 184 179 170 190 183 187 154 186 184 160 187 175 168 191 183 182 166 178 186 176 186 173 202 197 177 189 166 189 197 204 222 212 219 164 190 133 167 191 186
191 220 196 208 184 158 165 167 173 178 196 184 186 175 174 169 167 160 176 173 188 167 184 181 209 183 193 188 186 170 201 193 192 193 177 214 206 193 171 190 150 194 205
215 194 201 194 199 212 184 184 182 178 179 171 169 179 188 187 171 172 185 199 194 187 181 180 177 213 188 172 177 188 144 182 209 165 210 186 188 180 192 190 187 199 180
186 183 185 203 171 169 180 194 166 185 190 198 168 185 197 187 188 197 174 178 161 157 200 185 208 209 179 164 181 180 145 190 192 207 180 207 175 179 180 192 184 179 222
184 177 172 190 189 194 187 196 195 197 199 176 189 191 195 183 179 176 169 174 179 219 157 194 210 163 176 193 194 133 196 154 189 180 187 185 186 189 203 186 209 195 215
192 208 184 205 191 185 208 195 204 189 194 201 175 179 195 196 189 164 189 223 189 229 199 218 203 182 151 187 212 191 186 189 165 183 212 193 198 182 192 198 209 204 236
195 214 188 211 188 198 196 218 190 208 214 204 203 203 176 187 208 205 214 183 188 200 183 206 193 164 179 209 176 183 200 193 221 182 185 185 203 205 210 204 216 217 214
200 211 209 207 203 200 202 219 205 171 186 199 204 209 203 191 206 203 220 205 163 161 162 207 190 182 196 177 179 224 187 195 186 191 186 189 202 210 241 232 220 228 253
201 203 209 198 199 204 199 201 202 222 207 204 213 212 209 215 206 225 199 196 206 210 195 196 203 185 200 206 182 181 188 185 193 173 193 207 204 231 199 204 223 203 215
222 207 223 221 216 223 219 214 225 213 197 204 228 220 206 188 183 219 207 192 198 205 221 182 192 203 171 178 190 179 179 203 181 185 194 208 184 228 207 223 211 251 286
237 229 238 221 227 228 198 197 192 222 220 226 197 211 192 208 207 219 205 212 215 203 200 204 199 194 195 196 186 184 183 187 196 196 204 254 267 219 183 202 194 273 286

GFSMA_2pvu_pres_090.txt.gz
Presure
138 129 131 136 126 137 130 126 124 177 170 145 156 154 132 165 167 168 152 138 137 149 141 126 163 149 132 125 158 174 154 133 136 120 188 142 143 156 145 162 173 150 188
100 169 147 120 139 119 133 121 126 120 152 172 181 173 174 167 162 144 116 134 159 171 162 122 141 130 163 144 169 147 163 132 133 184 169 150 139 157 170 155 201 157 187
86 154 149 147 137 128 115 114 124 133 125 134 150 152 185 160 174 162 126 169 184 179 129 182 126 164 196 152 130 137 141 141 139 158 134 144 169 158 159 179 141 219 126
117 138 116 115 120 120 134 140 117 122 131 141 137 142 150 146 171 166 158 162 153 172 179 186 170 176 160 164 157 198 140 165 149 126 150 133 166 137 185 122 185 164 155
143 117 144 144 124 132 127 130 130 123 127 134 135 146 149 149 164 164 165 172 161 156 155 143 166 115 154 135 169 164 138 179 193 186 174 173 167 175 137 180 164 144 116
145 122 150 112 147 139 138 129 132 125 134 149 146 153 152 152 152 153 155 168 163 148 138 171 163 162 173 161 180 170 169 136 170 172 140 139 147 166 144 193 170 187 202
132 160 149 146 139 138 137 122 133 129 132 138 154 140 165 171 144 177 143 174 166 150 158 197 177 150 161 157 170 152 142 175 196 153 129 136 152 169 195 181 201 143 150
143 148 161 155 154 138 132 134 127 135 139 143 137 150 149 146 146 161 178 148 150 163 170 202 172 185 180 159 164 134 172 181 185 146 135 183 184 172 185 155 130 114 164
161 149 149 183 158 128 149 143 132 140 133 138 147 126 161 172 151 154 162 135 164 170 189 172 164 194 185 190 153 171 169 160 191 163 206 204 190 198 188 174 155 195 143
163 149 182 170 142 132 160 149 159 140 138 141 166 169 171 163 186 167 183 183 149 166 186 174 178 173 162 193 187 161 188 190 164 174 201 187 129 147 181 126 146 154 156
193 143 148 157 128 133 139 129 158 141 149 145 146 152 138 161 208 153 146 167 180 176 180 185 177 189 191 197 178 161 155 161 193 182 194 179 170 164 141 145 199 211 206
143 140 160 172 136 141 156 138 148 173 160 141 153 170 173 168 156 145 199 187 168 171 203 162 180 160 152 155 197 180 168 151 181 188 182 207 176 207 176 179 179 185 147
151 144 148 141 142 146 147 162 155 144 142 157 154 172 159 166 143 193 182 178 157 176 161 177 171 189 190 185 138 163 186 190 184 151 172 157 194 188 168 169 208 175 177
144 151 147 145 153 155 151 177 169 153 156 165 161 153 179 179 177 191 199 169 207 166 189 174 178 172 146 175 178 154 197 201 150 181 188 173 195 193 193 180 190 170 197
150 152 152 155 166 154 156 151 161 164 164 196 144 180 171 162 192 160 172 154 170 193 178 187 182 190 169 192 186 189 187 158 176 170 190 220 184 167 187 209 207 204 209
216 209 158 183 180 153 186 172 208 211 188 202 182 178 172 180 158 168 163 170 175 176 200 169 183 191 194 179 181 189 171 179 171 196 182 194 208 198 180 203 188 171 202
191 199 170 209 180 194 213 175 189 183 171 171 174 178 182 168 166 171 188 166 163 157 171 184 175 182 182 176 177 178 174 201 183 178 176 197 200 173 224 200 202 209 192
225 213 191 192 215 203 183 171 191 187 196 187 207 194 191 186 185 183 170 152 194 190 185 182 191 174 172 179 188 183 171 184 190 176 189 209 201 149 222 181 211 168 180
191 200 218 197 208 201 209 204 189 193 205 190 182 199 193 185 188 196 178 187 188 176 157 181 178 170 165 164 169 184 187 170 161 190 202 215 169 129 206 218 182 182 213
200 212 195 199 187 198 194 186 203 182 187 195 173 159 170 210 208 198 209 186 186 181 179 190 175 199 200 188 160 160 154 171 220 185 230 199 199 184 194 200 181 196 207
213 200 214 197 193 180 187 206 212 190 199 184 197 201 203 209 222 189 185 210 188 188 194 208 168 194 171 147 192 181 210 216 209 206 212 198 178 182 194 213 216 182 208
233 205 209 211 196 207 212 197 226 202 166 201 183 205 219 170 171 210 182 191 192 192 207 194 193 208 191 221 216 201 226 192 188 164 193 199 211 199 192 192 216 182 186
210 201 191 202 203 206 204 201 201 210 195 184 207 231 220 205 204 199 203 210 185 214 174 203 209 213 233 206 214 201 180 221 206 206 192 198 194 192 193 198 210 205 223
215 217 207 207 209 208 213 213 211 216 198 200 197 216 209 211 211 201 225 212 213 201 219 217 198 200 204 184 176 176 172 199 218 193 181 184 201 191 195 206 206 204 203
258 222 227 218 216 231 217 222 212 216 217 224 186 184 224 193 219 226 212 230 212 215 176 192 172 198 201 225 207 195 216 201 196 204 191 192 203 199 194 203 206 187 207
192 248 243 257 244 237 237 233 228 228 243 226 212 210 209 231 228 197 222 248 201 204 230 183 224 207 210 204 230 213 199 210 206 197 212 199 193 193 206 234 181 253 247

GFSMA_2pvu_pres_093.txt.gz
Presure
139 138 135 138 136 119 141 142 133 139 125 119 121 118 130 131 132 164 158 181 184 134 133 149 127 181 174 182 178 153 142 170 147 134 126 160 126 132 126 138 164 149 160
142 143 144 134 148 122 145 132 111 117 125 116 113 115 125 119 118 135 145 163 174 154 154 151 173 160 165 123 177 155 169 141 160 167 174 128 141 170 151 170 191 137 158
129 149 147 123 128 120 125 121 135 119 121 138 117 104 127 125 134 127 129 139 151 163 174 159 145 177 168 121 152 168 185 145 110 142 193 173 162 128 196 213 170 188 143
217 161 150 137 148 116 142 153 136 142 139 113 110 145 119 130 125 138 147 142 141 168 153 146 159 166 169 136 156 146 156 174 150 166 164 159 147 160 153 184 149 133 143
139 255 203 139 119 117 143 152 126 149 125 126 138 158 124 129 139 114 136 158 186 148 163 170 133 158 169 146 156 156 191 178 160 175 155 158 155 174 147 174 135 137 138
130 154 142 130 173 186 132 141 148 136 131 129 143 128 136 140 129 127 137 146 134 142 139 141 141 161 192 158 167 178 163 151 160 163 174 176 141 155 171 169 144 175 146
120 187 145 161 166 144 112 150 116 110 149 154 139 146 137 142 135 126 140 128 137 163 176 142 132 163 134 165 161 156 148 161 181 183 183 185 158 172 181 137 171 182 167
163 261 198 215 152 153 112 187 124 128 167 137 149 147 132 131 140 137 142 132 143 175 141 141 162 147 173 170 181 170 176 208 175 183 140 142 153 137 141 125 150 168 184
196 152 227 199 191 166 150 127 196 168 158 133 145 142 157 135 124 135 150 141 140 153 134 150 143 156 175 177 153 191 171 179 181 180 187 169 181 173 165 165 166 187 183
144 230 235 147 148 174 159 149 148 150 159 155 127 161 165 136 133 159 164 145 119 147 175 145 158 184 170 177 193 177 201 179 167 183 186 189 157 176 160 143 181 187 161
213 203 192 206 195 209 137 199 159 130 188 184 202 182 149 205 157 141 132 146 188 165 191 151 153 189 184 157 198 164 174 197 185 176 201 174 186 133 137 181 182 192 193
194 222 220 146 196 128 133 158 208 134 138 154 138 146 133 140 146 145 152 146 180 148 139 198 178 170 162 144 190 171 181 202 186 174 164 185 158 171 184 132 182 185 188
218 222 183 154 209 142 159 142 139 169 176 156 142 144 140 148 143 149 151 154 155 187 186 196 186 172 185 174 186 181 176 165 187 189 174 187 184 179 186 171 184 184 180
158 149 150 147 149 151 149 156 152 177 194 186 185 211 194 185 158 173 184 175 202 167 180 204 150 146 188 169 186 191 172 169 182 179 191 200 190 170 173 175 188 176 181
207 208 199 202 204 155 161 203 173 152 163 201 154 149 173 193 154 173 156 195 161 188 157 159 160 153 177 175 179 172 191 179 181 186 177 176 162 196 166 175 173 177 156
171 183 212 214 212 183 160 156 187 178 209 197 170 206 201 192 186 176 194 190 180 160 181 158 196 177 182 168 192 172 188 192 182 180 192 185 190 173 189 190 187 165 192
206 200 222 212 173 195 198 192 204 172 171 194 198 183 179 196 170 187 189 186 174 198 190 197 190 177 193 185 183 176 169 171 192 172 175 174 183 186 162 163 178 182 163
217 211 201 183 208 166 195 170 176 198 165 178 209 167 186 178 213 173 168 168 198 200 169 175 193 157 192 177 180 169 173 203 153 189 180 195 183 151 161 160 194 194 217
195 196 201 195 208 208 193 204 197 215 178 178 186 187 210 180 163 188 205 166 176 204 172 199 165 163 183 195 186 191 191 167 166 150 191 172 164 175 151 206 222 179 167
222 224 213 195 176 190 185 189 199 187 186 186 198 199 193 195 195 196 210 185 201 182 184 186 152 150 192 185 190 199 162 185 210 184 173 205 195 164 180 240 196 232 160
223 209 207 217 220 211 212 209 210 213 199 204 211 203 196 190 196 192 190 183 191 194 208 181 168 189 183 203 186 195 198 229 189 183 192 208 191 190 243 208 193 215 207
227 205 208 216 197 204 205 204 213 216 192 189 187 182 224 200 197 214 205 201 200 191 201 177 182 190 194 205 207 193 211 244 178 175 192 210 216 194 199 222 198 212 181
246 233 216 212 222 186 201 212 192 207 203 202 204 209 209 204 203 212 204 195 200 198 190 190 207 190 192 205 198 178 184 240 207 200 218 236 216 199 205 223 205 194 198
266 240 232 225 225 216 223 189 204 216 219 209 209 237 193 189 207 212 208 209 202 203 210 205 214 190 188 201 172 217 209 208 229 215 218 189 199 200 198 204 203 200 195
245 244 237 257 224 259 237 215 226 246 231 214 230 197 216 196 197 218 197 206 202 220 207 210 200 197 195 196 209 204 196 217 201 182 204 204 211 208 207 214 199 198 208
232 214 177 256 335 265 171 273 253 244 249 217 228 231 217 228 226 228 225 232 234 203 213 211 213 225 207 207 232 208 213 222 228 206 216 192 196 189 180 192 215 201 181

GFSMA_2pvu_pres_096.txt.gz
Presure
130 114 148 134 152 134 133 161 134 171 126 124 145 113 113 118 112 110 125 112 152 123 134 147 138 144 145 140 150 151 130 141 148 156 158 148 154 146 170 155 170 146 159
163 189 126 167 150 142 151 151 144 122 129 143 125 135 118 101 110 113 110 128 125 124 143 135 127 161 121 144 146 171 167 168 143 161 150 162 158 151 163 158 143 152 171
187 141 121 200 166 125 126 127 150 129 147 158 117 134 118 142 109 136 121 125 145 139 123 134 150 137 183 183 151 142 148 155 156 153 169 160 163 155 163 184 179 159 144
113 134 213 111 135 138 159 143 122 184 120 109 149 147 139 146 133 131 122 129 119 125 121 130 132 131 130 147 131 139 161 145 146 164 166 160 162 155 183 192 180 164 154
185 133 146 175 131 135 140 103 181 142 172 123 139 118 133 143 128 114 151 128 139 124 131 147 125 135 137 164 127 136 148 145 139 163 162 169 159 178 159 177 161 178 133
164 147 156 140 123 125 133 153 135 160 195 140 142 158 144 133 127 154 136 145 146 128 131 156 130 122 145 138 133 129 146 151 168 164 168 160 164 187 186 191 164 168 176
109 126 97 129 130 133 125 137 140 163 172 210 222 142 153 134 125 149 132 153 116 145 143 129 136 120 126 137 126 136 147 136 162 154 177 179 167 178 162 195 178 170 162
144 104 143 160 138 147 118 140 134 171 159 151 161 169 123 146 153 179 154 148 157 137 141 136 142 156 133 165 132 144 125 142 163 184 157 146 190 187 160 173 177 166 171
162 145 148 109 143 137 118 133 160 157 188 145 138 117 139 156 192 148 132 134 148 123 133 151 149 145 139 153 146 180 172 131 171 152 150 129 171 181 158 183 172 185 117
170 105 155 196 129 138 177 239 224 217 208 184 207 194 128 144 135 148 145 135 148 139 150 140 166 135 163 141 127 163 165 192 135 166 177 181 169 177 187 166 179 180 173
217 137 153 180 123 150 190 239 230 225 182 192 212 135 178 177 172 135 148 129 137 122 125 141 138 169 138 148 157 133 153 159 178 153 173 133 185 164 195 179 194 173 194
138 128 129 189 196 260 145 176 205 216 135 132 153 139 135 134 134 144 140 137 145 137 136 151 131 145 180 158 143 168 165 185 172 182 157 198 174 190 181 179 172 170 189
138 139 135 135 246 201 220 173 231 172 189 196 139 218 139 139 140 128 158 183 125 145 158 169 149 174 171 168 154 162 184 173 165 202 198 182 168 166 198 176 186 189 163
300 301 299 140 143 155 163 209 169 220 139 135 137 136 181 143 141 181 189 192 152 181 171 139 161 200 170 158 149 184 145 190 170 199 203 163 206 199 180 187 176 182 191
162 163 143 144 142 154 191 208 208 159 153 191 205 155 216 200 145 156 144 151 161 196 190 149 176 188 162 179 163 187 178 206 162 194 191 159 172 192 182 169 190 166 188
261 208 230 205 212 225 201 183 174 176 196 212 220 207 188 197 191 168 175 197 202 150 176 193 188 176 201 194 175 189 193 217 197 202 191 170 184 179 173 182 187 169 193
217 220 215 214 182 165 174 177 178 209 199 203 200 191 193 201 198 168 153 167 210 190 206 210 194 182 215 186 174 177 183 173 185 194 189 173 171 184 182 186 173 184 180
220 259 182 205 196 204 218 210 195 212 201 206 210 207 189 174 174 206 172 164 206 195 198 188 216 202 186 157 159 208 178 192 196 170 191 158 179 190 190 169 189 182 185
218 191 202 218 216 198 214 181 207 179 174 185 173 206 192 192 192 188 189 195 201 212 200 215 190 177 183 204 190 192 187 162 169 172 174 187 150 179 174 197 169 197 189
231 186 175 182 182 200 192 187 185 187 207 195 197 184 178 197 197 195 196 198 208 189 200 198 198 192 196 191 189 193 169 177 197 190 181 166 193 185 180 197 182 167 204
262 252 243 235 237 216 222 214 201 216 192 188 186 200 208 186 188 197 195 202 201 193 196 201 200 201 194 170 191 210 211 197 211 203 177 167 183 174 189 200 183 164 185
183 249 260 235 250 234 215 218 201 211 222 213 214 206 191 198 195 201 204 162 189 180 164 201 164 203 207 197 201 200 201 208 206 193 165 208 194 189 204 205 193 208 223
258 238 214 220 253 220 216 204 207 215 205 210 210 209 202 201 207 177 201 204 195 202 200 214 194 190 198 190 194 184 180 203 180 199 172 212 176 185 182 198 217 211 199
220 237 248 255 255 253 244 236 234 228 222 222 227 202 213 213 199 199 197 189 208 187 207 203 213 212 191 170 176 191 204 206 213 198 195 224 196 208 236 215 202 193 203
192 228 199 216 173 194 219 240 198 270 253 248 233 223 226 232 236 215 225 227 232 218 225 204 223 223 215 193 203 196 213 225 221 225 221 216 205 196 204 224 195 214 194
246 241 270 231 212 207 233 211 240 254 250 270 270 266 245 252 245 235 240 226 219 224 221 225 218 221 237 212 207 222 197 201 192 194 201 198 217 211 221 196 205 198 206

GFSMA_2pvu_pres_099.txt.gz
Presure
106 122 124 136 122 137 106 152 170 149 154 149 147 135 126 133 145 137 112 135 108 133 137 107 120 128 123 124 135 135 137 134 131 142 134 150 168 145 152 161 165 179 160
97 125 144 130 116 118 133 141 152 239 143 127 149 145 115 135 142 139 117 135 105 127 136 141 112 124 132 131 126 121 119 123 128 127 133 135 150 154 141 162 170 162 173
148 124 136 146 153 207 140 137 147 132 158 135 158 145 156 128 149 137 150 116 152 136 104 135 120 132 129 128 129 125 131 152 138 146 138 131 157 146 146 177 161 156 174
205 139 147 122 146 161 128 126 141 152 105 132 144 142 146 149 123 144 122 125 156 152 150 145 114 113 130 116 122 144 122 129 141 139 142 150 139 155 150 134 179 150 167
179 125 137 142 116 124 192 142 162 115 132 129 137 111 221 214 198 187 180 154 145 127 113 150 122 143 147 122 126 143 136 122 132 137 140 143 164 132 146 172 150 176 161
124 200 126 191 131 123 138 144 132 123 121 145 131 108 148 140 161 141 144 112 163 121 125 125 126 137 154 132 127 135 116 142 124 146 125 176 180 128 160 192 163 138 140
125 157 192 137 115 139 136 116 124 185 128 136 114 124 116 146 134 144 150 105 189 132 156 152 123 129 136 111 161 132 156 163 126 138 140 169 143 161 190 133 123 194 163
160 133 128 120 133 128 120 128 131 133 134 120 108 126 166 150 158 155 153 147 167 152 150 143 145 139 140 177 156 139 163 149 128 146 122 156 129 147 187 149 159 140 147
133 130 132 188 159 130 132 152 174 125 152 148 130 104 152 188 159 163 184 182 154 174 178 139 132 169 145 117 177 183 149 132 140 137 141 163 146 161 182 187 174 149 165
124 110 127 128 219 147 129 170 164 109 164 152 149 101 248 150 163 247 186 185 205 126 176 196 181 159 124 160 133 116 133 143 134 129 160 179 133 160 189 167 141 135 132
198 143 203 127 122 133 129 142 144 151 118 185 115 149 129 153 231 230 215 192 122 135 136 149 131 176 188 125 136 164 124 147 135 196 137 167 141 180 147 180 181 183 213
133 128 132 181 174 137 182 134 153 126 198 137 133 240 186 206 225 218 166 200 156 181 187 138 182 135 129 129 174 142 131 199 175 144 178 190 173 150 158 175 151 203 194
188 163 155 129 129 134 170 133 130 129 159 191 202 132 209 134 193 224 135 202 171 151 141 129 131 147 164 189 178 182 151 187 134 175 171 137 147 191 143 188 175 208 194
188 198 145 194 204 203 203 209 209 211 282 282 148 135 212 135 203 213 152 217 207 168 133 192 176 138 175 197 191 179 149 132 190 195 177 183 157 194 189 144 188 158 171
262 203 201 208 209 161 313 279 285 269 251 239 237 197 141 155 217 202 203 208 207 181 203 187 202 142 144 181 175 181 187 158 199 175 182 149 182 170 191 199 172 192 205
230 304 278 256 281 281 271 251 262 251 243 236 226 223 220 228 224 213 175 150 155 171 206 179 180 184 202 209 172 162 168 188 201 171 192 195 171 200 181 156 228 160 180
276 268 265 263 260 256 257 260 242 237 209 220 216 212 211 201 195 211 208 214 208 193 161 175 197 213 190 172 150 157 173 156 153 192 150 211 185 161 183 214 202 181 196
267 250 242 248 259 250 252 238 177 167 163 162 166 166 166 194 193 193 198 197 192 198 201 196 198 205 204 156 145 158 193 177 197 213 159 205 195 216 163 178 174 184 226
200 200 235 234 241 236 230 180 172 172 173 201 205 195 207 208 199 184 184 207 206 196 209 178 176 168 170 179 193 183 191 220 213 192 200 205 183 193 176 202 190 221 189
258 258 239 221 193 192 187 230 209 190 215 205 218 194 191 185 177 175 176 174 177 187 182 181 211 187 194 194 216 223 216 212 196 200 222 190 189 186 209 207 198 210 188
259 251 253 249 244 250 235 192 203 202 234 195 203 222 201 199 186 179 191 203 208 192 200 193 182 186 184 194 192 198 182 189 221 220 185 201 206 209 194 206 217 195 198
249 241 227 230 236 240 258 249 237 242 222 197 192 205 205 222 214 216 208 203 200 202 163 210 212 211 216 209 196 192 204 200 199 189 198 213 211 216 181 219 165 164 215
222 250 253 264 273 255 242 230 245 253 250 239 206 221 221 233 217 210 226 224 218 203 199 191 190 182 175 198 201 196 186 193 187 182 188 199 215 196 179 175 203 225 194
203 220 211 220 231 223 200 224 264 176 215 237 251 220 208 170 170 204 228 222 211 205 198 208 216 215 215 207 201 202 205 199 198 196 201 203 199 203 209 210 217 220 238
211 213 184 191 188 182 203 213 196 196 237 225 215 255 236 211 215 236 221 198 222 228 208 226 219 210 158 219 217 216 199 204 203 203 194 228 223 210 226 205 223 217 199
237 185 216 200 236 208 192 226 209 215 239 244 224 250 247 264 217 236 267 256 235 234 237 224 228 222 221 221 222 216 200 218 225 198 225 199 208 195 193 208 195 205 219

GFSMA_2pvu_pres_102.txt.gz
Presure
117 109 105 107 115 110 138 164 127 92 140 144 138 143 167 161 156 140 117 148 135 122 150 116 138 123 141 106 119 111 114 116 114 130 141 131 144 138 142 147 139 135 123
111 124 109 121 168 115 122 162 129 124 132 162 131 151 134 138 125 167 131 143 124 161 125 156 132 151 127 132 112 126 122 118 132 142 124 130 135 121 138 136 132 160 154
111 110 112 121 134 147 118 139 156 143 106 107 175 140 138 211 133 154 116 133 140 135 145 136 152 153 154 156 138 156 132 109 117 121 115 120 122 131 145 145 138 166 155
110 145 146 161 119 156 132 107 134 131 92 154 160 145 182 106 126 128 131 136 157 149 149 133 149 161 133 160 159 122 126 171 152 133 129 137 125 149 154 165 137 141 127
109 102 132 153 126 220 140 162 178 125 134 157 122 167 123 124 130 132 129 130 132 137 136 144 140 177 142 150 126 163 146 134 137 144 117 118 129 156 126 125 128 159 145
165 132 157 155 146 136 201 133 120 163 195 123 114 110 138 135 126 133 110 127 193 148 149 149 158 149 163 157 159 158 137 165 124 176 117 162 114 154 165 125 145 133 146
134 216 152 114 143 126 148 201 114 134 138 120 216 180 123 167 213 137 110 126 103 142 182 149 150 214 138 154 169 173 187 161 114 167 126 118 178 147 144 134 132 127 136
143 153 144 100 122 154 121 123 137 122 172 125 122 166 126 158 123 169 144 135 105 124 152 155 158 154 173 207 192 160 148 188 118 196 146 128 166 140 129 133 124 127 193
151 130 161 127 102 140 122 140 135 146 198 126 168 177 126 124 125 159 139 138 151 129 139 154 197 176 180 182 126 170 137 165 213 159 134 158 134 133 126 153 134 140 127
135 133 129 185 125 127 133 130 139 203 205 149 149 197 135 190 124 123 140 112 137 117 139 168 207 165 195 127 189 145 138 184 179 146 159 126 125 132 135 167 170 134 171
131 132 167 128 127 133 133 127 134 124 140 137 134 135 187 120 187 133 146 129 135 201 181 120 213 201 182 126 183 126 202 210 208 125 182 134 120 178 150 132 185 148 137
184 134 129 128 122 122 123 135 173 139 134 135 182 132 133 131 182 129 129 117 202 126 145 183 202 223 193 136 193 155 135 127 121 121 179 129 123 166 186 132 172 154 169
134 135 162 174 128 131 155 131 197 185 208 149 177 175 193 211 196 168 215 137 190 173 149 162 131 135 208 202 139 162 134 194 136 145 138 156 129 201 178 143 168 149 195
132 134 134 156 144 135 136 136 136 177 143 142 140 141 167 203 194 196 197 191 192 227 135 210 226 135 160 199 138 144 134 134 134 165 142 144 149 183 142 135 128 163 199
181 183 158 235 318 165 295 189 178 179 179 180 181 183 181 190 194 194 196 180 240 229 224 203 210 189 201 203 195 199 205 181 145 171 179 184 164 188 142 165 145 144 162
317 311 302 283 275 275 283 267 266 266 263 261 245 192 196 174 205 280 222 244 238 225 222 182 168 209 216 215 199 203 172 211 181 197 196 195 160 187 172 144 171 183 181
260 292 107 181 296 277 204 205 265 206 274 248 194 184 187 223 218 201 181 238 225 228 223 207 200 213 206 214 203 186 170 198 178 187 181 188 193 170 197 201 187 172 181
110 128 285 272 277 263 179 257 256 260 253 259 259 251 250 245 237 167 234 227 214 211 225 213 207 210 214 202 155 154 191 192 194 182 176 154 181 154 198 178 185 159 165
265 268 133 263 231 228 253 245 208 246 248 249 249 244 246 239 234 229 241 227 231 213 218 210 177 197 179 175 206 178 175 204 175 172 168 161 211 162 156 194 188 191 202
250 271 251 251 260 225 233 249 255 236 233 238 251 210 224 234 230 213 208 231 203 195 184 172 186 176 185 189 198 211 193 193 203 153 191 211 189 183 195 196 201 182 186
244 239 247 253 233 245 226 227 215 238 228 243 235 215 234 235 210 211 196 192 199 201 197 184 189 190 198 213 190 197 201 193 193 191 193 143 208 193 202 206 214 194 224
266 253 250 250 246 238 166 242 250 254 234 245 235 229 238 205 220 229 225 220 219 223 201 220 199 206 210 211 202 208 202 203 207 192 191 192 218 202 200 196 201 198 225
140 179 199 196 219 201 204 194 186 209 191 258 252 248 236 236 234 215 218 216 171 219 219 208 203 200 182 173 185 210 211 209 208 208 208 201 190 190 200 207 219 215 208
218 177 164 201 201 202 225 220 202 221 193 214 236 226 180 241 200 206 222 209 179 203 221 210 195 219 222 214 199 207 209 203 205 198 194 202 205 199 206 198 211 204 210
219 205 208 213 234 229 196 172 156 214 175 165 220 240 223 209 205 266 222 251 200 193 208 204 209 234 219 219 220 216 221 228 200 216 201 204 205 203 200 200 198 196 219
195 149 197 200 216 181 213 172 162 164 233 210 245 234 237 193 196 236 224 250 257 262 261 209 206 214 221 225 233 217 214 214 211 198 221 218 210 210 214 201 198 204 203

GFSMA_2pvu_pres_105.txt.gz
Presure
118 126 110 141 130 116 104 107 126 127 108 115 115 130 139 152 196 160 141 142 128 156 127 133 124 134 133 144 123 139 137 165 132 127 141 124 132 121 124 141 123 141 121
118 140 104 132 132 195 120 124 119 173 133 149 130 135 140 127 125 140 101 117 124 172 135 131 169 155 144 142 147 116 147 143 125 148 131 125 110 132 125 139 129 129 126
134 123 127 144 140 121 120 104 126 121 137 97 179 145 146 131 129 149 141 131 110 126 139 142 126 182 135 128 116 142 141 115 142 141 150 127 133 131 185 136 124 121 145
141 159 127 123 147 139 114 123 162 135 98 168 135 183 123 120 192 140 107 140 93 128 135 134 111 128 179 145 137 138 122 150 165 146 142 139 142 190 115 126 148 113 156
115 142 159 127 150 106 141 132 131 131 148 131 171 172 151 130 117 116 127 188 133 125 124 126 127 123 102 135 172 172 138 136 150 144 160 129 162 128 141 154 156 128 118
167 137 140 105 164 142 141 154 136 121 152 130 124 114 188 191 148 131 151 141 156 127 122 132 127 129 129 134 160 144 198 152 178 151 119 130 179 183 126 138 125 135 145
153 153 138 152 127 151 192 134 156 133 125 141 137 114 124 127 121 119 139 108 205 119 203 120 126 106 127 120 115 152 153 159 128 178 179 189 192 183 190 160 134 199 134
128 148 127 145 142 126 140 150 140 139 130 110 131 168 132 124 193 125 145 149 140 134 122 131 126 139 136 123 151 112 146 166 134 165 147 186 184 167 169 160 151 135 134
146 127 132 143 123 141 153 134 142 137 136 150 143 159 128 125 192 172 179 119 178 124 179 125 117 181 152 140 150 136 199 173 192 212 175 179 127 181 187 135 181 168 169
132 142 135 129 142 125 124 141 141 126 193 126 119 129 141 166 160 128 158 185 128 185 120 175 135 121 127 144 118 134 185 218 159 178 197 127 125 195 133 145 119 128 128
140 133 135 138 136 132 129 129 126 206 132 129 133 132 138 139 136 153 126 190 134 151 155 131 129 179 123 193 187 127 117 126 127 183 192 179 189 208 208 178 182 134 133
146 140 137 186 134 124 129 135 135 135 130 131 131 135 133 134 132 132 152 127 127 129 139 126 125 123 125 120 142 200 160 197 134 134 200 185 185 206 140 126 125 136 194
148 146 138 143 135 130 137 144 135 134 145 156 127 130 133 134 136 167 160 192 178 192 187 165 199 184 203 192 186 199 185 205 131 188 169 172 189 204 165 163 193 160 181
146 145 148 135 134 133 132 130 133 137 173 178 182 187 186 143 136 186 198 199 192 196 181 183 195 180 196 196 188 184 186 211 206 208 201 200 194 191 188 207 184 195 189
273 251 141 141 141 140 142 151 137 143 161 161 158 157 171 175 177 176 173 172 175 175 178 194 191 183 179 179 181 182 183 213 188 224 215 215 196 204 194 204 203 148 177
144 143 162 181 178 179 177 177 181 188 305 285 265 259 195 224 230 218 183 176 180 177 178 179 180 182 181 184 187 177 231 224 216 206 218 210 189 189 179 185 176 185 194
198 287 295 290 290 298 289 278 171 178 274 282 148 245 292 286 280 278 273 261 253 247 238 213 188 193 188 185 238 231 219 207 200 202 203 190 203 196 178 180 191 197 210
271 276 272 149 277 288 286 271 280 278 177 263 284 190 188 253 269 258 239 255 152 154 257 260 226 181 255 256 237 229 224 221 207 217 153 153 213 199 193 162 159 170 154
183 114 125 124 234 262 267 267 244 266 260 275 261 260 266 258 256 262 249 247 189 250 243 253 247 250 185 239 235 229 216 216 219 217 223 202 207 209 204 180 188 181 182
249 202 112 250 131 128 187 224 200 247 255 254 248 248 246 240 240 242 241 233 242 243 237 237 243 235 229 191 231 216 198 205 201 205 203 197 201 207 195 183 184 193 206
130 133 165 178 248 133 219 238 219 244 257 240 243 240 228 228 233 233 230 231 251 236 235 233 229 228 225 232 227 213 198 176 190 201 195 178 186 192 212 210 199 196 193
146 254 141 129 122 150 132 134 133 142 243 240 238 242 245 230 229 246 232 229 225 242 234 235 229 230 236 221 219 233 226 217 215 203 199 202 204 204 205 210 210 212 205
198 141 135 128 138 162 158 206 199 186 187 160 193 215 255 244 240 205 228 236 223 209 211 231 235 235 228 206 222 224 228 217 218 213 210 198 194 171 187 184 200 207 207
150 150 141 149 216 226 227 218 227 228 192 201 233 217 213 212 261 170 201 215 196 217 243 228 190 206 214 197 231 218 198 214 198 217 212 207 198 208 207 194 199 203 203
211 204 177 224 206 238 243 237 247 240 243 226 169 235 209 239 230 208 189 158 205 193 222 232 237 212 215 222 200 206 228 223 224 221 189 193 196 201 205 199 197 197 195
232 235 209 149 149 229 174 234 240 226 201 222 222 165 173 167 165 162 162 158 160 235 237 223 241 266 178 191 216 235 227 217 220 229 223 221 212 204 201 201 205 211 216

GFSMA_2pvu_pres_108.txt.gz
Presure
154 162 122 124 110 118 118 113 131 210 122 113 116 121 142 127 217 154 139 117 133 127 144 132 129 109 140 144 153 149 142 125 137 128 136 163 137 148 152 143 118 134 129
169 135 147 129 127 133 124 144 112 143 128 128 110 96 162 126 158 131 144 135 127 138 156 98 124 134 120 138 136 163 111 156 119 133 130 124 151 134 138 127 126 143 132
204 163 131 129 95 131 136 130 187 196 155 110 126 116 144 134 146 117 141 175 127 158 209 122 174 146 121 120 180 129 113 161 166 166 144 142 130 121 161 153 160 174 178
132 153 127 151 207 136 152 175 144 131 130 112 127 146 120 163 150 133 131 156 205 170 127 127 175 141 134 125 129 124 132 125 123 137 184 145 166 160 134 185 150 159 134
140 194 137 157 154 129 149 159 128 159 136 156 138 159 122 139 158 130 158 186 149 198 139 191 116 199 167 143 131 126 128 129 128 132 113 160 202 162 152 138 184 166 136
162 153 162 134 152 149 125 126 125 152 159 153 144 181 137 136 128 131 149 129 120 153 141 157 111 117 161 202 137 173 126 111 130 128 123 123 140 128 143 155 148 173 165
173 157 194 144 149 147 158 146 147 120 144 152 164 140 146 116 151 139 171 125 168 133 118 139 138 125 126 209 129 128 155 125 121 141 146 152 139 121 205 200 166 205 215
200 142 146 142 153 140 145 149 143 149 159 152 145 143 168 122 119 119 132 140 186 124 157 116 169 142 156 130 133 186 170 117 153 123 178 119 144 163 146 208 202 177 187
154 133 132 134 140 144 151 142 140 141 148 139 139 128 160 125 152 153 155 128 160 132 142 121 120 133 170 196 144 129 140 129 126 136 142 119 117 157 190 129 131 171 213
176 130 143 135 143 131 135 124 137 129 143 124 137 133 153 130 130 136 153 130 142 141 124 125 127 153 124 178 126 133 186 122 135 149 164 194 145 130 167 139 121 142 194
139 149 139 144 127 124 118 133 124 138 135 142 123 142 144 133 126 125 134 119 134 130 138 136 130 133 132 129 124 124 126 121 122 120 119 125 126 179 212 212 131 132 215
138 142 133 141 133 142 128 131 132 128 142 128 140 124 129 132 135 136 128 131 160 153 169 130 153 131 132 158 219 201 213 180 193 198 182 173 188 181 182 179 193 189 210
135 128 138 131 140 130 119 133 134 133 163 140 134 131 136 137 131 131 134 135 172 192 177 183 164 159 185 174 184 184 191 174 183 183 188 177 179 195 176 186 180 184 215
132 130 124 133 130 125 142 128 145 146 136 149 130 130 135 141 143 186 175 165 163 171 167 164 168 169 170 173 159 162 166 169 170 168 168 174 165 169 166 166 165 168 194
126 135 135 148 157 152 183 128 128 146 150 136 137 147 182 172 171 175 169 174 171 172 173 178 171 170 174 169 171 167 172 172 171 171 167 165 170 176 162 179 174 171 181
135 136 156 151 153 137 141 267 150 140 142 144 275 272 193 174 185 170 172 141 168 175 185 188 176 173 173 173 173 171 169 167 187 170 172 173 173 172 173 174 185 198 197
154 236 153 244 145 134 145 150 186 281 298 172 268 276 263 255 286 295 285 275 271 183 248 242 191 193 241 241 161 157 151 159 206 172 171 184 184 180 184 185 226 204 205
140 112 106 124 111 107 101 104 118 141 229 270 119 263 248 114 250 250 269 266 265 271 281 287 277 288 279 273 265 168 243 249 245 228 216 213 212 205 197 238 225 163 166
127 120 158 183 214 149 222 270 137 283 242 128 261 221 129 239 256 259 266 267 239 258 247 248 272 253 246 250 256 252 263 261 262 263 256 239 242 210 235 232 230 217 207
251 194 118 256 119 264 255 266 199 187 132 240 140 160 127 274 133 186 199 258 268 263 251 252 257 204 254 245 241 239 238 243 241 240 245 214 241 238 220 230 221 213 170
134 127 128 130 187 135 149 251 254 250 177 244 142 138 229 149 226 251 231 259 238 260 259 243 248 253 245 235 238 237 233 219 229 226 226 227 219 164 219 221 208 175 205
195 201 202 203 211 232 216 164 173 141 250 151 142 141 143 156 158 240 248 239 240 206 198 237 237 252 237 240 227 201 230 228 223 225 222 215 221 214 196 214 194 192 196
181 243 245 242 169 167 162 203 148 152 151 149 153 208 198 187 209 208 220 222 228 216 236 229 237 231 236 220 162 234 236 154 173 231 229 221 211 210 213 212 215 210 213
250 250 248 247 172 162 152 203 195 198 242 245 234 234 232 230 227 224 218 229 242 228 250 235 235 223 182 198 201 222 212 164 188 217 222 235 224 228 220 199 216 215 212
248 247 249 307 285 275 262 259 254 252 250 249 245 235 239 240 241 242 239 233 235 226 240 227 227 219 245 189 228 227 153 218 228 237 175 177 175 182 184 221 215 206 203
269 271 283 306 307 311 270 274 305 307 293 279 267 263 260 261 254 243 245 241 186 243 160 210 213 174 152 155 156 157 164 154 225 227 228 221 211 215 207 213 187 182 229

GFSMA_2pvu_pres_111.txt.gz
Presure
150 155 140 158 128 133 125 168 115 124 126 129 131 105 176 136 133 114 111 135 142 146 154 142 138 132 141 120 130 135 151 132 132 147 133 124 127 146 136 157 153 147 152
133 149 141 173 124 158 134 147 141 131 117 121 118 202 163 103 210 109 137 114 129 143 142 118 172 133 151 130 121 158 143 130 135 121 128 125 133 133 117 106 172 151 174
185 123 123 127 188 146 158 119 130 127 127 154 136 136 168 126 160 143 127 127 150 111 155 131 141 120 180 158 151 211 115 192 116 123 116 126 129 132 118 118 122 176 172
181 185 128 177 133 120 147 185 159 141 128 128 103 142 167 171 127 138 171 140 141 165 178 136 177 146 152 169 113 153 147 177 143 133 121 157 121 124 128 122 130 132 133
150 139 168 151 153 180 149 170 163 141 133 147 128 148 132 163 134 143 139 156 132 142 164 153 129 122 151 98 196 179 124 174 162 189 118 201 137 135 133 140 140 127 139
148 159 152 154 155 181 161 171 140 161 156 150 141 152 136 133 166 147 181 141 148 148 172 147 138 127 145 179 206 176 112 173 187 152 177 124 131 133 123 150 119 146 116
141 149 186 188 157 150 150 162 162 188 176 184 152 146 189 142 136 155 141 130 143 135 159 141 124 159 138 124 116 141 192 220 198 199 204 126 122 149 121 168 146 139 105
140 144 161 156 192 192 178 174 160 176 151 148 153 148 151 152 141 156 174 143 160 132 149 125 179 143 181 176 128 122 120 173 175 185 149 173 122 203 132 173 154 111 209
142 145 148 155 160 151 182 184 137 147 135 142 164 133 133 118 129 141 158 140 129 158 141 136 133 150 154 123 125 186 125 150 168 192 162 192 190 138 206 123 188 149 180
147 136 140 151 155 161 236 142 150 141 140 176 138 121 117 133 137 141 139 133 143 124 124 123 140 124 130 126 127 126 123 126 122 126 125 150 192 187 210 196 189 205 171
130 187 108 127 128 135 158 158 142 124 150 135 122 136 140 130 137 145 136 133 136 120 130 123 126 127 123 126 127 127 132 132 132 128 192 124 127 172 188 206 168 173 198
143 175 138 139 152 141 167 141 136 145 132 139 129 128 125 106 139 143 153 131 151 107 136 132 125 115 129 138 162 167 160 167 135 185 198 180 175 186 191 179 147 185 145
287 373 138 248 139 133 127 149 132 125 135 135 126 138 144 128 133 140 128 141 130 139 127 124 135 134 184 216 196 163 140 156 168 163 166 167 171 165 160 150 161 167 160
124 150 151 374 128 155 127 140 132 130 133 133 134 133 139 142 144 141 134 133 188 162 137 135 164 179 186 196 190 178 163 163 171 175 170 176 175 161 164 167 170 163 165
175 160 133 134 141 143 154 142 130 133 134 138 102 147 146 148 154 137 150 136 142 134 160 150 260 170 161 161 165 157 161 164 166 170 173 170 173 172 156 163 157 146 155
300 131 136 134 211 133 135 144 115 137 139 143 153 150 139 134 142 151 147 265 280 268 269 161 181 224 145 176 186 186 188 183 183 190 175 187 164 175 170 179 163 171 171
273 229 227 233 238 243 131 135 146 107 104 103 120 121 113 123 144 170 246 238 229 234 283 116 249 236 166 187 184 184 199 227 186 182 178 178 175 174 177 184 183 209 193
256 281 257 271 263 161 149 126 152 150 149 122 113 112 111 111 273 243 257 243 243 256 125 143 124 141 127 163 184 271 237 176 267 254 231 242 238 231 238 246 244 234 159
153 234 240 255 225 229 237 127 115 121 118 118 122 120 131 128 165 257 272 239 135 197 126 133 130 255 208 242 172 234 275 274 277 280 278 275 270 266 265 260 244 242 235
179 126 202 123 126 129 127 126 128 131 130 174 133 133 250 229 191 267 253 259 198 237 133 131 142 263 194 253 248 245 200 255 260 262 254 251 250 251 247 245 235 238 230
211 213 245 217 197 221 228 229 237 238 271 254 252 259 247 264 153 277 266 142 265 145 141 149 264 203 258 262 272 249 254 256 252 251 240 245 252 255 248 247 250 250 245
311 294 288 230 193 193 210 241 242 246 217 221 228 226 227 229 154 169 205 158 155 150 150 152 274 256 258 245 247 252 255 236 249 248 242 243 243 239 232 233 227 234 237
279 259 245 264 268 273 307 319 291 273 260 252 243 234 198 184 161 158 176 217 220 234 253 254 218 231 239 258 261 253 258 248 236 242 240 234 240 174 207 152 187 222 224
246 250 247 242 252 256 294 300 299 334 323 298 288 276 264 252 245 240 236 240 242 239 232 224 216 233 224 214 225 233 217 223 236 236 183 242 234 176 195 220 151 187 207
270 265 244 229 228 235 178 223 163 219 294 276 307 309 293 279 190 267 262 256 243 228 231 233 239 240 234 228 231 218 231 220 215 226 190 206 155 149 154 181 144 179 169
219 268 175 229 302 305 332 328 319 378 327 336 339 323 361 328 302 310 297 286 275 264 261 252 246 228 228 236 246 203 222 145 221 199 198 150 150 208 211 225 220 206 201

GFSMA_2pvu_pres_114.txt.gz
Presure
140 151 149 145 149 160 139 140 142 133 135 139 114 120 132 125 120 125 120 153 130 133 124 129 114 120 137 147 179 175 141 136 114 120 124 138 141 132 132 132 136 128 133
154 138 151 149 196 187 132 158 173 154 170 135 152 199 142 142 130 131 144 150 128 121 155 131 140 131 133 122 165 125 127 137 154 145 187 180 163 117 135 121 130 182 141
131 136 152 194 135 159 120 123 128 120 126 181 184 126 117 121 128 110 147 144 176 114 110 136 146 112 157 140 170 137 142 125 156 178 179 163 158 135 127 136 123 132 129
132 134 154 137 153 140 155 184 165 180 148 126 130 187 174 129 121 135 132 127 134 144 136 143 139 132 124 168 144 135 152 123 125 169 185 123 114 122 206 119 201 131 124
136 142 135 142 153 150 183 151 128 163 116 139 153 145 157 155 144 145 142 155 144 154 140 151 141 142 137 197 171 119 190 144 134 175 123 122 134 154 171 192 179 163 136
133 138 123 143 152 136 154 150 144 150 156 168 154 181 178 192 143 145 184 140 147 155 151 136 162 156 153 196 136 150 112 137 115 131 133 132 123 119 183 124 168 177 185
135 120 130 136 130 150 132 151 137 149 153 152 159 171 150 177 168 178 149 155 159 152 149 140 136 132 132 193 131 125 147 185 123 173 175 180 124 159 185 120 190 200 203
110 171 126 124 149 130 136 134 145 146 146 150 171 127 197 172 168 181 187 144 112 177 181 129 161 126 143 116 153 142 121 166 199 119 125 170 156 186 133 119 136 123 160
140 113 145 135 135 147 131 136 132 143 150 151 154 151 159 131 142 135 139 142 123 137 120 144 129 135 143 128 142 124 154 124 158 167 118 149 120 158 121 174 196 190 199
149 176 124 137 132 141 221 152 140 140 245 147 152 179 132 148 132 147 139 140 133 122 127 136 135 136 136 132 130 127 120 118 119 118 121 122 128 183 194 147 199 182 175
213 135 126 140 144 139 147 132 145 154 156 185 153 163 217 145 128 130 127 131 144 136 125 133 129 126 118 127 129 132 127 118 124 126 126 128 140 164 175 197 137 171 202
144 219 141 410 370 419 135 138 151 247 147 150 249 140 173 227 126 138 126 138 139 130 131 133 121 131 141 135 127 118 147 134 127 138 167 164 191 160 169 157 161 159 161
387 348 338 347 339 353 138 306 402 166 151 158 127 128 136 150 132 131 140 128 128 129 137 122 145 144 161 146 125 142 134 131 157 180 182 198 190 205 181 160 158 169 170
313 338 344 346 279 326 207 121 138 143 387 367 157 134 137 211 127 129 247 115 138 116 122 138 144 148 142 133 170 129 139 141 179 189 169 168 187 185 180 157 159 161 167
165 291 297 301 298 299 310 150 174 310 158 145 138 146 146 260 149 149 104 133 132 123 131 130 147 136 144 138 163 161 266 156 165 168 149 162 162 168 170 170 167 165 166
271 274 276 277 230 135 165 136 135 288 138 144 246 196 143 129 126 137 133 103 145 106 134 215 202 143 154 122 143 291 320 266 252 267 182 172 171 184 179 174 165 161 163
260 263 269 269 226 152 231 236 236 153 152 152 269 153 102 292 111 149 152 212 125 126 123 138 159 263 270 198 193 222 246 286 224 269 141 229 240 175 180 174 174 175 178
242 241 181 243 160 153 159 159 158 172 264 273 266 269 133 135 126 117 118 116 120 156 112 151 242 125 270 287 276 292 129 132 119 132 131 274 268 266 187 180 181 180 185
177 176 233 157 163 245 220 220 217 211 125 137 126 127 123 153 126 121 125 126 248 121 127 131 156 127 239 274 278 142 264 125 125 129 143 139 270 171 262 252 249 241 231
128 131 134 130 129 129 130 131 133 131 253 192 132 135 135 136 198 268 202 202 278 277 293 281 270 273 221 251 254 261 270 134 131 134 186 248 268 265 268 257 261 261 255
252 225 254 248 231 234 233 253 266 273 274 298 258 278 268 258 244 241 251 265 269 264 271 254 273 263 265 251 260 219 137 141 139 183 242 245 230 255 260 266 278 280 273
232 233 237 240 242 290 286 262 254 254 250 246 241 253 315 287 279 268 252 198 192 262 259 272 165 164 199 160 151 153 146 151 272 246 263 249 248 263 256 258 203 251 251
172 171 253 235 241 218 199 168 188 289 259 299 325 316 277 268 323 319 286 271 261 246 246 218 248 208 184 203 216 231 262 234 246 257 254 256 192 249 250 246 254 258 243
233 247 254 262 266 275 274 282 294 302 316 244 261 342 299 335 337 347 347 326 229 271 265 211 245 238 225 218 238 260 252 192 259 210 254 249 208 251 244 237 237 199 241
244 251 250 262 272 221 248 285 295 312 319 335 383 387 384 383 393 393 324 340 314 327 287 273 262 254 247 239 229 235 223 220 252 212 251 253 253 253 253 238 237 231 237
258 265 266 254 282 267 284 291 315 313 330 383 367 354 347 346 345 346 355 380 320 345 307 327 287 271 258 257 249 244 229 245 234 219 221 170 181 223 243 244 215 241 229

GFSMA_2pvu_pres_117.txt.gz
Presure
145 153 149 151 127 151 144 152 144 147 140 155 139 136 141 137 131 144 147 127 124 120 131 130 127 128 133 124 144 128 139 161 138 131 141 136 118 118 189 165 153 119 159
158 139 135 146 141 159 124 156 163 161 152 108 184 175 143 146 159 135 126 154 141 127 122 124 155 126 143 125 125 141 136 147 159 151 164 143 144 121 135 160 144 118 124
167 168 157 138 147 136 149 128 128 164 132 164 160 125 142 154 139 148 155 151 139 133 131 132 126 91 126 141 185 125 143 139 121 142 169 125 168 140 156 123 179 189 118
147 144 131 138 134 139 152 137 146 175 154 154 149 168 171 157 187 133 134 143 189 164 106 138 132 130 145 143 134 166 141 159 140 123 175 139 129 119 185 113 152 185 126
133 135 101 137 149 126 138 142 123 138 149 137 121 143 132 157 190 166 178 149 141 170 149 137 149 142 152 107 185 165 135 126 175 126 174 107 119 133 124 113 172 119 163
133 95 130 133 129 148 142 136 132 125 148 150 140 147 118 141 157 116 172 161 173 143 153 169 154 160 166 188 149 163 154 125 140 140 171 160 126 131 181 118 139 118 124
145 146 149 178 125 104 136 115 139 136 140 136 142 116 167 143 145 149 147 146 184 162 171 167 155 158 140 153 149 129 131 146 135 141 181 130 124 100 112 116 198 140 145
116 148 130 138 136 110 121 126 141 134 150 153 127 126 133 140 140 148 152 176 144 159 137 166 177 114 141 128 133 149 129 128 133 146 121 136 116 152 123 185 182 126 125
335 183 183 136 142 144 160 135 135 149 145 141 146 118 134 137 141 143 149 179 159 191 162 135 127 135 137 131 141 141 140 130 125 128 130 129 125 122 148 168 120 121 159
431 429 224 418 146 137 160 170 135 149 126 147 119 146 161 166 145 156 186 132 143 181 134 136 131 134 142 135 135 132 137 120 129 140 129 112 136 143 126 126 120 121 126
399 430 441 420 407 161 384 136 118 123 128 180 150 150 134 167 148 140 145 152 146 150 149 140 135 133 136 134 129 120 133 130 131 129 129 124 129 139 126 121 126 190 201
340 127 116 379 374 136 424 132 200 320 320 160 349 234 202 135 147 151 165 145 134 131 126 133 151 142 133 132 132 128 129 130 132 133 130 138 131 125 154 126 135 168 182
295 234 95 98 327 347 360 369 386 363 348 334 325 306 141 243 316 220 208 149 154 131 146 146 141 141 133 117 130 128 133 130 136 133 149 152 137 129 129 135 149 169 185
278 276 278 283 294 294 296 306 313 322 268 151 331 375 156 321 316 272 141 346 159 155 160 110 146 135 107 132 121 147 131 134 132 137 135 134 153 132 160 125 183 166 184
255 256 266 272 273 274 277 286 282 282 290 301 294 297 310 315 175 298 325 327 127 124 126 141 117 131 213 106 104 133 106 135 175 127 179 124 160 219 170 268 172 250 168
243 262 258 256 257 259 258 262 262 267 269 274 223 206 139 137 206 197 198 135 136 165 313 196 259 198 285 131 266 161 130 135 128 149 140 144 152 249 163 269 267 271 183
273 275 288 295 291 282 230 248 256 258 260 262 262 267 268 266 267 274 277 280 286 292 295 147 130 226 162 206 189 120 126 121 125 182 185 152 137 206 214 242 190 191 279
151 254 159 159 157 158 160 152 154 179 235 153 153 152 153 153 153 267 265 267 273 277 186 152 121 147 124 118 148 135 142 150 122 272 268 260 266 309 245 278 273 241 243
253 258 241 170 174 219 144 142 141 142 143 142 142 142 142 143 136 131 123 123 127 126 121 130 129 128 130 129 280 293 268 157 161 153 267 125 267 241 273 281 225 123 123
250 196 195 196 195 198 210 184 239 253 262 247 244 259 265 264 264 272 295 292 277 264 219 254 195 202 246 209 285 269 252 254 253 255 247 248 273 273 261 269 272 130 124
254 245 240 248 250 257 240 231 262 257 256 277 285 281 282 302 289 267 266 266 254 305 252 269 219 253 263 280 274 282 273 285 259 261 263 248 241 245 275 259 221 130 129
259 264 241 239 261 261 244 239 256 269 276 287 282 260 304 305 317 319 329 327 323 305 262 316 279 267 250 249 256 194 275 268 278 261 271 260 262 254 157 145 136 134 233
231 241 234 273 234 249 265 270 271 263 263 270 272 318 289 320 325 240 376 368 430 394 390 337 329 267 265 262 249 253 266 266 276 254 243 260 151 158 150 145 199 224 251
230 227 246 242 252 270 265 272 277 287 261 291 300 318 348 339 387 389 380 373 373 375 385 402 345 331 314 270 215 168 159 209 253 265 265 226 171 155 216 255 213 240 251
229 227 224 253 239 270 269 273 278 286 311 293 324 356 399 369 351 343 338 334 334 338 350 360 371 328 339 324 281 269 262 255 242 238 249 260 265 258 267 242 264 245 260
216 230 225 240 255 242 268 268 285 290 286 325 398 368 332 319 309 308 309 310 312 315 319 325 339 348 361 341 332 290 267 266 259 248 238 170 169 179 261 249 254 242 244

GFSMA_2pvu_pres_120.txt.gz
Presure
128 134 135 140 141 160 142 152 154 159 135 144 146 148 137 148 130 152 137 123 149 150 131 135 143 146 156 126 124 130 128 143 123 118 135 141 134 131 139 132 134 151 121
138 127 128 136 143 154 134 144 158 139 147 119 160 162 151 161 124 123 158 179 124 155 135 163 148 110 130 110 129 104 184 147 151 182 120 142 132 142 119 123 127 117 176
122 132 148 136 147 152 148 154 142 182 149 134 132 123 166 129 158 144 164 132 137 146 115 134 185 159 161 192 118 111 129 127 130 154 168 131 134 138 159 137 138 140 118
160 147 147 139 140 137 148 150 136 140 139 138 148 125 147 143 134 173 151 139 154 172 151 175 187 127 142 152 145 177 164 180 159 151 169 178 131 149 145 142 192 134 124
136 163 155 197 142 164 140 139 134 142 139 118 154 154 122 149 154 157 154 158 153 151 162 170 151 194 184 153 144 142 155 161 154 164 150 146 130 120 122 139 131 135 111
165 224 214 184 222 242 151 136 133 139 129 140 137 133 121 120 123 139 126 140 145 131 141 138 137 135 152 159 176 179 162 162 161 168 146 130 178 144 138 119 116 127 123
181 268 264 257 178 244 233 149 147 148 120 144 128 133 118 146 151 128 144 129 126 143 142 134 149 150 148 149 180 145 168 186 122 130 135 165 152 134 130 124 142 117 123
171 170 170 170 169 183 179 182 149 145 134 134 136 119 141 131 122 137 150 126 133 133 149 134 144 150 148 147 120 148 120 123 126 130 149 144 129 120 122 130 126 119 123
148 236 147 153 156 163 323 168 293 273 174 137 165 181 144 130 197 131 155 140 131 139 176 180 176 166 166 135 177 168 131 143 152 171 139 128 116 147 134 126 118 128 134
304 303 327 376 408 398 416 423 191 428 376 170 344 141 133 170 143 124 126 132 127 135 139 130 156 178 167 132 137 192 129 140 141 170 175 125 117 134 131 126 121 133 127
291 291 294 303 318 336 345 388 438 136 406 384 128 137 184 122 308 134 141 163 138 139 142 128 126 129 141 139 175 127 137 133 129 125 133 149 125 132 130 132 132 123 130
254 270 278 283 292 292 305 318 336 519 379 365 223 202 134 173 368 340 193 278 129 130 167 187 161 153 151 158 141 129 126 159 134 141 125 126 125 125 131 126 133 135 134
258 263 263 266 272 278 282 252 227 233 279 200 329 346 349 246 338 257 289 283 134 320 257 140 237 283 170 125 132 142 138 133 127 127 134 143 128 133 127 141 123 131 140
302 301 298 300 309 303 290 276 275 280 282 283 284 289 299 307 317 322 323 143 311 135 134 301 165 298 194 319 132 148 133 140 117 137 137 137 147 139 137 127 123 137 177
263 265 261 256 285 277 283 292 299 294 283 270 268 274 277 278 279 284 289 292 298 304 258 176 314 330 170 339 299 127 133 135 117 126 137 103 134 108 132 175 146 149 254
265 251 248 252 261 255 255 257 253 256 265 282 291 285 276 267 265 268 272 274 276 280 165 212 151 201 137 139 138 120 143 136 123 389 278 123 104 280 241 144 106 138 137
261 260 247 255 238 264 265 267 264 269 273 273 267 278 254 273 289 292 289 239 135 135 190 152 146 146 175 286 283 249 263 105 124 137 143 253 368 248 119 146 116 133 145
214 242 263 264 263 255 246 247 260 259 228 241 155 248 260 265 268 271 224 168 168 167 156 159 162 163 235 274 248 283 291 350 124 280 333 125 119 147 130 141 121 120 129
229 234 237 238 233 237 241 266 274 273 249 229 149 145 142 138 135 136 137 142 141 141 134 135 139 144 134 128 130 127 127 166 127 127 128 127 129 129 135 189 308 313 125
230 228 225 226 238 227 229 246 251 253 273 274 277 259 281 295 290 287 276 293 285 266 274 297 309 294 276 299 276 197 200 202 216 133 134 136 142 278 279 285 242 265 251
223 222 227 234 219 229 191 232 226 241 247 241 266 283 268 296 301 300 321 346 280 276 290 306 264 314 311 298 268 290 260 261 269 299 287 299 281 279 271 281 261 280 257
222 221 224 226 216 225 245 247 251 254 242 262 252 288 284 289 307 310 346 357 357 343 346 357 386 304 292 333 338 281 284 273 258 261 286 292 277 268 271 269 275 248 263
210 210 213 216 218 222 222 224 228 233 251 251 275 280 295 305 289 414 442 393 365 352 352 359 366 374 383 393 407 429 313 264 274 262 253 268 291 263 262 254 244 241 246
212 233 234 229 241 249 224 227 228 240 256 248 275 280 308 305 428 356 336 322 315 314 318 320 323 328 337 351 369 391 405 335 288 271 268 254 272 275 271 261 207 254 255
245 240 242 223 229 243 245 250 245 246 261 257 265 295 323 339 340 327 318 308 306 308 366 371 376 325 323 326 336 355 377 401 325 291 267 255 244 265 283 270 271 258 242
228 236 245 240 245 229 238 247 244 269 276 259 276 301 281 330 322 312 305 303 350 376 367 363 363 414 453 497 461 332 347 369 395 339 281 279 251 261 251 184 229 161 263